[[{"header":{"parameterUnit":"m.s-1","parameterCategory":1,"la1":31.0,"la2":29.5877,"lo1":-88.7671,"lo2":-86.6584,"dy":0.0162,"dx":0.0185,"nx":115,"ny":88,"refTime":"2023-07-18T12:00:00:Z","depth":0,"parameterNumber":2,"parameterNumberName":"U-component_of_WINDS"},"data":[0.0,0.0,0.0,0.0,0.0,0.0,0.0,0.0,0.0,0.0,0.0,0.0,0.0,0.0,0.0,0.0,0.0,0.0,0.0,0.0,0.0,0.0,0.0,0.0,0.0,0.0,0.0,0.0,0.0,0.0,0.0,0.0,0.0,0.0,0.0,0.0,0.0,0.0,0.0,0.0,0.0,0.0,0.0,0.0,0.0,0.0,0.0,0.0,0.0,0.0,0.0,0.0,0.0,0.0,0.0,0.0,0.0,0.0,0.0,0.0,0.0,0.0,0.0,0.0,0.0,0.0,0.0,0.0,0.0,0.0,0.0,0.0,0.0,0.0,0.0,0.0,0.0,0.0,0.0,0.0,0.0,0.0,0.0,0.0,0.0,0.0,0.0,0.0,0.0,0.0,0.0,0.0,0.0,0.0,0.0,0.0,0.0,0.0,0.0,0.0,0.0,0.0,0.0,0.0,0.0,0.0,0.0,0.0,0.0,0.0,0.0,0.0,0.0,0.0,0.0,0.0,0.0,0.0,0.0,0.0,0.0,0.0,0.0,0.0,0.0,0.0,0.0,0.0,0.0,0.0,0.0,0.0,0.0,0.0,0.0,0.0,0.0,0.0,0.0,0.0,0.0,0.0,0.0,0.0,0.0,0.0,0.0,0.0,0.0,0.0,0.0,0.0,0.0,0.0,0.0,0.0,0.0,0.0,0.0,0.0,0.0,0.0,0.0,0.0,0.0,0.0,0.0,0.0,0.0,0.0,0.0,0.0,0.0,0.0,0.0,0.0,0.0,0.0,0.0,0.0,0.0,0.0,0.0,0.0,0.0,0.0,0.0,0.0,0.0,0.0,0.0,0.0,0.0,0.0,0.0,0.0,0.0,0.0,0.0,0.0,0.0,0.0,0.0,0.0,0.0,0.0,0.0,0.0,0.0,0.0,0.0,0.0,0.0,0.0,0.0,0.0,0.0,0.0,0.0,0.0,0.0,0.0,0.0,0.0,0.0,0.0,0.0,0.0,0.0,0.0,0.0,0.0,0.0,0.0,0.0,0.0,0.0,0.0,0.0,0.0,0.0,0.0,0.0,0.0,0.0,0.0,0.0,0.0,0.0,0.0,0.0,0.0,0.0,0.0,0.0,0.0,0.0,0.0,0.0,0.0,0.0,0.0,0.0,0.0,0.0,0.0,0.0,0.0,0.0,0.0,0.0,0.0,0.0,0.0,0.0,0.0,0.0,0.0,0.0,0.0,0.0,0.0,0.0,0.0,0.0,0.0,0.0,0.0,0.0,0.0,0.0,0.0,0.0,0.0,0.0,0.0,0.0,0.0,0.0,0.0,0.0,0.0,0.0,0.0,0.0,0.0,0.0,0.0,0.0,0.0,0.0,0.0,0.0,0.0,0.0,0.0,0.0,0.0,0.0,0.0,0.0,0.0,0.0,0.0,0.0,0.0,0.0,0.0,0.0,0.0,0.0,0.0,0.0,0.0,0.0,0.0,0.0,0.0,0.0,0.0,0.0,0.0,0.0,0.0,0.0,0.0,0.0,0.0,0.0,0.0,0.0,0.0,0.0,0.0,0.0,0.0,0.0,0.0,0.0,0.0,0.0,0.0,0.0,0.0,0.0,0.0,0.0,0.0,0.0,0.0,0.0,0.0,0.0,0.0,0.0,0.0,0.0,0.0,0.0,0.0,0.0,0.0,0.0,0.0,0.0,0.0,0.0,0.0,0.0,0.0,0.0,0.0,0.0,0.0,0.0,0.0,0.0,0.0,0.0,0.0,0.0,0.0,0.0,0.0,0.0,0.0,0.0,0.0,0.0,0.0,0.0,0.0,0.0,0.0,0.0,0.0,0.0,0.0,0.0,0.0,0.0,0.0,0.0,0.0,0.0,0.0,0.0,0.0,0.0,0.0,0.0,0.0,0.0,0.0,0.0,0.0,0.0,0.0,0.0,0.0,0.0,0.0,0.0,0.0,0.0,0.0,0.0,0.0,0.0,0.0,0.0,0.0,0.0,0.0,0.0,0.0,0.0,0.0,0.0,0.0,0.0,0.0,0.0,0.0,0.0,0.0,0.0,0.0,0.0,0.0,0.0,0.0,0.0,0.0,0.0,0.0,0.0,0.0,0.0,0.0,0.0,0.0,0.0,0.0,0.0,0.0,0.0,0.0,0.0,0.0,0.0,0.0,0.0,0.0,0.0,0.0,0.0,0.0,0.0,0.0,0.0,0.0,0.0,0.0,0.0,0.0,0.0,0.0,0.0,0.0,0.0,0.0,0.0,0.0,0.0,0.0,0.0,0.0,0.0,0.0,0.0,0.0,0.0,0.0,0.0,0.0,0.0,0.0,0.0,0.0,0.0,0.0,0.0,0.0,0.0,0.0,0.0,0.0,0.0,0.0,0.0,0.0,0.0,0.0,0.0,0.0,0.0,0.0,0.0,0.0,0.0,0.0,0.0,0.0,0.0,0.0,0.0,0.0,0.0,0.0,0.0,0.0,0.0,0.0,0.0,0.0,0.0,0.0,0.0,0.0,0.0,0.0,0.0,0.0,0.0,0.0,0.0,0.0,0.0,0.0,0.0,0.0,0.0,0.0,0.0,0.0,0.0,0.0,0.0,0.0,0.0,0.0,0.0,0.0,0.0,0.0,0.0,0.0,0.0,0.0,0.0,0.0,0.0,0.0,0.0,0.0,0.0,0.0,0.0,0.0,0.0,0.0,0.0,0.0,0.0,0.0,0.0,0.0,0.0,0.0,0.0,0.0,0.0,0.0,0.0,0.0,0.0,0.0,0.0,0.0,0.0,0.0,0.0,0.0,0.0,0.0,0.0,0.0,0.0,0.0,0.0,0.0,0.0,0.0,0.0,0.0,0.0,0.0,0.0,0.0,0.0,0.0,0.0,0.0,0.0,0.0,0.0,0.0,0.0,0.0,0.0,0.0,0.0,0.0,0.0,0.0,0.0,0.0,0.0,0.0,0.0,0.0,0.0,0.0,0.0,0.0,0.0,0.0,0.0,0.0,0.0,0.0,0.0,0.0,0.0,0.0,0.0,0.0,0.0,0.0,0.0,0.0,0.0,0.0,0.0,0.0,0.0,0.0,0.0,0.0,0.0,0.0,0.0,0.0,0.0,0.0,0.0,0.0,0.0,0.0,0.0,0.0,0.0,0.0,0.0,0.0,0.0,0.0,0.0,0.0,0.0,0.0,0.0,0.0,0.0,0.0,0.0,0.0,0.0,0.0,0.0,0.0,0.0,0.0,0.0,0.0,0.0,0.0,0.0,0.0,0.0,0.0,0.0,0.0,0.0,0.0,0.0,0.0,0.0,0.0,0.0,0.0,0.0,0.0,0.0,0.0,0.0,0.0,0.0,0.0,0.0,0.0,0.0,0.0,0.0,0.0,0.0,0.0,0.0,0.0,0.0,0.0,0.0,0.0,0.0,0.0,0.0,0.0,0.0,0.0,0.0,0.0,0.0,0.0,0.0,0.0,0.0,0.0,0.0,0.0,0.0,0.0,0.0,0.0,0.0,0.0,0.0,0.0,0.0,0.0,0.0,0.0,0.0,0.0,0.0,0.0,0.0,0.0,0.0,0.0,0.0,0.0,0.0,0.0,0.0,0.0,0.0,0.0,0.0,0.0,0.0,0.0,0.0,0.0,0.0,0.0,0.0,0.0,0.0,0.0,0.0,0.0,0.0,0.0,0.0,0.0,0.0,0.0,0.0,0.0,0.0,0.0,0.0,0.0,0.0,0.0,0.0,0.0,0.0,0.0,0.0,0.0,0.0,0.0,0.0,0.0,0.0,0.0,0.0,0.0,0.0,0.0,0.0,0.0,0.0,0.0,0.0,0.0,0.0,0.0,0.0,0.0,0.0,0.0,0.0,0.0,0.0,0.0,0.0,0.0,0.0,0.0,0.0,0.0,0.0,0.0,0.0,0.0,0.0,0.0,0.0,0.0,0.0,0.0,0.0,0.0,0.0,0.0,0.0,0.0,0.0,0.0,0.0,0.0,0.0,0.0,0.0,0.0,0.0,0.0,0.0,0.0,0.0,0.0,0.0,0.0,0.0,0.0,0.0,0.0,0.0,0.0,0.0,0.0,0.0,0.0,0.0,0.0,0.0,0.0,0.0,0.0,0.0,0.0,0.0,0.0,0.0,0.0,0.0,0.0,0.0,0.0,0.0,0.0,0.0,0.0,0.0,0.0,0.0,0.0,0.0,0.0,0.0,0.0,0.0,0.0,0.0,0.0,0.0,0.0,0.0,0.0,0.0,0.0,0.0,0.0,-0.8751,0.0,0.0,0.0,0.0,0.0,0.0,0.0,0.0,0.0,0.0,0.0,0.0,0.0,0.0,0.0,0.0,0.0,0.0,0.0,0.0,0.0,0.0,0.0,0.0,0.0,0.0,0.0,0.0,0.0,0.0,0.0,0.0,0.0,0.0,0.0,0.0,0.0,0.0,0.0,0.0,0.0,0.0,0.0,0.0,0.0,0.0,0.0,0.0,0.0,0.0,0.0,0.0,0.0,0.0,0.0,0.0,0.0,0.0,0.0,0.0,0.0,0.0,0.0,0.0,0.0,0.0,0.0,0.0,0.0,0.0,0.0,0.0,0.0,0.0,0.0,0.0,0.0,0.0,0.0,0.0,0.0,0.0,0.0,0.0,0.0,0.0,0.0,0.0,0.0,0.0,0.0,0.0,0.0,0.0,0.0,0.0,0.0,0.0,0.0,0.0,0.0,0.0,0.0,0.0,0.0,0.0,0.0,0.0,0.0,0.0,-0.9827,-0.8075,-1.1131,-1.1454,-0.8602,0.0,0.0,0.0,0.0,0.0,0.0,0.0,0.0,0.0,0.0,0.0,0.0,0.0,0.0,0.0,0.0,0.0,0.0,0.0,0.0,0.0,0.0,0.0,0.0,0.0,0.0,0.0,0.0,0.0,0.0,0.0,0.0,0.0,0.0,0.0,0.0,0.0,0.0,0.0,0.0,0.0,0.0,0.0,0.0,0.0,0.0,0.0,0.0,0.0,0.0,0.0,0.0,0.0,0.0,0.0,0.0,0.0,0.0,0.0,0.0,0.0,0.0,0.0,0.0,0.0,0.0,0.0,0.0,0.0,0.0,0.0,0.0,0.0,0.0,0.0,0.0,0.0,0.0,0.0,0.0,0.0,0.0,0.0,0.0,0.0,0.0,0.0,0.0,0.0,0.0,0.0,0.0,0.0,0.0,0.0,0.0,0.0,0.0,0.0,0.0,0.0,0.0,0.0,0.0,0.0,0.0,0.0,0.0,0.0,0.0,0.0,0.0,-1.1143,-1.1584,-0.919,0.0,0.0,0.0,0.0,0.0,0.0,0.0,0.0,0.0,0.0,0.0,0.0,0.0,0.0,0.0,0.0,0.0,0.0,0.0,0.0,0.0,0.0,0.0,0.0,0.0,0.0,0.0,0.0,0.0,0.0,0.0,0.0,0.0,0.0,0.0,0.0,0.0,0.0,0.0,0.0,0.0,0.0,0.0,0.0,0.0,0.0,0.0,0.0,0.0,0.0,0.0,0.0,0.0,0.0,0.0,0.0,0.0,0.0,0.0,0.0,0.0,0.0,0.0,0.0,0.0,0.0,0.0,0.0,0.0,0.0,0.0,0.0,0.0,0.0,0.0,0.0,0.0,0.0,0.0,0.0,0.0,0.0,0.0,0.0,0.0,0.0,0.0,0.0,0.0,0.0,0.0,0.0,0.0,0.0,0.0,0.0,0.0,0.0,0.0,0.0,0.0,0.0,0.0,0.0,0.0,0.0,0.0,0.0,0.0,0.0,-0.9613,-0.9899,-1.0728,0.0,-1.1207,0.0,0.0,0.0,0.0,0.0,0.0,0.0,0.0,0.0,0.0,0.0,0.0,0.0,0.0,0.0,0.0,0.0,0.0,0.0,0.0,0.0,0.0,0.0,0.0,0.0,0.0,0.0,0.0,0.0,0.0,0.0,0.0,0.0,0.0,0.0,0.0,0.0,0.0,0.0,0.0,0.0,0.0,0.0,0.0,0.0,0.0,0.0,0.0,0.0,0.0,0.0,0.0,0.0,0.0,0.0,0.0,0.0,0.0,0.0,0.0,0.0,0.0,0.0,0.0,0.0,0.0,0.0,0.0,0.0,0.0,0.0,0.0,0.0,0.0,0.0,0.0,0.0,0.0,0.0,0.0,0.0,0.0,0.0,0.0,0.0,0.0,0.0,0.0,0.0,0.0,0.0,0.0,0.0,0.0,0.0,0.0,0.0,0.0,0.0,0.0,0.0,0.0,0.0,0.0,0.0,0.0,0.0,0.0,0.0,0.0,-0.9529,-0.9777,-1.0444,-1.0641,0.0,0.0,0.0,0.0,0.0,0.0,0.0,0.0,0.0,0.0,0.0,0.0,0.0,0.0,0.0,0.0,0.0,0.0,0.0,0.0,0.0,0.0,0.0,0.0,0.0,0.0,0.0,0.0,0.0,0.0,0.0,0.0,0.0,0.0,0.0,0.0,0.0,0.0,0.0,0.0,0.0,0.0,0.0,0.0,0.0,0.0,0.0,0.0,0.0,0.0,0.0,0.0,0.0,0.0,0.0,0.0,0.0,0.0,0.0,0.0,0.0,0.0,0.0,0.0,0.0,0.0,0.0,0.0,0.0,0.0,0.0,0.0,0.0,0.0,0.0,0.0,0.0,0.0,0.0,0.0,0.0,0.0,0.0,0.0,0.0,0.0,0.0,0.0,0.0,0.0,0.0,0.0,0.0,0.0,0.0,0.0,0.0,0.0,0.0,0.0,0.0,0.0,0.0,0.0,0.0,0.0,0.0,0.0,0.0,0.0,-0.9638,-0.9882,-1.0276,-1.0224,-1.0008,-0.9697,0.0,0.0,0.0,0.0,0.0,0.0,0.0,0.0,0.0,0.0,0.0,0.0,0.0,0.0,0.0,0.0,0.0,0.0,0.0,0.0,0.0,0.0,0.0,0.0,0.0,0.0,0.0,0.0,0.0,0.0,0.0,0.0,0.0,0.0,0.0,0.0,0.0,0.0,0.0,0.0,0.0,0.0,0.0,0.0,0.0,0.0,0.0,0.0,0.0,0.0,0.0,0.0,0.0,0.0,0.0,0.0,0.0,0.0,0.0,0.0,0.0,0.0,0.0,0.0,0.0,0.0,0.0,0.0,0.0,0.0,0.0,0.0,0.0,0.0,0.0,0.0,0.0,0.0,0.0,0.0,0.0,0.0,0.0,0.0,0.0,0.0,0.0,0.0,0.0,0.0,0.0,0.0,0.0,0.0,0.0,0.0,0.0,0.0,0.0,0.0,0.0,0.0,0.0,0.0,0.0,0.0,0.0,0.0,-1.1159,-1.071,-1.0931,-1.1812,-0.9962,-0.9367,0.0,0.0,0.0,0.0,0.0,0.0,0.0,0.0,0.0,0.0,0.0,0.0,0.0,0.0,0.0,0.0,0.0,0.0,0.0,0.0,0.0,0.0,0.0,0.0,0.0,0.0,0.0,0.0,0.0,0.0,0.0,0.0,0.0,0.0,0.0,0.0,0.0,0.0,0.0,0.0,0.0,0.0,0.0,0.0,0.0,0.0,0.0,0.0,0.0,0.0,0.0,0.0,0.0,0.0,0.0,0.0,0.0,0.0,0.0,0.0,0.0,0.0,0.0,0.0,0.0,0.0,0.0,0.0,0.0,0.0,0.0,0.0,0.0,0.0,0.0,0.0,0.0,0.0,0.0,0.0,0.0,0.0,0.0,0.0,0.0,0.0,0.0,0.0,0.0,0.0,0.0,0.0,0.0,0.0,0.0,0.0,0.0,0.0,0.0,0.0,0.0,0.0,0.0,0.0,0.0,0.0,0.0,0.0,0.0,-0.9757,-1.0154,-1.0303,-1.0113,-1.0077,-1.0031,0.0,0.0,0.0,0.0,0.0,0.0,0.0,0.0,0.0,0.0,0.0,0.0,0.0,0.0,0.0,0.0,0.0,0.0,0.0,0.0,0.0,0.0,0.0,0.0,0.0,0.0,0.0,0.0,0.0,0.0,0.0,0.0,0.0,0.0,0.0,0.0,0.0,0.0,0.0,0.0,0.0,0.0,0.0,0.0,0.0,0.0,0.0,0.0,0.0,0.0,0.0,0.0,0.0,0.0,0.0,0.0,0.0,0.0,0.0,0.0,0.0,0.0,0.0,0.0,0.0,0.0,0.0,0.0,0.0,0.0,0.0,0.0,0.0,0.0,0.0,0.0,0.0,0.0,0.0,0.0,0.0,0.0,0.0,0.0,0.0,0.0,0.0,0.0,0.0,0.0,0.0,0.0,0.0,0.0,0.0,0.0,0.0,0.0,0.0,0.0,0.0,0.0,0.0,0.0,0.0,0.0,0.0,0.0,0.0,-1.0048,0.0,-1.1297,-1.0582,-1.0695,-1.0493,0.0,0.0,0.0,0.0,0.0,0.0,0.0,0.0,0.0,0.0,0.0,0.0,0.0,0.0,0.0,0.0,0.0,0.0,0.0,0.0,0.0,0.0,0.0,0.0,0.0,0.0,0.0,0.0,0.0,0.0,0.0,0.0,0.0,0.0,0.0,0.0,0.0,0.0,0.0,0.0,0.0,0.0,0.0,0.0,0.0,0.0,0.0,0.0,0.0,0.0,0.0,0.0,0.0,0.0,0.0,0.0,0.0,0.0,0.0,0.0,0.0,0.0,0.0,0.0,0.0,0.0,0.0,0.0,0.0,0.0,0.0,0.0,0.0,0.0,0.0,0.0,0.0,0.0,0.0,0.0,0.0,0.0,0.0,0.0,0.0,0.0,0.0,0.0,0.0,0.0,0.0,0.0,0.0,0.0,0.0,0.0,0.0,0.0,0.0,0.0,0.0,0.0,0.0,0.0,0.0,0.0,0.0,0.0,-1.1012,-1.2393,-1.3661,-1.4003,-1.3752,-1.1809,-1.0669,0.0,0.0,0.0,0.0,0.0,0.0,0.0,0.0,0.0,0.0,0.0,0.0,0.0,0.0,0.0,0.0,0.0,0.0,0.0,0.0,0.0,0.0,0.0,0.0,0.0,0.0,0.0,0.0,0.0,0.0,0.0,0.0,0.0,0.0,0.0,0.0,0.0,0.0,0.0,0.0,0.0,0.0,0.0,0.0,0.0,0.0,0.0,0.0,0.0,0.0,0.0,0.0,0.0,0.0,0.0,0.0,0.0,0.0,0.0,0.0,0.0,0.0,0.0,0.0,0.0,0.0,0.0,0.0,0.0,0.0,0.0,0.0,0.0,0.0,0.0,0.0,0.0,0.0,0.0,0.0,0.0,0.0,0.0,0.0,0.0,0.0,0.0,0.0,0.0,0.0,0.0,0.0,0.0,0.0,0.0,0.0,0.0,0.0,0.0,0.0,0.0,0.0,0.0,0.0,0.0,0.0,0.0,0.0,0.0,-1.1373,-1.2669,-1.3334,-1.316,-1.1979,-1.1311,0.0,0.0,0.0,0.0,0.0,0.0,0.0,0.0,0.0,0.0,0.0,0.0,0.0,0.0,0.0,0.0,0.0,0.0,0.0,0.0,0.0,0.0,0.0,0.0,0.0,0.0,0.0,0.0,0.0,0.0,0.0,0.0,0.0,0.0,0.0,0.0,0.0,0.0,0.0,0.0,0.0,0.0,0.0,0.0,0.0,0.0,0.0,0.0,0.0,0.0,0.0,0.0,0.0,0.0,0.0,0.0,0.0,0.0,0.0,0.0,0.0,0.0,0.0,0.0,0.0,0.0,0.0,0.0,0.0,0.0,0.0,0.0,0.0,0.0,0.0,0.0,0.0,0.0,0.0,0.0,0.0,0.0,0.0,0.0,0.0,0.0,0.0,0.0,0.0,0.0,0.0,0.0,0.0,0.0,0.0,0.0,0.0,0.0,0.0,0.0,0.0,0.0,0.0,0.0,0.0,0.0,0.0,0.0,0.0,-1.2121,-1.3469,-1.413,-1.3828,-1.2676,-1.2106,-1.2067,0.0,0.0,0.0,0.0,0.0,0.0,0.0,0.0,0.0,0.0,0.0,0.0,0.0,0.0,0.0,0.0,0.0,0.0,0.0,0.0,0.0,0.0,0.0,0.0,0.0,0.0,0.0,0.0,0.0,0.0,0.0,0.0,0.0,0.0,0.0,0.0,0.0,0.0,0.0,0.0,0.0,0.0,0.0,0.0,0.0,0.0,0.0,0.0,0.0,0.0,0.0,0.0,0.0,0.0,0.0,0.0,0.0,0.0,0.0,0.0,0.0,0.0,0.0,0.0,0.0,0.0,0.0,0.0,0.0,0.0,0.0,0.0,0.0,0.0,0.0,0.0,0.0,0.0,0.0,0.0,0.0,0.0,0.0,0.0,0.0,0.0,0.0,0.0,0.0,0.0,0.0,0.0,0.0,0.0,0.0,0.0,0.0,0.0,0.0,0.0,0.0,0.0,0.0,0.0,0.0,0.0,0.0,0.0,-1.4068,-1.5624,-1.6063,-1.5352,-1.375,-1.2891,0.0,0.0,0.0,0.0,0.0,0.0,0.0,0.0,0.0,0.0,0.0,0.0,0.0,0.0,0.0,0.0,0.0,0.0,0.0,0.0,0.0,0.0,0.0,0.0,0.0,0.0,0.0,0.0,0.0,0.0,0.0,0.0,0.0,0.0,0.0,0.0,0.0,0.0,0.0,0.0,0.0,0.0,0.0,0.0,0.0,0.0,0.0,0.0,0.0,0.0,0.0,0.0,0.0,0.0,0.0,0.0,0.0,0.0,0.0,0.0,0.0,0.0,0.0,0.0,0.0,0.0,0.0,0.0,0.0,0.0,0.0,0.0,0.0,0.0,0.0,0.0,0.0,0.0,0.0,0.0,0.0,0.0,0.0,0.0,0.0,0.0,0.0,0.0,0.0,0.0,0.0,0.0,0.0,0.0,0.0,0.0,0.0,0.0,0.0,0.0,0.0,0.0,0.0,0.0,0.0,0.0,0.0,0.0,0.0,-1.4121,-1.513,-1.5584,-1.5381,-1.376,-1.2891,0.0,0.0,0.0,0.0,0.0,0.0,0.0,0.0,0.0,0.0,0.0,0.0,0.0,0.0,0.0,0.0,0.0,0.0,0.0,0.0,0.0,0.0,0.0,0.0,0.0,0.0,0.0,0.0,0.0,0.0,0.0,0.0,0.0,0.0,0.0,0.0,0.0,0.0,0.0,0.0,0.0,0.0,0.0,0.0,0.0,0.0,0.0,0.0,0.0,0.0,0.0,0.0,0.0,0.0,0.0,0.0,0.0,0.0,0.0,0.0,0.0,0.0,0.0,0.0,0.0,0.0,0.0,0.0,0.0,0.0,0.0,0.0,0.0,0.0,0.0,0.0,0.0,0.0,0.0,0.0,0.0,0.0,0.0,0.0,0.0,0.0,0.0,0.0,0.0,0.0,0.0,0.0,0.0,0.0,0.0,0.0,0.0,0.0,0.0,0.0,0.0,0.0,0.0,0.0,0.0,0.0,0.0,0.0,-1.3467,-1.4639,-1.5156,-1.542,-1.541,-1.4111,-1.3242,0.0,0.0,0.0,0.0,0.0,0.0,0.0,0.0,0.0,0.0,0.0,0.0,0.0,0.0,0.0,0.0,0.0,0.0,0.0,0.0,0.0,0.0,0.0,0.0,0.0,0.0,0.0,0.0,0.0,0.0,0.0,0.0,0.0,0.0,0.0,0.0,0.0,0.0,0.0,0.0,0.0,0.0,0.0,0.0,0.0,0.0,0.0,0.0,0.0,0.0,0.0,0.0,0.0,0.0,0.0,0.0,0.0,0.0,0.0,0.0,0.0,0.0,0.0,0.0,0.0,0.0,0.0,0.0,0.0,0.0,0.0,0.0,0.0,0.0,0.0,0.0,0.0,0.0,0.0,0.0,0.0,0.0,0.0,0.0,0.0,0.0,0.0,0.0,0.0,0.0,0.0,0.0,0.0,0.0,0.0,0.0,0.0,0.0,0.0,0.0,0.0,0.0,0.0,0.0,0.0,0.0,0.0,0.0,-1.3701,-1.5371,-1.542,-1.542,-1.5391,-1.4535,-1.374,0.0,0.0,0.0,0.0,0.0,0.0,0.0,0.0,0.0,0.0,0.0,0.0,0.0,0.0,0.0,0.0,0.0,0.0,0.0,0.0,0.0,0.0,0.0,0.0,0.0,0.0,0.0,0.0,0.0,0.0,0.0,0.0,0.0,0.0,0.0,0.0,0.0,0.0,0.0,0.0,0.0,0.0,0.0,0.0,0.0,0.0,0.0,0.0,0.0,0.0,0.0,0.0,0.0,0.0,0.0,0.0,0.0,0.0,0.0,0.0,0.0,0.0,0.0,0.0,0.0,0.0,0.0,0.0,0.0,0.0,0.0,0.0,0.0,0.0,0.0,0.0,0.0,0.0,0.0,0.0,0.0,0.0,0.0,0.0,0.0,0.0,0.0,0.0,0.0,0.0,0.0,0.0,0.0,0.0,0.0,0.0,0.0,0.0,0.0,0.0,0.0,0.0,0.0,0.0,0.0,0.0,0.0,0.0,-1.3711,-1.5352,-1.542,-1.542,-1.541,-1.458,-1.375,0.0,0.0,0.0,0.0,0.0,0.0,0.0,0.0,0.0,0.0,0.0,0.0,0.0,0.0,0.0,0.0,0.0,0.0,0.0,0.0,0.0,0.0,0.0,0.0,0.0,0.0,0.0,0.0,0.0,0.0,0.0,0.0,0.0,0.0,0.0,0.0,0.0,0.0,0.0,0.0,0.0,0.0,0.0,0.0,0.0,0.0,0.0,0.0,-0.7834,0.0,0.0,0.0,0.0,0.0,0.0,0.0,0.0,0.0,0.0,0.0,0.0,0.0,0.0,0.0,0.0,0.0,0.0,0.0,0.0,0.0,0.0,0.0,0.0,0.0,0.0,0.0,0.0,0.0,0.0,0.0,0.0,0.0,0.0,0.0,0.0,0.0,0.0,0.0,0.0,0.0,0.0,0.0,0.0,0.0,0.0,0.0,0.0,0.0,0.0,0.0,0.0,0.0,0.0,0.0,0.0,0.0,0.0,0.0,-1.4102,-1.5361,-1.542,-1.542,-1.54,-1.4971,-1.416,0.0,0.0,0.0,0.0,0.0,0.0,0.0,0.0,0.0,0.0,0.0,0.0,0.0,0.0,0.0,0.0,0.0,0.0,0.0,0.0,0.0,0.0,0.0,0.0,0.0,0.0,0.0,0.0,0.0,0.0,0.0,0.0,0.0,0.0,0.0,0.0,0.0,0.0,0.0,0.0,0.0,0.0,0.0,0.0,0.0,0.0,0.0,0.0,0.0,0.0,0.0,0.0,0.0,0.0,0.0,0.0,0.0,0.0,0.0,0.0,0.0,0.0,0.0,0.0,0.0,0.0,0.0,0.0,0.0,0.0,0.0,0.0,0.0,0.0,0.0,0.0,0.0,0.0,0.0,0.0,0.0,0.0,0.0,0.0,0.0,0.0,0.0,0.0,0.0,0.0,0.0,0.0,0.0,0.0,0.0,0.0,0.0,0.0,0.0,0.0,0.0,0.0,0.0,0.0,0.0,0.0,0.0,-1.3584,-1.4424,-1.5371,-1.542,-1.542,-1.542,-1.542,-1.4609,-1.2969,0.0,0.0,0.0,0.0,0.0,0.0,0.0,0.0,0.0,0.0,0.0,0.0,0.0,0.0,0.0,0.0,0.0,0.0,0.0,0.0,0.0,0.0,0.0,0.0,0.0,0.0,0.0,0.0,0.0,0.0,0.0,0.0,0.0,0.0,0.0,0.0,0.0,0.0,-0.7238,-0.7696,0.0,0.0,0.0,0.0,0.0,0.0,0.0,0.0,-0.5921,0.0,0.0,0.0,0.0,0.0,0.0,0.0,0.0,0.0,0.0,0.0,0.0,0.0,0.0,0.0,0.0,0.0,0.0,0.0,0.0,0.0,0.0,0.0,0.0,0.0,0.0,0.0,0.0,0.0,0.0,0.0,0.0,0.0,0.0,0.0,0.0,0.0,0.0,0.0,0.0,0.0,0.0,0.0,0.0,0.0,0.0,0.0,0.0,0.0,0.0,0.0,0.0,0.0,0.0,0.0,0.0,-1.2861,-1.3018,-1.3838,-1.5371,-1.542,-1.542,-1.542,-1.542,-1.4619,-1.3008,0.0,0.0,0.0,0.0,0.0,0.0,0.0,0.0,0.0,0.0,0.0,0.0,0.0,0.0,0.0,0.0,0.0,0.0,0.0,0.0,0.0,0.0,0.0,0.0,0.0,0.0,0.0,0.0,0.0,0.0,0.0,0.0,0.0,0.0,0.0,0.0,0.0,0.0,0.0,-0.8604,-0.8449,0.0,0.0,0.0,0.0,0.0,0.0,0.0,0.0,-0.6165,0.0,0.0,0.0,0.0,0.0,0.0,0.0,0.0,0.0,0.0,0.0,0.0,0.0,0.0,0.0,0.0,0.0,0.0,0.0,0.0,0.0,0.0,0.0,0.0,0.0,0.0,0.0,0.0,0.0,0.0,0.0,0.0,0.0,0.0,0.0,0.0,0.0,0.0,0.0,0.0,0.0,0.0,0.0,0.0,0.0,0.0,0.0,0.0,0.0,0.0,0.0,0.0,0.0,0.0,0.0,-1.3525,-1.4424,-1.5273,-1.6064,-1.6103,-1.6103,-1.6094,-1.6094,-1.5293,0.0,0.0,0.0,0.0,0.0,0.0,0.0,0.0,0.0,0.0,0.0,0.0,0.0,0.0,0.0,0.0,0.0,0.0,0.0,0.0,0.0,0.0,0.0,0.0,0.0,0.0,0.0,0.0,0.0,0.0,0.0,0.0,0.0,0.0,0.0,0.0,0.0,0.0,0.0,0.0,-0.8533,-0.8356,-0.8354,0.0,0.0,0.0,0.0,0.0,0.0,-0.6519,-0.6646,0.0,0.0,0.0,0.0,0.0,0.0,0.0,0.0,0.0,0.0,0.0,0.0,0.0,0.0,0.0,0.0,0.0,0.0,0.0,0.0,0.0,0.0,0.0,0.0,0.0,0.0,0.0,0.0,0.0,0.0,0.0,0.0,0.0,0.0,0.0,0.0,0.0,0.0,0.0,0.0,0.0,0.0,0.0,0.0,0.0,0.0,0.0,0.0,0.0,0.0,0.0,0.0,0.0,0.0,0.0,-1.418,-1.5615,-1.6553,-1.6655,-1.6665,-1.6665,-1.6665,-1.6665,-1.5918,0.0,0.0,0.0,0.0,0.0,0.0,0.0,0.0,0.0,0.0,0.0,0.0,0.0,0.0,0.0,0.0,0.0,0.0,0.0,0.0,0.0,0.0,0.0,0.0,0.0,0.0,0.0,0.0,0.0,0.0,0.0,0.0,0.0,0.0,0.0,0.0,0.0,0.0,0.0,0.0,0.0,-0.8196,-0.8396,-0.7688,0.0,0.0,0.0,0.0,-0.5812,-0.6676,0.0,0.0,0.0,0.0,0.0,0.0,0.0,0.0,0.0,0.0,0.0,0.0,0.0,0.0,0.0,0.0,0.0,0.0,0.0,0.0,0.0,0.0,0.0,0.0,0.0,0.0,0.0,0.0,0.0,0.0,0.0,0.0,0.0,0.0,0.0,0.0,0.0,0.0,0.0,0.0,0.0,0.0,0.0,0.0,0.0,0.0,0.0,0.0,0.0,0.0,0.0,0.0,0.0,0.0,0.0,0.0,-1.4077,-1.5068,-1.5937,-1.6617,-1.6665,-1.6665,-1.6665,-1.6665,-1.5918,0.0,0.0,0.0,0.0,0.0,0.0,0.0,0.0,0.0,0.0,0.0,0.0,0.0,0.0,0.0,0.0,0.0,0.0,0.0,0.0,0.0,0.0,0.0,0.0,0.0,0.0,0.0,0.0,0.0,0.0,0.0,0.0,0.0,0.0,0.0,0.0,0.0,0.0,0.0,0.0,0.0,-0.836,-0.7411,-0.7203,-0.7031,0.0,0.0,-0.7112,-0.8228,-0.7849,0.0,0.0,0.0,0.0,0.0,0.0,0.0,0.0,0.0,0.0,0.0,0.0,0.0,0.0,0.0,0.0,0.0,0.0,0.0,0.0,0.0,0.0,0.0,0.0,0.0,0.0,0.0,0.0,0.0,0.0,0.0,0.0,0.0,0.0,0.0,0.0,0.0,0.0,0.0,0.0,0.0,0.0,0.0,0.0,0.0,0.0,0.0,0.0,0.0,0.0,0.0,0.0,0.0,0.0,0.0,-1.4502,-1.4893,-1.6201,-1.707,-1.7441,-1.7461,-1.7461,-1.7461,-1.7451,-1.6641,0.0,0.0,0.0,0.0,0.0,0.0,0.0,0.0,0.0,0.0,0.0,0.0,0.0,0.0,0.0,0.0,0.0,0.0,0.0,0.0,0.0,0.0,0.0,0.0,0.0,0.0,0.0,0.0,0.0,0.0,0.0,0.0,0.0,0.0,0.0,0.0,0.0,0.0,0.0,0.0,0.0,0.0,-0.8397,-0.7761,0.0,0.0,0.0,-0.7745,-0.7829,0.0,0.0,0.0,0.0,0.0,0.0,0.0,0.0,0.0,0.0,0.0,0.0,0.0,0.0,0.0,0.0,0.0,0.0,0.0,0.0,0.0,0.0,0.0,0.0,0.0,0.0,0.0,0.0,0.0,0.0,0.0,0.0,0.0,0.0,0.0,0.0,0.0,0.0,0.0,0.0,0.0,0.0,0.0,0.0,0.0,0.0,0.0,0.0,0.0,0.0,0.0,0.0,0.0,0.0,0.0,0.0,0.0,-1.5449,-1.7129,-1.8008,-1.8008,-1.8008,-1.8008,-1.8008,-1.8008,0.0,0.0,0.0,0.0,0.0,0.0,0.0,0.0,0.0,0.0,0.0,0.0,0.0,0.0,0.0,0.0,0.0,0.0,0.0,0.0,0.0,0.0,0.0,0.0,0.0,0.0,0.0,-0.7208,0.0,0.0,0.0,0.0,0.0,0.0,0.0,0.0,0.0,0.0,0.0,0.0,0.0,0.0,-0.8926,-0.9146,-0.837,-0.8196,0.0,0.0,-0.8427,-0.8207,-0.8967,-0.9222,0.0,0.0,0.0,0.0,0.0,0.0,0.0,0.0,0.0,0.0,0.0,0.0,0.0,0.0,0.0,0.0,0.0,0.0,0.0,0.0,0.0,0.0,0.0,0.0,0.0,0.0,0.0,0.0,0.0,0.0,0.0,0.0,0.0,0.0,0.0,0.0,0.0,0.0,0.0,0.0,0.0,0.0,0.0,0.0,0.0,0.0,0.0,0.0,0.0,0.0,0.0,0.0,0.0,0.0,0.0,-1.5469,-1.7129,-1.8018,-1.8008,-1.8008,-1.8008,-1.8008,-1.8008,-1.7197,0.0,0.0,0.0,0.0,0.0,0.0,0.0,0.0,0.0,0.0,0.0,0.0,0.0,0.0,0.0,0.0,0.0,0.0,0.0,0.0,0.0,0.0,0.0,0.0,0.0,0.0,0.0,0.0,0.0,0.0,0.0,0.0,0.0,0.0,0.0,0.0,0.0,0.0,0.0,0.0,0.0,-0.8792,-0.8822,-0.8739,-0.9228,0.0,0.0,-0.965,-1.0916,-1.0511,-0.9708,-0.87,0.0,0.0,0.0,0.0,0.0,0.0,0.0,0.0,0.0,0.0,0.0,0.0,0.0,0.0,0.0,0.0,0.0,0.0,0.0,0.0,0.0,0.0,0.0,0.0,0.0,0.0,0.0,0.0,0.0,0.0,0.0,0.0,0.0,0.0,0.0,0.0,0.0,0.0,0.0,0.0,0.0,0.0,0.0,0.0,0.0,0.0,0.0,0.0,0.0,0.0,0.0,0.0,0.0,-1.5947,-1.623,-1.7656,-1.8525,-1.8769,-1.8535,-1.8398,-1.8398,-1.8144,-1.7441,0.0,0.0,0.0,0.0,0.0,0.0,0.0,0.0,0.0,0.0,0.0,0.0,0.0,0.0,0.0,0.0,0.0,0.0,0.0,0.0,0.0,0.0,0.0,0.0,0.0,0.0,0.0,0.0,-0.833,-0.828,-0.7969,0.0,0.0,0.0,0.0,0.0,0.0,0.0,0.0,0.0,0.0,-1.0218,-0.9699,-0.9634,0.0,0.0,-1.039,-1.0159,-1.1233,-1.1149,-1.0585,-0.9603,-0.9528,0.0,0.0,0.0,0.0,0.0,0.0,0.0,0.0,0.0,0.0,0.0,0.0,0.0,0.0,0.0,0.0,0.0,0.0,0.0,0.0,0.0,0.0,0.0,0.0,0.0,0.0,0.0,0.0,0.0,0.0,0.0,0.0,0.0,0.0,0.0,0.0,0.0,0.0,0.0,0.0,0.0,0.0,0.0,0.0,0.0,0.0,0.0,0.0,0.0,0.0,0.0,0.0,-1.6416,-1.6665,-1.8047,-1.8975,-1.9277,-1.8984,-1.8838,-1.8828,-1.8545,-1.7988,0.0,0.0,0.0,0.0,0.0,0.0,0.0,0.0,0.0,0.0,0.0,0.0,0.0,0.0,0.0,0.0,0.0,0.0,0.0,0.0,0.0,0.0,0.0,0.0,0.0,0.0,0.0,0.0,-0.841,-0.8248,-0.7999,0.0,0.0,0.0,0.0,0.0,0.0,0.0,0.0,0.0,0.0,-1.1217,-1.0591,-1.0239,-1.0269,-1.0975,-1.0283,-0.9955,-1.0673,-1.1045,-1.0897,-0.9893,0.0,0.0,0.0,0.0,0.0,0.0,0.0,0.0,0.0,0.0,0.0,0.0,0.0,0.0,0.0,0.0,0.0,0.0,0.0,0.0,0.0,0.0,0.0,0.0,0.0,0.0,0.0,0.0,0.0,0.0,-1.289,0.0,0.0,0.0,0.0,0.0,0.0,0.0,0.0,0.0,0.0,0.0,0.0,0.0,0.0,0.0,0.0,0.0,0.0,0.0,0.0,0.0,0.0,-1.6728,-1.6704,-1.8418,-1.9287,-1.9307,-1.9277,-1.9277,-1.9277,-1.9258,-1.8857,-1.7988,0.0,0.0,0.0,0.0,0.0,0.0,0.0,0.0,0.0,0.0,0.0,0.0,0.0,0.0,0.0,0.0,0.0,0.0,0.0,0.0,0.0,0.0,0.0,0.0,0.0,0.0,-0.7968,-0.7573,-0.7558,0.0,0.0,0.0,0.0,0.0,0.0,0.0,0.0,0.0,0.0,-1.1348,-1.1361,-1.1368,-1.0522,-1.0125,-1.0432,-0.959,-0.9013,-0.9386,-1.0237,-1.0473,0.0,0.0,0.0,0.0,0.0,0.0,0.0,0.0,0.0,0.0,0.0,0.0,0.0,0.0,0.0,0.0,0.0,0.0,0.0,0.0,0.0,0.0,0.0,0.0,0.0,0.0,0.0,-1.2891,-1.291,0.0,0.0,0.0,0.0,0.0,0.0,0.0,0.0,0.0,0.0,0.0,-1.8652,-1.8789,0.0,0.0,0.0,0.0,0.0,0.0,0.0,0.0,0.0,0.0,0.0,0.0,-1.7305,-1.7627,-1.8975,-1.9844,-2.0117,-1.9853,-1.9707,-1.9707,-1.9434,-1.8887,-1.8037,0.0,0.0,0.0,0.0,0.0,0.0,0.0,0.0,0.0,0.0,0.0,0.0,0.0,0.0,0.0,0.0,0.0,0.0,0.0,0.0,0.0,0.0,0.0,0.0,0.0,-0.9348,0.0,0.0,0.0,0.0,0.0,0.0,0.0,0.0,0.0,0.0,0.0,-1.009,-1.0768,-1.1527,-1.2011,-1.2011,-1.1709,-1.1525,0.0,0.0,0.0,0.0,0.0,0.0,0.0,0.0,0.0,0.0,0.0,0.0,0.0,0.0,-1.0798,-1.0792,-1.0854,-1.1099,-1.2109,0.0,0.0,0.0,0.0,0.0,0.0,0.0,0.0,0.0,0.0,0.0,0.0,0.0,0.0,-1.4082,0.0,-1.418,0.0,0.0,0.0,0.0,0.0,0.0,0.0,0.0,-1.8213,-1.8975,-1.9512,-1.9658,-1.9873,0.0,-2.0137,-1.9424,0.0,0.0,0.0,0.0,0.0,0.0,0.0,0.0,-1.8174,-1.8486,-1.9561,-2.0283,-2.0537,-2.0283,-2.0146,-2.0137,-1.9873,-1.9394,-1.8691,-1.8535,-1.8057,0.0,0.0,0.0,0.0,0.0,0.0,0.0,0.0,0.0,0.0,0.0,0.0,0.0,0.0,0.0,0.0,0.0,0.0,0.0,0.0,0.0,0.0,0.0,-1.0316,0.0,0.0,0.0,0.0,0.0,0.0,0.0,0.0,0.0,-0.8854,-0.9871,-1.0773,-1.1137,-1.1812,-1.2305,-1.2305,0.0,0.0,0.0,0.0,0.0,0.0,0.0,-1.1734,-1.1206,-1.1917,-1.2385,-1.1758,-1.2144,-1.2619,-1.2619,0.0,0.0,-1.2338,-1.2305,-1.2305,-1.2305,-1.2151,-1.2084,-1.2265,-1.2158,-1.2078,0.0,0.0,0.0,0.0,0.0,0.0,0.0,0.0,-1.6115,-1.6269,0.0,-1.582,0.0,0.0,0.0,0.0,0.0,-1.6387,0.0,0.0,-1.9287,-1.9902,-1.9961,-2.0352,-2.0566,-2.0566,-2.0557,-2.0537,-2.0469,-1.9707,0.0,0.0,0.0,0.0,0.0,0.0,-1.9277,-1.9287,-2.0107,-2.0566,-2.0566,-2.0566,-2.0566,-2.0557,-2.0557,-2.0342,-1.9932,-1.9531,-1.8936,-1.8076,-1.6865,0.0,0.0,0.0,0.0,0.0,0.0,0.0,0.0,0.0,0.0,0.0,0.0,0.0,0.0,0.0,0.0,0.0,0.0,0.0,0.0,-1.0615,0.0,0.0,0.0,0.0,0.0,0.0,0.0,0.0,0.0,0.0,-1.084,-1.0852,-1.1242,-1.2164,0.0,0.0,0.0,0.0,-1.0887,-1.0893,-1.0067,-0.955,-0.9839,-1.0656,-1.1372,-1.1694,0.0,0.0,-1.3206,-1.32,-1.3186,-1.3206,-1.3173,-1.3026,-1.2452,-1.2371,-1.2365,-1.2358,-1.2358,-1.2338,-1.2338,-1.2385,-1.2358,-1.7324,0.0,0.0,0.0,0.0,-1.5926,-1.6201,-1.6543,-1.6533,-1.6611,-1.6665,-1.6797,0.0,0.0,0.0,0.0,0.0,0.0,-1.8105,-1.8916,-1.9297,-1.9785,-2.0381,-2.0508,-2.0576,-2.0576,-2.0576,-2.0576,-2.0557,-2.0322,-1.9766,-1.8936,0.0,0.0,0.0,0.0,-1.9277,-1.9336,-2.0127,-2.0576,-2.0576,-2.0576,-2.0576,-2.0576,-2.0576,-2.0508,-2.0381,-2.0264,-1.9805,-1.8955,-1.8574,0.0,0.0,0.0,0.0,0.0,0.0,0.0,0.0,0.0,0.0,0.0,0.0,0.0,0.0,0.0,0.0,0.0,0.0,0.0,-1.175,-1.1146,-1.0661,0.0,0.0,0.0,0.0,0.0,0.0,0.0,0.0,0.0,-1.2227,-1.2052,-1.2074,0.0,0.0,-1.2699,-1.2919,-1.2706,-1.2473,-1.2551,-1.2239,0.0,0.0,-1.2438,-1.2627,-1.2784,-1.3041,-1.3206,-1.3206,-1.3206,-1.3206,-1.3213,-1.3206,-1.3146,-1.2999,-1.2953,-1.2953,-1.2953,-1.2946,-1.2946,-1.2953,-1.2946,-1.2946,-1.9189,-1.8193,-1.7529,-1.7246,-1.7236,-1.7236,-1.7539,-1.7988,-1.7998,-1.8086,-1.8242,-1.8174,-1.8144,-1.8135,-1.8047,0.0,0.0,0.0,-1.8984,-1.9785,-1.9795,-2.0068,-2.0547,-2.0576,-2.0576,-2.0576,-2.0576,-2.0576,-2.0576,-2.0576,-2.0312,-1.9814,0.0,0.0,-1.9053,-1.9531,-1.9795,-1.9814,-2.0303,-2.0576,-2.0576,-2.0576,-2.0576,-2.0576,-2.0576,-2.0576,-2.0576,-2.0576,-2.0332,-1.9814,-1.9473,-1.8936,0.0,0.0,0.0,0.0,0.0,0.0,0.0,0.0,0.0,0.0,0.0,-1.1674,0.0,0.0,0.0,0.0,-1.157,-1.1917,-1.2265,-1.1768,0.0,0.0,0.0,0.0,0.0,0.0,0.0,-1.1646,-1.24,-1.2933,-1.2926,-1.2772,-1.2726,-1.2906,-1.2933,-1.2999,-1.3186,0.0,-1.3206,-1.3206,-1.3206,-1.3247,-1.336,-1.338,-1.342,-1.354,-1.3554,-1.3554,-1.3554,-1.3561,-1.3554,-1.3561,-1.3561,-1.3561,-1.3561,-1.3554,-1.3561,-1.3532,-1.3385,-1.3206,-1.3206,-1.3206,-1.3206,-2.0576,-2.043,-1.8867,-1.8223,-1.8223,-1.8213,-1.8877,-1.9951,-1.9961,-2.0185,-2.0498,-1.9736,-1.9394,-1.9346,-1.8574,0.0,-1.9385,-1.9385,-1.9814,-2.0566,-2.0576,-2.0566,-2.0576,-2.0576,-2.0586,-2.0625,-2.0615,-2.0635,-2.0684,-2.0684,-2.0752,-2.0664,-2.0674,-2.0635,-2.0576,-2.0566,-2.0576,-2.0566,-2.0566,-2.0576,-2.0576,-2.0576,-2.0576,-2.0576,-2.0576,-2.0576,-2.0576,-2.0576,-2.0576,-2.0547,-1.9814,-1.9385,-1.9365,0.0,0.0,0.0,0.0,0.0,0.0,0.0,0.0,0.0,0.0,0.0,0.0,0.0,0.0,0.0,-1.2371,0.0,-1.2371,-1.2378,0.0,0.0,0.0,-1.2478,-1.2829,-1.2779,-1.2893,-1.318,0.0,0.0,-1.3247,-1.326,-1.3287,-1.328,-1.3267,-1.326,-1.328,-1.33,-1.3287,-1.3313,-1.33,-1.3387,-1.3634,-1.3681,-1.3761,-1.3988,-1.4088,-1.4048,-1.4048,-1.4055,-1.4075,-1.4048,-1.4082,-1.4068,-1.4082,-1.4048,-1.4102,-1.4044,-1.3666,-1.33,-1.348,-1.3559,-1.3646,-2.0576,-2.0605,-2.0127,-1.9961,-1.9961,-1.9951,-2.0137,-2.04,-2.041,-2.0469,-2.0547,-2.0342,-2.0264,-2.0244,-2.0049,-2.0068,-2.0264,-2.0264,-2.0448,-2.0566,-2.0576,-2.0576,-2.0576,-2.0576,-2.0742,-2.1064,-2.1084,-2.125,-2.1562,-2.1572,-2.1572,-2.1572,-2.1572,-2.123,-2.0596,-2.0576,-2.0576,-2.0576,-2.0576,-2.0576,-2.0576,-2.0576,-2.0576,-2.0576,-2.0576,-2.0576,-2.0576,-2.0576,-2.0576,-2.0566,-2.0371,-2.0264,-2.0254,-1.9453,0.0,0.0,0.0,0.0,0.0,0.0,0.0,0.0,0.0,-1.4289,-1.3094,0.0,-1.3964,0.0,-1.2993,-1.2993,-1.2993,-1.2993,0.0,0.0,-1.2993,-1.3026,-1.3093,-1.31,-1.3126,-1.32,-1.34,-1.354,-1.3459,-1.3741,-1.3881,-1.3874,-1.3681,-1.3621,-1.3834,-1.3881,-1.3881,-1.3861,-1.3854,-1.3901,-1.3948,-1.3981,-1.4001,-1.4082,-1.4088,-1.4088,-1.4088,-1.4088,-1.4088,-1.4088,-1.4088,-1.4088,-1.4088,-1.4088,-1.4132,-1.4102,-1.3978,-1.4117,-1.4914,-1.5063,-1.5301,-2.0576,-2.0576,-2.0576,-2.0352,-2.0029,-2.0477,-2.0576,-2.0576,-2.0576,-2.0576,-2.0576,-2.0576,-2.0576,-2.0576,-2.0576,-2.0576,-2.0586,-2.0781,-2.0869,-2.0879,-2.1064,-2.1162,-2.1152,-2.1152,-2.1289,-2.1523,-2.1523,-2.165,-2.1875,-2.1894,-2.1894,-2.1894,-2.1894,-2.1641,-2.1172,-2.1152,-2.1152,-2.1152,-2.1152,-2.1152,-2.1152,-2.1152,-2.1152,-2.1143,-2.0967,-2.0859,-2.085,-2.0674,-2.0576,-2.0576,-2.0762,-2.0771,-2.0576,-2.0312,-2.0033,0.0,0.0,0.0,0.0,0.0,0.0,0.0,0.0,0.0,0.0,0.0,-1.4717,-1.3358,-1.3206,-1.3206,-1.3206,-1.3206,-1.3206,-1.3206,-1.3206,-1.326,-1.3394,-1.34,-1.3454,-1.3587,-1.3741,-1.3841,-1.3841,-1.3981,-1.4088,-1.4088,-1.3941,-1.3895,-1.4048,-1.4088,-1.4088,-1.4088,-1.4088,-1.4088,-1.4088,-1.4088,-1.4088,-1.4088,-1.4088,-1.4088,-1.4088,-1.4088,-1.4088,-1.4088,-1.4088,-1.4088,-1.4088,-1.4573,-1.4915,-1.5391,-1.5529,-1.5394,-1.5061,-1.5379,-1.5951,-2.0732,-2.0732,-2.0732,-2.0303,-1.9678,-2.042,-2.0547,-2.0244,-2.0234,-2.0322,-2.0488,-2.0596,-2.0684,-2.0732,-2.0732,-2.0732,-2.0752,-2.1143,-2.1318,-2.1338,-2.1709,-2.1894,-2.1894,-2.1894,-2.1904,-2.1963,-2.1973,-2.1992,-2.2051,-2.2051,-2.2051,-2.2041,-2.2041,-2.2051,-2.2051,-2.2051,-2.1992,-2.1894,-2.1894,-2.1894,-2.1894,-2.1894,-2.1894,-2.1875,-2.1523,-2.1318,-2.1309,-2.0889,-2.0654,-2.0664,-2.0977,-2.0977,-2.0596,-2.0937,-2.0897,0.0,-1.952,0.0,0.0,0.0,0.0,0.0,0.0,0.0,0.0,-1.5451,-1.5234,-1.3473,-1.3327,-1.332,-1.3327,-1.3327,-1.3327,-1.3327,-1.3327,-1.3427,-1.3667,-1.3701,-1.3801,-1.4062,-1.4088,-1.4088,-1.4075,-1.4088,-1.4088,-1.4088,-1.4075,-1.4068,-1.4088,-1.4088,-1.4088,-1.4088,-1.4088,-1.4088,-1.4095,-1.4122,-1.4155,-1.4155,-1.4222,-1.4195,-1.4235,-1.4222,-1.4222,-1.4215,-1.4242,-1.4222,-1.4103,-1.4937,-1.5996,-1.7043,-1.7191,-1.6593,-1.5499,-1.5711,-1.6108,-2.1641,-2.1641,-2.1631,-2.1543,-2.1406,-2.1562,-2.043,-1.8496,-1.8496,-1.9072,-2.0088,-2.0801,-2.1309,-2.1631,-2.1631,-2.1641,-2.1641,-2.1719,-2.1758,-2.1768,-2.1846,-2.1894,-2.1894,-2.1894,-2.207,-2.2383,-2.2393,-2.2568,-2.29,-2.29,-2.29,-2.29,-2.29,-2.29,-2.29,0.0,0.0,0.0,-2.1894,-2.1894,-2.1894,-2.1894,-2.1894,-2.1885,-2.1807,0.0,-2.1748,-2.1348,-2.1113,-2.1094,-2.084,0.0,0.0,0.0,0.0,0.0,0.0,0.0,0.0,0.0,0.0,0.0,-1.7569,-1.6322,-1.44,-1.44,-1.4324,-1.4005,-1.3921,-1.3921,-1.3928,-1.3921,-1.3921,-1.3921,-1.3921,-1.3941,-1.3995,-1.4001,-1.4028,-1.4075,-1.4088,-1.4088,-1.4088,-1.4088,-1.4088,-1.4102,-1.4088,-1.4088,-1.4102,-1.4102,-1.4088,-1.4088,-1.4115,-1.4102,-1.4088,-1.4289,-1.4436,-1.4456,-1.4649,-1.477,-1.477,-1.477,-1.479,-1.4776,-1.4803,-1.4674,-1.4179,-1.4661,-1.587,-1.7689,-1.7478,-1.718,-1.7874,-1.823,-1.863,-2.1894,0.0,-2.1894,-2.1641,0.0,-2.123,-2.0244,-1.8701,-1.9551,-2.0283,-2.0908,-2.1357,-2.168,-2.1865,-2.1435,-2.123,-2.123,-2.1006,-2.1143,-2.1572,-2.1787,-2.2109,-2.251,-2.25,-2.2617,-2.2812,-2.2822,-2.293,-2.3125,-2.3144,-2.3144,-2.3144,-2.3144,-2.3144,-2.3144,-2.3144,-2.293,-2.251,-2.25,-2.251,-2.251,-2.251,-2.251,-2.25,0.0,0.0,0.0,0.0,0.0,0.0,0.0,0.0,0.0,0.0,0.0,-1.9854,-1.9766,-1.952,-1.8948,-1.847,-1.8149,-1.8149,-1.669,-1.547,-1.4894,-1.4412,-1.4088,-1.4088,-1.4088,-1.4088,-1.4088,-1.4088,-1.4088,-1.4088,-1.4088,-1.4088,-1.4088,-1.4088,-1.4088,-1.4088,-1.4088,-1.4088,-1.4088,-1.4088,-1.4148,-1.4275,-1.4302,-1.4355,-1.4456,-1.4269,-1.4122,-1.4091,-1.4249,-1.4415,-1.4429,-1.4522,-1.4635,-1.4763,-1.4863,-1.4957,-1.506,-1.506,-1.506,-1.506,-1.506,-1.4867,-1.4744,-1.563,-1.7117,-1.8449,-1.9117,-1.9449,-2.0289,-1.9961,-1.9698,-2.2109,-2.2109,-2.21,-2.1689,-2.1016,-2.1016,-2.0625,-2.0049,0.0,0.0,0.0,-2.1924,-2.2031,-2.206,-2.1348,-2.1016,-2.0996,-2.0654,-2.0879,-2.1572,-2.1934,-2.248,-2.3125,-2.3144,-2.3144,-2.3144,-2.3144,-2.3144,-2.3144,-2.3144,-2.3144,-2.3144,-2.3144,-2.3144,-2.3144,-2.3144,-2.3144,-2.3144,-2.3144,-2.3144,-2.3144,-2.3144,-2.3144,-2.3135,-2.2803,-2.2627,-2.2617,-2.2217,-2.2002,-2.2002,-2.1934,-2.1719,-2.1377,-2.1279,-2.1064,-2.0713,-2.0605,-2.0576,-2.0566,-1.9766,-1.8718,-1.7423,-1.547,-1.465,-1.5379,-1.4573,-1.4088,-1.4088,-1.4088,-1.4088,-1.4088,-1.4088,-1.4088,-1.4088,-1.4088,-1.4088,-1.4088,-1.4088,-1.4088,-1.4095,-1.4142,-1.4168,-1.4182,-1.4235,-1.4322,-1.4543,-1.4603,-1.4676,-1.4843,-1.4563,-1.4362,-1.4375,-1.4553,-1.4731,-1.486,-1.481,-1.483,-1.5037,-1.5097,-1.5117,-1.5117,-1.5117,-1.5208,-1.5617,-1.5479,-1.5375,-1.5404,-1.6943,-1.8846,-1.9905,-2.0937,-2.1829,-2.1755,-2.1212,-2.0706,-2.2959,-2.2959,-2.2959,-2.2891,-2.2773,-2.2783,-2.2705,-2.25,-2.1309,-2.0977,-2.1367,-2.21,-2.2617,-2.2959,-2.2822,-2.2783,-2.2773,-2.2715,-2.2754,-2.2871,-2.2939,-2.3027,-2.3135,-2.3144,-2.3144,-2.3144,-2.3144,-2.3144,-2.3144,-2.3144,-2.3144,-2.3144,-2.3144,-2.3144,-2.3144,-2.3144,-2.3144,-2.3144,-2.3144,-2.3144,-2.3144,-2.3144,-2.3144,-2.3135,-2.3086,-2.3057,-2.3037,-2.2646,-2.2422,-2.2412,-2.208,-2.1855,-2.1787,-2.1445,-2.1201,-2.1123,-2.0781,-2.0576,-2.0576,-2.0479,-1.9511,-1.7496,-1.6198,-1.5137,-1.4412,-1.4166,-1.4088,-1.4088,-1.4088,-1.4088,-1.4088,-1.4088,-1.4088,-1.4088,-1.4088,-1.4088,-1.4102,-1.4102,-1.4115,-1.4135,-1.4309,-1.4456,-1.4476,-1.4656,-1.481,-1.4883,-1.493,-1.4937,-1.4983,-1.4903,-1.4856,-1.4883,-1.4731,-1.4963,-1.5354,-1.5302,-1.5206,-1.5331,-1.5531,-1.5732,-1.5819,-1.5905,-1.6271,-1.7157,-1.7298,-1.6926,-1.6141,-1.7667,-1.9915,-2.1779,-2.205,-2.1614,-2.1586,-2.2051,-2.2332,-2.3838,-2.3838,-2.3828,-2.3828,-2.3828,-2.3828,-2.3828,-2.376,-2.3008,-2.25,-2.2305,-2.2685,-2.2959,-2.3096,-2.2666,-2.2461,-2.2441,-2.1963,-2.2012,-2.2441,-2.2461,-2.2695,-2.3115,-2.3144,-2.3144,-2.3144,-2.3144,-2.3144,-2.3144,-2.3144,-2.3144,-2.3144,-2.3144,-2.3144,-2.3144,-2.3144,-2.3144,-2.3144,-2.3144,-2.3144,-2.3144,-2.3144,-2.3144,-2.3144,-2.3144,-2.3144,-2.3144,-2.2949,-2.2852,-2.2861,-2.2451,-2.2227,-2.2217,-2.1826,-2.1592,-2.1582,-2.1396,-2.1279,-2.1279,-2.0547,-1.9254,-1.744,-1.6355,-1.5538,-1.5054,-1.4412,-1.4088,-1.4088,-1.4088,-1.4088,-1.4088,-1.4088,-1.4088,-1.4088,-1.4088,-1.4148,-1.4295,-1.4322,-1.4389,-1.4536,-1.4676,-1.4763,-1.4763,-1.4883,-1.5037,-1.5164,-1.5311,-1.5418,-1.5424,-1.5424,-1.5364,-1.5041,-1.512,-1.5424,-1.5742,-1.5638,-1.5524,-1.5631,-1.6289,-1.6749,-1.685,-1.721,-1.8033,-1.8495,-1.8688,-1.8433,-1.785,-1.9241,-2.1077,-2.2413,-2.2758,-2.2334,-2.2403,-2.2765,-2.2901,-2.4424,-2.4424,-2.4424,-2.4424,-2.4424,-2.4424,-2.4424,-2.4424,-2.4404,-2.4043,-2.3486,-2.3428,-2.3428,-2.3359,-2.2744,-2.2461,-2.2363,-2.1748,-2.1816,-2.2412,-2.2461,-2.2803,-2.3359,-2.334,-2.3281,-2.3271,-2.3184,-2.3144,-2.3144,-2.3144,-2.3144,-2.3144,-2.3144,-2.3144,-2.3144,-2.3144,-2.3144,-2.3144,-2.3144,-2.3144,-2.3144,-2.3144,-2.3144,-2.3144,-2.3144,-2.3144,-2.3144,-2.3144,-2.3144,-2.3125,-2.2832,-2.2656,-2.2646,-2.2256,-2.2021,-2.2021,-2.1943,-2.1894,-2.1783,-2.0283,-1.8794,-1.7606,-1.6338,-1.5515,-1.5515,-1.4781,-1.4215,-1.4115,-1.4148,-1.4195,-1.4215,-1.4269,-1.4282,-1.4282,-1.4289,-1.4396,-1.4583,-1.4623,-1.4703,-1.493,-1.5017,-1.5057,-1.507,-1.5117,-1.5257,-1.5484,-1.5691,-1.5818,-1.5825,-1.5825,-1.5617,-1.5411,-1.5584,-1.5785,-1.5825,-1.6414,-1.6501,-1.6312,-1.7311,-1.7956,-1.8226,-1.8948,-1.9588,-1.9761,-1.9943,-2.0025,-2.0305,-2.1025,-2.2017,-2.2917,-2.2988,-2.3057,-2.296,-2.3047,-2.3144,-2.4424,-2.4424,-2.4453,-2.4424,-2.4453,-2.4443,-2.4453,-2.4453,-2.4424,-2.4394,-2.4307,-2.4307,-2.4287,-2.4297,-2.416,-2.4102,-2.4092,-2.4092,-2.4043,-2.4102,-2.418,-2.4228,-2.4219,-2.3906,-2.373,-2.3682,-2.3359,-2.3203,-2.3184,-2.3057,-2.3144,-2.3144,-2.3144,-2.3144,-2.3144,-2.3144,-2.3144,-2.3144,-2.3144,-2.3144,-2.3144,-2.3144,-2.3144,-2.3144,-2.3144,-2.3144,-2.3144,-2.3144,-2.3144,-2.3144,-2.3105,-2.3066,-2.3037,-2.2685,-2.2461,-2.2441,-2.2109,-2.1894,-2.1802,-1.9773,-1.8512,-1.8153,-1.6308,-1.5192,-1.5116,-1.4945,-1.4643,-1.4289,-1.4342,-1.4476,-1.4496,-1.4696,-1.4823,-1.4803,-1.4823,-1.4903,-1.491,-1.4917,-1.4937,-1.4957,-1.5224,-1.5357,-1.5378,-1.5538,-1.5712,-1.5725,-1.5785,-1.592,-1.6015,-1.6015,-1.6109,-1.5873,-1.5818,-1.5812,-1.6116,-1.7834,-1.8279,-1.7807,-1.8503,-1.9222,-1.9405,-1.9579,-1.9861,-2.0944,-2.1114,-2.148,-2.2217,-2.2862,-2.2872,-2.3018,-2.3086,-2.3144,-2.3144,-2.3144,-2.3144,-2.5195,-2.5205,-2.5195,-2.5195,-2.5195,-2.5195,-2.5195,-2.5195,-2.5205,-2.5195,-2.5195,-2.5205,-2.4912,-2.4434,-2.4424,-2.4424,-2.4424,-2.4424,-2.4424,-2.4424,-2.4424,-2.4424,-2.4394,-2.4248,-2.416,-2.416,-2.3975,-2.3769,-2.3516,-2.3262,-2.3144,-2.3144,-2.3144,-2.3144,-2.3144,-2.3144,-2.3144,-2.3144,-2.3144,-2.3144,-2.3144,-2.3144,-2.3144,-2.3144,-2.3144,-2.3144,-2.3144,-2.3144,-2.3144,-2.3144,-2.3144,-2.3144,-2.3144,-2.2978,-2.2881,-2.2871,-2.2725,-2.2519,-2.2285,-2.0662,-1.9687,-1.9375,-1.7201,-1.5903,-1.5903,-1.5397,-1.4939,-1.4683,-1.4716,-1.4783,-1.4796,-1.4897,-1.506,-1.506,-1.506,-1.5037,-1.5204,-1.5224,-1.5271,-1.5444,-1.5578,-1.5651,-1.5665,-1.5752,-1.5818,-1.5825,-1.5825,-1.6103,-1.6763,-1.6943,-1.7254,-1.7636,-1.6807,-1.6378,-1.7102,-1.8388,-1.9136,-1.9171,-1.977,-2.0576,-2.0576,-2.1311,-2.1863,-2.2306,-2.2217,-2.2394,-2.2862,-2.3047,-2.3144,-2.3144,-2.3144,-2.3144,-2.3144,-2.3144,-2.3144,-2.5732,-2.5732,-2.5732,-2.5732,-2.5732,-2.5732,-2.5732,-2.5732,-2.5732,-2.5732,-2.5732,-2.5732,-2.5391,-2.4834,-2.4775,-2.4775,-2.4775,-2.4775,-2.4775,-2.4775,-2.4775,-2.4785,-2.4766,-2.4648,-2.459,-2.458,-2.4453,-2.4248,-2.3935,-2.3525,-2.332,-2.3301,-2.3193,-2.3144,-2.3144,-2.3144,-2.3144,-2.3144,-2.3144,-2.3144,-2.3144,-2.3144,-2.3144,-2.3144,-2.3144,-2.3144,-2.3144,-2.3144,-2.3144,-2.3144,-2.3144,-2.3144,-2.3144,-2.3144,-2.3144,-2.3144,-2.3144,-2.3008,-2.2695,-2.1506,-2.0761,-2.0223,-1.8521,-1.7212,-1.687,-1.6519,-1.6083,-1.5826,-1.5993,-1.6249,-1.5611,-1.5325,-1.5379,-1.5645,-1.547,-1.5297,-1.5484,-1.5511,-1.5591,-1.5792,-1.5792,-1.5825,-1.5825,-1.6103,-1.6386,-1.6386,-1.6655,-1.7023,-1.7956,-1.8234,-1.8542,-1.9353,-1.8086,-1.7735,-1.8548,-1.987,-2.0275,-2.0314,-2.1033,-2.1765,-2.1756,-2.2677,-2.3047,-2.2775,-2.3047,-2.3135,-2.3047,-2.3135,-2.3144,-2.3144,-2.3144,-2.3144,-2.3144,-2.3144,-2.3144,-2.5732,-2.5732,-2.5732,-2.5732,-2.5732,-2.5732,-2.5732,-2.5732,-2.5732,-2.5732,-2.5732,-2.5732,-2.5703,-2.5625,-2.5586,-2.5654,-2.5644,-2.5605,-2.5596,-2.5596,-2.5615,-2.5664,-2.5654,-2.5254,-2.5039,-2.501,-2.4707,-2.4473,-2.4365,-2.3965,-2.376,-2.373,-2.3369,-2.3154,-2.3144,-2.3144,-2.3144,-2.3144,-2.3144,-2.3144,-2.3144,-2.3144,-2.3144,-2.3144,-2.3144,-2.3144,-2.3144,-2.3144,-2.3144,-2.3144,-2.3144,-2.3144,-2.3144,-2.3144,-2.3144,-2.3144,-2.3144,-2.3135,-2.2911,-2.1878,-2.1123,-2.1025,-1.9709,-1.8784,-1.7542,-1.8072,-1.808,-1.7517,-1.7995,-1.8162,-1.713,-1.6274,-1.6362,-1.7201,-1.6404,-1.5853,-1.5785,-1.5758,-1.5805,-1.5825,-1.592,-1.6015,-1.592,-1.6857,-1.7498,-1.777,-1.8488,-1.9214,-1.9306,-1.9405,-1.9505,-1.9861,-2.0039,-2.0231,-1.9872,-2.0953,-2.1894,-2.1839,-2.2041,-2.2872,-2.296,-2.3144,-2.3144,-2.3144,-2.3144,-2.3144,-2.3144,-2.3144,-2.3144,-2.3144,-2.3144,-2.3144,-2.3144,-2.3144,-2.3144,-2.5732,-2.5732,-2.5732,-2.5732,-2.5732,-2.5732,-2.5732,-2.5732,-2.5732,-2.5732,-2.5732,-2.5732,-2.5732,-2.5732,-2.5732,-2.5732,-2.5732,-2.5732,-2.5732,-2.5732,-2.5732,-2.5732,-2.5723,-2.5566,-2.5498,-2.5469,-2.5342,-2.5117,-2.4805,-2.4404,-2.4053,-2.3809,-2.3633,-2.3428,-2.3193,-2.3144,-2.3144,-2.3144,-2.3144,-2.3144,-2.3144,-2.3144,-2.3144,-2.3144,-2.3144,-2.3144,-2.3144,-2.3144,-2.3144,-2.3144,-2.3144,-2.3144,-2.3144,-2.3144,-2.3144,-2.3144,-2.3144,-2.3144,-2.296,-2.1933,-2.0926,-2.0124,-1.9047,-1.7863,-1.6842,-1.6842,-1.6936,-1.6756,-1.6842,-1.7037,-1.7465,-1.7159,-1.7225,-1.7412,-1.6574,-1.5825,-1.5825,-1.5825,-1.5825,-1.592,-1.648,-1.7037,-1.7217,-1.8133,-1.8772,-1.8864,-1.9231,-1.9852,-2.0486,-2.0666,-2.0845,-2.1587,-2.2013,-2.2161,-2.1957,-2.2315,-2.2949,-2.2725,-2.2872,-2.296,-2.3057,-2.3144,-2.3144,-2.3144,-2.3144,-2.3144,-2.3144,-2.3144,-2.3144,-2.3144,-2.3144,-2.3144,-2.3144,-2.3144,-2.3144,-2.5732,-2.5732,-2.5732,-2.5732,-2.5732,-2.5732,-2.5732,-2.5732,-2.5732,-2.5732,-2.5732,-2.5732,-2.5732,-2.5732,-2.5732,-2.5732,-2.5732,-2.5732,-2.5732,-2.5732,-2.5732,-2.5732,-2.5732,-2.5732,-2.5732,-2.5732,-2.5732,-2.5566,-2.5264,-2.4834,-2.4482,-2.4228,-2.4072,-2.3779,-2.3418,-2.335,-2.3291,-2.3174,-2.3144,-2.3144,-2.3144,-2.3144,-2.3144,-2.3144,-2.3144,-2.3144,-2.3144,-2.3144,-2.3144,-2.3144,-2.3144,-2.3144,-2.3144,-2.3144,-2.3144,-2.3144,-2.3144,-2.3144,-2.296,-2.2031,-2.0926,-2.0116,-1.8956,-1.777,-1.6567,-1.6749,-1.6749,-1.6662,-1.7296,-1.8033,-1.8588,-1.8864,-1.868,-1.8234,-1.7124,-1.6662,-1.6929,-1.7023,-1.7023,-1.721,-1.777,-1.8234,-1.8419,-1.9405,-1.9951,-2.0124,-2.0314,-2.1042,-2.1667,-2.1943,-2.212,-2.2862,-2.296,-2.295,-2.2746,-2.2882,-2.3096,-2.2969,-2.296,-2.3047,-2.3144,-2.3144,-2.3144,-2.3144,-2.3144,-2.3144,-2.3144,-2.3144,-2.3144,-2.3144,-2.3144,-2.3144,-2.3144,-2.3144,-2.3144,-2.5732,-2.5732,-2.5732,-2.5732,-2.5732,-2.5732,-2.5732,-2.5732,-2.5732,-2.5732,-2.5732,-2.5732,-2.5732,-2.5732,-2.5732,-2.5732,-2.5732,-2.5732,-2.5732,-2.5732,-2.5732,-2.5732,-2.5732,-2.5732,-2.5732,-2.5732,-2.5732,-2.5723,-2.5644,-2.5273,-2.5029,-2.4941,-2.459,-2.4209,-2.3799,-2.374,-2.3555,-2.3271,-2.3174,-2.3144,-2.3144,-2.3144,-2.3144,-2.3144,-2.3144,-2.3144,-2.3144,-2.3144,-2.3144,-2.3144,-2.3144,-2.3144,-2.3144,-2.3144,-2.3144,-2.3144,-2.3144,-2.3144,-2.296,-2.2031,-2.148,-2.0747,-2.0034,-1.868,-1.7584,-1.8126,-1.8311,-1.777,-1.9123,-2.0747,-2.0657,-2.0755,-2.0477,-1.9588,-1.8403,-1.8133,-1.8948,-1.9405,-1.9405,-1.9314,-1.9405,-1.9497,-1.977,-2.0576,-2.1302,-2.148,-2.2031,-2.2687,-2.2775,-2.2775,-2.3047,-2.3047,-2.3144,-2.3144,-2.3144,-2.3144,-2.3144,-2.3047,-2.3047,-2.3144,-2.3144,-2.3144,-2.3144,-2.3144,-2.3144,-2.3144,-2.3144,-2.3144,-2.3144,-2.3144,-2.3144,-2.3144,-2.3144,-2.3144,-2.3144,-2.5732,-2.5732,-2.5732,-2.5732,-2.5732,-2.5732,-2.5732,-2.5732,-2.5732,-2.5732,-2.5732,-2.5732,-2.5732,-2.5732,-2.5732,-2.5732,-2.5732,-2.5732,-2.5732,-2.5732,-2.5732,-2.5732,-2.5732,-2.5732,-2.5732,-2.5732,-2.5732,-2.5732,-2.5703,-2.5586,-2.5391,-2.5088,-2.4941,-2.4639,-2.4228,-2.3945,-2.3701,-2.3574,-2.3281,-2.3144,-2.3144,-2.3144,-2.3144,-2.3144,-2.3144,-2.3144,-2.3144,-2.3144,-2.3144,-2.3144,-2.3144,-2.3144,-2.3144,-2.3144,-2.3144,-2.3144,-2.3144,-2.3144,-2.3047,-2.2687,-2.1676,-2.0395,-1.967,-1.8495,-1.6756,-1.6842,-1.6929,-1.6567,-1.7855,-1.8864,-1.8956,-1.9579,-2.0296,-2.0666,-1.967,-1.9039,-1.9579,-1.9588,-1.9497,-1.9588,-2.0215,-2.0666,-2.0935,-2.1756,-2.2403,-2.2394,-2.2862,-2.3047,-2.3144,-2.3144,-2.3135,-2.3135,-2.3144,-2.3144,-2.3144,-2.3144,-2.3144,-2.3144,-2.3144,-2.3144,-2.3144,-2.3144,-2.3144,-2.3144,-2.3144,-2.3144,-2.3144,-2.3144,-2.3144,-2.3144,-2.3144,-2.3144,-2.3144,-2.3144,-2.3144,-2.5732,-2.5732,-2.5732,-2.5732,-2.5732,-2.5732,-2.5732,-2.5732,-2.5732,-2.5732,-2.5732,-2.5732,-2.5732,-2.5732,-2.5732,-2.5732,-2.5732,-2.5732,-2.5732,-2.5732,-2.5732,-2.5732,-2.5732,-2.5732,-2.5732,-2.5732,-2.5732,-2.5732,-2.5732,-2.5723,-2.5596,-2.5361,-2.5312,-2.5098,-2.4687,-2.4404,-2.4209,-2.4004,-2.3603,-2.3389,-2.335,-2.3223,-2.3144,-2.3144,-2.3144,-2.3144,-2.3144,-2.3144,-2.3144,-2.3144,-2.3144,-2.3144,-2.3144,-2.3144,-2.3144,-2.3144,-2.3144,-2.3144,-2.3047,-2.2138,-2.1221,-1.9679,-1.8664,-1.7569,-1.6197,-1.6109,-1.648,-1.6662,-1.8126,-1.9039,-1.9314,-2.0133,-2.1123,-2.1854,-2.0845,-2.0395,-2.0674,-2.0854,-2.0854,-2.1132,-2.1578,-2.1854,-2.2217,-2.2492,-2.3057,-2.3144,-2.3144,-2.3144,-2.3144,-2.3144,-2.3144,-2.3144,-2.3144,-2.3144,-2.3144,-2.3144,-2.3144,-2.3144,-2.3144,-2.3144,-2.3144,-2.3144,-2.3144,-2.3144,-2.3144,-2.3144,-2.3144,-2.3144,-2.3144,-2.3144,-2.3144,-2.3144,-2.3144,-2.3144,-2.3144,-2.5732,-2.5732,-2.5732,-2.5732,-2.5732,-2.5732,-2.5732,-2.5732,-2.5732,-2.5732,-2.5732,-2.5732,-2.5732,-2.5732,-2.5732,-2.5732,-2.5732,-2.5732,-2.5732,-2.5732,-2.5732,-2.5732,-2.5732,-2.5732,-2.5732,-2.5732,-2.5732,-2.5732,-2.5732,-2.5732,-2.5732,-2.5684,-2.5644,-2.5527,-2.5146,-2.5068,-2.4795,-2.4443,-2.4033,-2.3818,-2.374,-2.3408,-2.3174,-2.3154,-2.3144,-2.3144,-2.3144,-2.3144,-2.3144,-2.3144,-2.3144,-2.3144,-2.3144,-2.3144,-2.3144,-2.3144,-2.3144,-2.296,-2.2501,-2.1311,-1.9943,-1.9488,-1.7848,-1.6015,-1.6473,-1.7311,-1.777,-1.7863,-1.967,-2.1025,-2.1203,-2.2031,-2.2765,-2.2853,-2.2031,-2.1854,-2.2862,-2.2862,-2.2677,-2.2775,-2.3047,-2.3047,-2.296,-2.3047,-2.3047,-2.3144,-2.3144,-2.3144,-2.3144,-2.3144,-2.3144,-2.3144,-2.3144,-2.3144,-2.3144,-2.3144,-2.3144,-2.3144,-2.3144,-2.3144,-2.3144,-2.3144,-2.3144,-2.3144,-2.3144,-2.3144,-2.3144,-2.3144,-2.3144,-2.3144,-2.3144,-2.3144,-2.3144,-2.3144,-2.3144,-2.5732,-2.5732,-2.5732,-2.5732,-2.5732,-2.5732,-2.5732,-2.5732,-2.5732,-2.5732,-2.5732,-2.5732,-2.5732,-2.5732,-2.5732,-2.5732,-2.5732,-2.5732,-2.5732,-2.5732,-2.5732,-2.5732,-2.5732,-2.5732,-2.5732,-2.5732,-2.5732,-2.5732,-2.5732,-2.5732,-2.5732,-2.5732,-2.5732,-2.5684,-2.5537,-2.5234,-2.5029,-2.4853,-2.4473,-2.4102,-2.3838,-2.3691,-2.3457,-2.3164,-2.3144,-2.3144,-2.3144,-2.3144,-2.3144,-2.3144,-2.3144,-2.3144,-2.3144,-2.3144,-2.3144,-2.3144,-2.3047,-2.2677,-2.1854,-2.1212,-2.0387,-1.9588,-1.8756,-1.848,-1.8488,-1.8764,-1.9039,-1.9314,-2.0486,-2.1382,-2.148,-2.2403,-2.3047,-2.3047,-2.2677,-2.2677,-2.296,-2.3144,-2.3144,-2.3144,-2.3144,-2.3144,-2.3144,-2.3144,-2.3144,-2.3144,-2.3144,-2.3144,-2.3144,-2.3144,-2.3144,-2.3144,-2.3144,-2.3144,-2.3144,-2.3144,-2.3144,-2.3144,-2.3144,-2.3144,-2.3144,-2.3144,-2.3144,-2.3144,-2.3144,-2.3144,-2.3144,-2.3144,-2.3144,-2.3144,-2.3144,-2.3144,-2.3144,-2.3144,-2.3144,-2.5732,-2.5732,-2.5732,-2.5732,-2.5732,-2.5732,-2.5732,-2.5732,-2.5732,-2.5732,-2.5732,-2.5732,-2.5732,-2.5732,-2.5732,-2.5732,-2.5732,-2.5732,-2.5732,-2.5732,-2.5732,-2.5732,-2.5732,-2.5732,-2.5732,-2.5732,-2.5732,-2.5732,-2.5732,-2.5732,-2.5732,-2.5732,-2.5732,-2.5732,-2.5713,-2.5508,-2.5342,-2.5273,-2.4922,-2.4551,-2.4336,-2.3955,-2.3691,-2.3398,-2.3262,-2.3144,-2.3144,-2.3144,-2.3144,-2.3144,-2.3144,-2.3144,-2.3144,-2.3144,-2.3144,-2.3144,-2.3144,-2.2765,-2.212,-2.1658,-2.1025,-2.0305,-1.9852,-1.9497,-1.9579,-1.9852,-2.0215,-2.0395,-2.1391,-2.1933,-2.212,-2.2677,-2.3047,-2.3047,-2.3144,-2.3144,-2.3144,-2.3144,-2.3144,-2.3144,-2.3144,-2.3144,-2.3144,-2.3144,-2.3144,-2.3144,-2.3144,-2.3144,-2.3144,-2.3144,-2.3144,-2.3144,-2.3144,-2.3144,-2.3144,-2.3144,-2.3144,-2.3144,-2.3144,-2.3144,-2.3144,-2.3144,-2.3144,-2.3144,-2.3144,-2.3144,-2.3144,-2.3144,-2.3144,-2.3144,-2.3144,-2.3144,-2.3144,-2.3144,-2.3144,-2.5732,-2.5732,-2.5732,-2.5732,-2.5732,-2.5732,-2.5732,-2.5732,-2.5732,-2.5732,-2.5732,-2.5732,-2.5732,-2.5732,-2.5732,-2.5732,-2.5732,-2.5732,-2.5732,-2.5732,-2.5732,-2.5732,-2.5732,-2.5732,-2.5732,-2.5732,-2.5732,-2.5732,-2.5732,-2.5732,-2.5732,-2.5732,-2.5732,-2.5732,-2.5732,-2.5703,-2.5723,-2.5625,-2.5332,-2.5068,-2.4853,-2.4375,-2.3994,-2.3682,-2.331,-2.3154,-2.3144,-2.3144,-2.3144,-2.3144,-2.3144,-2.3144,-2.3144,-2.3144,-2.3144,-2.3144,-2.3047,-2.296,-2.2677,-2.1747,-2.1293,-2.1025,-2.0215,-1.9852,-2.0215,-2.1033,-2.148,-2.148,-2.2482,-2.2862,-2.295,-2.3047,-2.3047,-2.3144,-2.3144,-2.3144,-2.3144,-2.3144,-2.3144,-2.3144,-2.3144,-2.3144,-2.3144,-2.3144,-2.3144,-2.3144,-2.3144,-2.3144,-2.3144,-2.3144,-2.3144,-2.3144,-2.3144,-2.3144,-2.3144,-2.3144,-2.3144,-2.3144,-2.3144,-2.3144,-2.3144,-2.3144,-2.3144,-2.3144,-2.3144,-2.3144,-2.3144,-2.3144,-2.3144,-2.3144,-2.3144,-2.3144,-2.3144,-2.3144,-2.3144,-2.5732,-2.5732,-2.5732,-2.5732,-2.5732,-2.5732,-2.5732,-2.5732,-2.5732,-2.5732,-2.5732,-2.5732,-2.5732,-2.5732,-2.5732,-2.5732,-2.5732,-2.5732,-2.5732,-2.5732,-2.5732,-2.5732,-2.5732,-2.5732,-2.5732,-2.5732,-2.5732,-2.5732,-2.5732,-2.5732,-2.5732,-2.5732,-2.5732,-2.5732,-2.5732,-2.5732,-2.5732,-2.5713,-2.5615,-2.5391,-2.5137,-2.4883,-2.4414,-2.3848,-2.3389,-2.3086,-2.3144,-2.3144,-2.3144,-2.3144,-2.3144,-2.3144,-2.3144,-2.3144,-2.3144,-2.3144,-2.3047,-2.2677,-2.1933,-2.1658,-2.1293,-2.1382,-2.1212,-2.1302,-2.2227,-2.2403,-2.2677,-2.2765,-2.295,-2.3135,-2.3144,-2.3144,-2.3144,-2.3144,-2.3144,-2.3144,-2.3144,-2.3144,-2.3144,-2.3144,-2.3144,-2.3144,-2.3144,-2.3144,-2.3144,-2.3144,-2.3144,-2.3144,-2.3144,-2.3144,-2.3144,-2.3144,-2.3144,-2.3144,-2.3144,-2.3144,-2.3144,-2.3144,-2.3144,-2.3144,-2.3144,-2.3144,-2.3144,-2.3144,-2.3144,-2.3144,-2.3144,-2.3144,-2.3144,-2.3144,-2.3144,-2.3144,-2.3144,-2.3144,-2.3144,-2.5732,-2.5732,-2.5732,-2.5732,-2.5732,-2.5732,-2.5732,-2.5732,-2.5732,-2.5732,-2.5732,-2.5732,-2.5732,-2.5732,-2.5732,-2.5732,-2.5732,-2.5732,-2.5732,-2.5732,-2.5732,-2.5732,-2.5732,-2.5732,-2.5732,-2.5732,-2.5732,-2.5732,-2.5732,-2.5732,-2.5732,-2.5732,-2.5732,-2.5732,-2.5732,-2.5732,-2.5732,-2.5732,-2.5732,-2.5605,-2.541,-2.5146,-2.4658,-2.3955,-2.3555,-2.3369,-2.3164,-2.3144,-2.3144,-2.3144,-2.3144,-2.3144,-2.3144,-2.3144,-2.3144,-2.3144,-2.3047,-2.2862,-2.2315,-2.2129,-2.2208,-2.212,-2.2129,-2.2492,-2.295,-2.3144,-2.3144,-2.3144,-2.3047,-2.3144,-2.3144,-2.3144,-2.3144,-2.3144,-2.3144,-2.3144,-2.3144,-2.3144,-2.3144,-2.3144,-2.3144,-2.3144,-2.3144,-2.3144,-2.3144,-2.3144,-2.3144,-2.3144,-2.3144,-2.3144,-2.3144,-2.3144,-2.3144,-2.3144,-2.3144,-2.3144,-2.3144,-2.3144,-2.3144,-2.3144,-2.3144,-2.3144,-2.3144,-2.3144,-2.3144,-2.3144,-2.3144,-2.3144,-2.3144,-2.3144,-2.3144,-2.3144,-2.3144,-2.3144,-2.3144,-2.5732,-2.5732,-2.5732,-2.5732,-2.5732,-2.5732,-2.5732,-2.5732,-2.5732,-2.5732,-2.5732,-2.5732,-2.5732,-2.5732,-2.5732,-2.5732,-2.5732,-2.5732,-2.5732,-2.5732,-2.5732,-2.5732,-2.5732,-2.5732,-2.5732,-2.5732,-2.5732,-2.5732,-2.5732,-2.5732,-2.5732,-2.5732,-2.5732,-2.5732,-2.5732,-2.5732,-2.5732,-2.5732,-2.5732,-2.5723,-2.5664,-2.5352,-2.4824,-2.4248,-2.3799,-2.3603,-2.334,-2.3213,-2.3144,-2.3144,-2.3144,-2.3144,-2.3144,-2.3144,-2.3144,-2.3144,-2.3144,-2.3047,-2.296,-2.296,-2.296,-2.3144,-2.3047,-2.3047,-2.3047,-2.3144,-2.3144,-2.3144,-2.3144,-2.3144,-2.3144,-2.3144,-2.3144,-2.3144,-2.3144,-2.3144,-2.3144,-2.3144,-2.3144,-2.3144,-2.3144,-2.3144,-2.3144,-2.3144,-2.3144,-2.3144,-2.3144,-2.3144,-2.3144,-2.3144,-2.3144,-2.3144,-2.3144,-2.3144,-2.3144,-2.3144,-2.3144,-2.3184,-2.3174,-2.3193,-2.3184,-2.3144,-2.3144,-2.3144,-2.3144,-2.3154,-2.3154,-2.3144,-2.3144,-2.3144,-2.3144,-2.3144,-2.3144,-2.3144,-2.3164,-2.5732,-2.5732,-2.5732,-2.5732,-2.5732,-2.5732,-2.5732,-2.5732,-2.5732,-2.5732,-2.5732,-2.5732,-2.5732,-2.5732,-2.5732,-2.5732,-2.5732,-2.5732,-2.5732,-2.5732,-2.5732,-2.5732,-2.5732,-2.5732,-2.5732,-2.5732,-2.5732,-2.5732,-2.5732,-2.5732,-2.5732,-2.5732,-2.5732,-2.5732,-2.5732,-2.5732,-2.5732,-2.5732,-2.5732,-2.5732,-2.5693,-2.5596,-2.5312,-2.4707,-2.418,-2.3799,-2.3613,-2.333,-2.3144,-2.3144,-2.3144,-2.3144,-2.3144,-2.3144,-2.3144,-2.3144,-2.3144,-2.3144,-2.3144,-2.3144,-2.3144,-2.3144,-2.3144,-2.3144,-2.3144,-2.3144,-2.3144,-2.3144,-2.3144,-2.3144,-2.3144,-2.3144,-2.3144,-2.3144,-2.3144,-2.3144,-2.3144,-2.3144,-2.3144,-2.3144,-2.3144,-2.3144,-2.3144,-2.3144,-2.3144,-2.3144,-2.3144,-2.3144,-2.3144,-2.3144,-2.3144,-2.3144,-2.3144,-2.3144,-2.3144,-2.3144,-2.3154,-2.3242,-2.3271,-2.332,-2.3281,-2.3174,-2.3154,-2.3369,-2.3242,-2.3164,-2.3145,-2.3164,-2.331,-2.3437,-2.332,-2.3184,-2.334,-2.3486,-2.3301,-2.5732,-2.5732,-2.5732,-2.5732,-2.5732,-2.5732,-2.5732,-2.5732,-2.5732,-2.5732,-2.5732,-2.5732,-2.5732,-2.5732,-2.5732,-2.5732,-2.5732,-2.5732,-2.5732,-2.5732,-2.5732,-2.5732,-2.5732,-2.5732,-2.5732,-2.5732,-2.5732,-2.5732,-2.5732,-2.5732,-2.5732,-2.5732,-2.5732,-2.5732,-2.5732,-2.5732,-2.5732,-2.5732,-2.5732,-2.5732,-2.5732,-2.5732,-2.5498,-2.5019,-2.4492,-2.4043,-2.373,-2.3369,-2.3144,-2.3144,-2.3144,-2.3144,-2.3144,-2.3144,-2.3144,-2.3144,-2.3144,-2.3144,-2.3144,-2.3144,-2.3144,-2.3144,-2.3144,-2.3144,-2.3144,-2.3144,-2.3144,-2.3144,-2.3144,-2.3144,-2.3144,-2.3144,-2.3144,-2.3144,-2.3144,-2.3144,-2.3144,-2.3144,-2.3144,-2.3144,-2.3144,-2.3144,-2.3144,-2.3144,-2.3144,-2.3144,-2.3144,-2.3144,-2.3144,-2.3144,-2.3144,-2.3164,-2.3174,-2.3232,-2.3271,-2.332,-2.3389,-2.3447,-2.3486,-2.3535,-2.3643,-2.3652,-2.375,-2.3916,-2.367,-2.3495,-2.3403,-2.3448,-2.3599,-2.376,-2.3799,-2.3818,-2.3828,-2.3789,-2.3633,-2.5732,-2.5732,-2.5732,-2.5732,-2.5732,-2.5732,-2.5732,-2.5732,-2.5732,-2.5732,-2.5732,-2.5732,-2.5732,-2.5732,-2.5732,-2.5732,-2.5732,-2.5732,-2.5732,-2.5732,-2.5732,-2.5732,-2.5732,-2.5732,-2.5732,-2.5732,-2.5732,-2.5732,-2.5732,-2.5732,-2.5732,-2.5732,-2.5732,-2.5732,-2.5732,-2.5732,-2.5732,-2.5732,-2.5732,-2.5732,-2.5732,-2.5713,-2.5586,-2.5205,-2.4775,-2.4365,-2.3975,-2.3564,-2.3262,-2.3174,-2.3144,-2.3144,-2.3144,-2.3144,-2.3144,-2.3144,-2.3144,-2.3144,-2.3144,-2.3144,-2.3144,-2.3144,-2.3144,-2.3144,-2.3144,-2.3144,-2.3144,-2.3144,-2.3144,-2.3144,-2.3144,-2.3144,-2.3144,-2.3144,-2.3144,-2.3144,-2.3144,-2.3144,-2.3144,-2.3144,-2.3144,-2.3144,-2.3144,-2.3144,-2.3144,-2.3144,-2.3144,-2.3144,-2.3144,-2.3144,-2.3144,-2.3184,-2.3232,-2.333,-2.3428,-2.3584,-2.3721,-2.3896,-2.3926,-2.3965,-2.4131,-2.4277,-2.4365,-2.4394,-2.4346,-2.4117,-2.3929,-2.3836,-2.4117,-2.4392,-2.4447,-2.4346,-2.4189,-2.4141,-2.4072,-2.5732,-2.5732,-2.5732,-2.5732,-2.582,-2.582,-2.5723,-2.582,-2.5917,-2.5732,-2.6014,-2.5732,-2.583,-2.5732,-2.5732,-2.5732,-2.5732,-2.5732,-2.5732,-2.5732,-2.5732,-2.5732,-2.5732,-2.5732,-2.5732,-2.5732,-2.5732,-2.5732,-2.5732,-2.5732,-2.5732,-2.5732,-2.5732,-2.5732,-2.5732,-2.5732,-2.5732,-2.5732,-2.5732,-2.5732,-2.5732,-2.5732,-2.5684,-2.5527,-2.5185,-2.4766,-2.4326,-2.3906,-2.3525,-2.3213,-2.3154,-2.3144,-2.3144,-2.3144,-2.3144,-2.3144,-2.3144,-2.3144,-2.3144,-2.3144,-2.3144,-2.3144,-2.3144,-2.3144,-2.3144,-2.3144,-2.3144,-2.3144,-2.3144,-2.3144,-2.3144,-2.3144,-2.3144,-2.3144,-2.3144,-2.3144,-2.3144,-2.3144,-2.3144,-2.3144,-2.3144,-2.3144,-2.3144,-2.3144,-2.3144,-2.3144,-2.3144,-2.3144,-2.3184,-2.3223,-2.3271,-2.334,-2.3564,-2.3682,-2.373,-2.3867,-2.4082,-2.4307,-2.4365,-2.4404,-2.4629,-2.4795,-2.4785,-2.4805,-2.4785,-2.4746,-2.452,-2.4575,-2.4878,-2.4937,-2.4888,-2.4648,-2.4414,-2.4424,-2.4551,-2.7757,-2.7757,-2.7757,-2.7757,-2.7757,-2.7757,-2.7757,-2.7757,-2.7757,-2.7746,-2.7662,-2.703,-2.638,-2.5917,-2.5732,-2.5732,-2.5732,-2.5732,-2.5732,-2.5732,-2.5732,-2.5732,-2.5732,-2.5732,-2.5732,-2.5732,-2.5732,-2.5732,-2.5732,-2.5732,-2.5732,-2.5732,-2.5732,-2.5732,-2.5732,-2.5732,-2.5732,-2.5732,-2.5732,-2.5732,-2.5732,-2.5732,-2.5732,-2.5713,-2.5312,-2.501,-2.4687,-2.4111,-2.375,-2.3467,-2.331,-2.3144,-2.3144,-2.3144,-2.3144,-2.3144,-2.3144,-2.3144,-2.3144,-2.3144,-2.3144,-2.3144,-2.3144,-2.3144,-2.3144,-2.3144,-2.3144,-2.3144,-2.3144,-2.3144,-2.3144,-2.3144,-2.3144,-2.3144,-2.3144,-2.3144,-2.3144,-2.3144,-2.3144,-2.3144,-2.3144,-2.3144,-2.3144,-2.3144,-2.3144,-2.3144,-2.3154,-2.3174,-2.3291,-2.3437,-2.3496,-2.3574,-2.3848,-2.4131,-2.416,-2.4238,-2.4473,-2.4678,-2.4785,-2.4893,-2.5156,-2.5283,-2.5225,-2.5273,-2.5332,-2.5264,-2.5137,-2.5137,-2.5251,-2.5385,-2.5425,-2.5183,-2.4961,-2.5117,-2.5156,-3.0045,-3.0226,-2.9681,-2.9396,-2.9396,-2.9396,-2.9304,-2.9407,-2.9304,-2.9131,-2.8773,-2.7955,-2.704,-2.639,-2.6197,-2.61,-2.5732,-2.5732,-2.5732,-2.5732,-2.5732,-2.5732,-2.5732,-2.5732,-2.5732,-2.5732,-2.5732,-2.5732,-2.5732,-2.5732,-2.5732,-2.5732,-2.5732,-2.5732,-2.5732,-2.5732,-2.5732,-2.5732,-2.5732,-2.5732,-2.5732,-2.5732,-2.5732,-2.5635,-2.543,-2.5185,-2.4971,-2.4551,-2.416,-2.3887,-2.3555,-2.3369,-2.3359,-2.3223,-2.3154,-2.3144,-2.3144,-2.3144,-2.3144,-2.3144,-2.3144,-2.3144,-2.3144,-2.3144,-2.3144,-2.3144,-2.3144,-2.3144,-2.3144,-2.3144,-2.3144,-2.3144,-2.3144,-2.3144,-2.3144,-2.3144,-2.3144,-2.3144,-2.3144,-2.3144,-2.3144,-2.3144,-2.3144,-2.3144,-2.3144,-2.3144,-2.3164,-2.3213,-2.3437,-2.3691,-2.3848,-2.3965,-2.4287,-2.457,-2.4609,-2.4687,-2.4902,-2.5029,-2.5146,-2.5264,-2.5459,-2.5576,-2.5566,-2.5664,-2.5732,-2.5644,-2.543,-2.5586,-2.5723,-2.5586,-2.5594,-2.5605,-2.5635,-2.5732,-2.5664,-3.1777,-3.2612,-3.0418,-2.9498,-2.9487,-2.9407,-2.9487,-2.9772,-2.9579,-2.8958,-2.8132,-2.7673,-2.7589,-2.722,-2.6945,-2.6476,-2.5732,-2.5732,-2.5732,-2.5732,-2.5732,-2.5732,-2.5732,-2.5732,-2.5732,-2.5732,-2.5732,-2.5732,-2.5732,-2.5732,-2.5732,-2.5732,-2.5732,-2.5732,-2.5732,-2.5732,-2.5732,-2.5732,-2.5732,-2.5732,-2.5732,-2.5732,-2.5732,-2.5732,-2.5664,-2.5508,-2.5107,-2.4912,-2.4707,-2.4375,-2.3975,-2.3672,-2.3594,-2.3389,-2.3262,-2.3154,-2.3144,-2.3144,-2.3144,-2.3144,-2.3144,-2.3144,-2.3144,-2.3144,-2.3144,-2.3144,-2.3144,-2.3144,-2.3144,-2.3144,-2.3144,-2.3144,-2.3144,-2.3144,-2.3144,-2.3144,-2.3144,-2.3144,-2.3144,-2.3144,-2.3154,-2.3174,-2.3301,-2.333,-2.334,-2.335,-2.3525,-2.3584,-2.3828,-2.4082,-2.4268,-2.4463,-2.4785,-2.5,-2.5068,-2.5195,-2.5332,-2.5391,-2.5459,-2.5547,-2.5654,-2.5732,-2.5732,-2.5732,-2.5732,-2.5732,-2.5732,-2.5732,-2.5732,-2.5732,-2.5732,-2.5732,-2.5732,-2.5732,-2.5732,-3.2612,-3.2982,-3.2064,-3.1689,-3.1689,-3.1689,-3.1689,-3.1689,-3.1689,-3.0508,-2.8773,-2.868,-2.7861,-2.6839,-2.638,-2.6197,-2.5732,-2.5732,-2.5732,-2.5732,-2.5732,-2.5732,-2.5732,-2.5732,-2.5732,-2.5732,-2.5732,-2.5732,-2.5732,-2.5732,-2.5732,-2.5732,-2.5732,-2.5732,-2.5732,-2.5732,-2.5732,-2.5732,-2.5732,-2.5732,-2.5732,-2.5732,-2.5732,-2.5732,-2.5732,-2.5664,-2.5469,-2.5195,-2.5,-2.4756,-2.4394,-2.4121,-2.3887,-2.3652,-2.3447,-2.3242,-2.3213,-2.3193,-2.3184,-2.3174,-2.3144,-2.3144,-2.3144,-2.3144,-2.3144,-2.3144,-2.3144,-2.3144,-2.3144,-2.3144,-2.3144,-2.3144,-2.3144,-2.3144,-2.3144,-2.3144,-2.3164,-2.3174,-2.3232,-2.3271,-2.3262,-2.3252,-2.3408,-2.3574,-2.3564,-2.3584,-2.3779,-2.3994,-2.4238,-2.4502,-2.4707,-2.4863,-2.5156,-2.5332,-2.541,-2.5566,-2.5732,-2.5732,-2.5732,-2.5732,-2.5732,-2.5732,-2.5732,-2.5732,-2.5732,-2.5732,-2.5732,-2.5732,-2.5732,-2.5732,-2.5732,-2.5732,-2.5732,-2.5732,-2.5732,-3.3081,-3.3081,-3.3081,-3.3081,-3.3081,-3.3081,-3.3081,-3.3081,-3.3081,-3.2251,-3.0496,-3.0045,-2.8855,-2.72,-2.6839,-2.6294,-2.5917,-2.5732,-2.5732,-2.5732,-2.5732,-2.5732,-2.5732,-2.5732,-2.5732,-2.5732,-2.5732,-2.5732,-2.5732,-2.5732,-2.5732,-2.5732,-2.5732,-2.5732,-2.5732,-2.5732,-2.5732,-2.5732,-2.5732,-2.5732,-2.5732,-2.5732,-2.5732,-2.5732,-2.5732,-2.5723,-2.5635,-2.5449,-2.5332,-2.5146,-2.4873,-2.4502,-2.4248,-2.4023,-2.3809,-2.3594,-2.3408,-2.3379,-2.3447,-2.3242,-2.3164,-2.3144,-2.3144,-2.3144,-2.3144,-2.3144,-2.3144,-2.3144,-2.3144,-2.3154,-2.3164,-2.3144,-2.3144,-2.3144,-2.3144,-2.3144,-2.3232,-2.3271,-2.3359,-2.3418,-2.3496,-2.3711,-2.3887,-2.4092,-2.4102,-2.4141,-2.4316,-2.4492,-2.4639,-2.4912,-2.5195,-2.5332,-2.5469,-2.5605,-2.5723,-2.5732,-2.5732,-2.5732,-2.5732,-2.5732,-2.5732,-2.5732,-2.5732,-2.5732,-2.5732,-2.5732,-2.5732,-2.5732,-2.5732,-2.5732,-2.5732,-2.5732,-2.5732,-2.5732,-2.5732,-3.3081,-3.3081,-3.3081,-3.3081,-3.3081,-3.3081,-3.3081,-3.3081,-3.3081,-3.2896,-3.2339,-3.1412,-3.0226,-2.9039,-2.8402,-2.7389,-2.5917,-2.5732,-2.5732,-2.5732,-2.5732,-2.5732,-2.5732,-2.5732,-2.5732,-2.5732,-2.5732,-2.5732,-2.5732,-2.5732,-2.5732,-2.5732,-2.5732,-2.5732,-2.5732,-2.5732,-2.5732,-2.5732,-2.5732,-2.5732,-2.5732,-2.5732,-2.5732,-2.5732,-2.5732,-2.5732,-2.5693,-2.5664,-2.5576,-2.5518,-2.5264,-2.499,-2.4844,-2.4551,-2.4355,-2.4248,-2.3935,-2.3975,-2.4258,-2.3574,-2.334,-2.334,-2.3437,-2.3379,-2.3252,-2.3223,-2.331,-2.3467,-2.335,-2.3281,-2.3213,-2.3223,-2.3291,-2.333,-2.3369,-2.3408,-2.3525,-2.3594,-2.3711,-2.366,-2.4082,-2.4394,-2.4531,-2.4658,-2.4687,-2.4756,-2.4883,-2.5,-2.5183,-2.5234,-2.5498,-2.5566,-2.5548,-2.5674,-2.5732,-2.5732,-2.5732,-2.5732,-2.5732,-2.5732,-2.5732,-2.5732,-2.5732,-2.5732,-2.5732,-2.5732,-2.5732,-2.5732,-2.5732,-2.5732,-2.5732,-2.5732,-2.5732,-2.5732,-2.5732,-3.3081,-3.3081,-3.3081,-3.3081,-3.3081,-3.3081,-3.3081,-3.3081,-3.3081,-3.2612,-3.1877,-3.1311,-3.0045,-2.8773,-2.8226,-2.74,-2.6004,-2.5732,-2.5732,-2.5732,-2.5732,-2.5732,-2.5732,-2.5732,-2.5732,-2.5732,-2.5732,-2.5732,-2.5732,-2.5732,-2.5732,-2.5732,-2.5732,-2.5732,-2.5732,-2.5732,-2.5732,-2.5732,-2.5732,-2.5732,-2.5732,-2.5732,-2.5732,-2.5732,-2.5732,-2.5732,-2.5732,-2.5732,-2.5732,-2.5732,-2.5478,-2.5361,-2.5176,-2.4863,-2.4736,-2.4541,-2.4228,-2.4258,-2.4375,-2.4082,-2.4014,-2.3984,-2.3916,-2.3906,-2.3975,-2.3984,-2.3994,-2.3945,-2.3867,-2.3887,-2.4004,-2.4004,-2.4043,-2.4053,-2.4072,-2.4072,-2.4121,-2.415,-2.4199,-2.4078,-2.4181,-2.4668,-2.4873,-2.5436,-2.5506,-2.565,-2.5854,-2.5648,-2.5727,-2.5604,-2.5674,-2.5674,-2.5703,-2.5713,-2.5732,-2.5732,-2.5732,-2.5732,-2.5732,-2.5732,-2.5732,-2.5732,-2.5732,-2.5732,-2.5732,-2.5732,-2.5732,-2.5732,-2.5732,-2.5732,-2.5732,-2.5732,-2.5732,-2.5732,-2.5732,-3.3081,-3.3081,-3.3081,-3.3081,-3.3081,-3.3081,-3.3081,-3.3081,-3.3081,-3.2612,-3.2052,-3.1877,-3.0598,-2.8866,-2.8132,-2.7125,-2.582,-2.5732,-2.5732,-2.5732,-2.5732,-2.5732,-2.5732,-2.5732,-2.5732,-2.5732,-2.5732,-2.5732,-2.5732,-2.5732,-2.5732,-2.5732,-2.5732,-2.5732,-2.5732,-2.5732,-2.5732,-2.5732,-2.5732,-2.5732,-2.5732,-2.5732,-2.5732,-2.5732,-2.5732,-2.5732,-2.5732,-2.5732,-2.5732,-2.5732,-2.5684,-2.5596,-2.5361,-2.5244,-2.5146,-2.4951,-2.4873,-2.4814,-2.4697,-2.4873,-2.4853,-2.4873,-2.4648,-2.4443,-2.4424,-2.4326,-2.4336,-2.4355,-2.4453,-2.4443,-2.4443,-2.4473,-2.4492,-2.4482,-2.4473,-2.4453,-2.4473,-2.4482,-2.4639,-2.4516,-2.4578,-2.5019,-2.5366,-2.6059,-2.6506,-2.6652,-2.6713,-2.6562,-2.6466,-2.638,-2.6147,-2.5905,-2.5809,-2.5702,-2.5654,-2.5732,-2.5732,-2.5732,-2.5732,-2.5732,-2.5732,-2.5732,-2.5732,-2.5732,-2.5732,-2.5732,-2.5732,-2.5732,-2.5732,-2.5732,-2.5732,-2.5732,-2.5732,-2.5732,-2.5732,-3.3081,-3.3081,-3.3081,-3.3081,-3.3081,-3.3081,-3.3081,-3.3081,-3.3081,-3.3068,-3.3081,-3.2896,-3.1512,-2.967,-2.9304,-2.7934,-2.61,-2.5732,-2.5732,-2.5732,-2.5732,-2.5732,-2.5732,-2.5732,-2.5732,-2.5732,-2.5732,-2.5732,-2.5732,-2.5732,-2.5732,-2.5732,-2.5732,-2.5732,-2.5732,-2.5732,-2.5732,-2.5732,-2.5732,-2.5732,-2.5732,-2.5732,-2.5732,-2.5732,-2.5732,-2.5732,-2.5732,-2.5732,-2.5732,-2.5732,-2.5723,-2.5723,-2.5703,-2.5723,-2.5732,-2.5703,-2.5644,-2.5391,-2.5215,-2.542,-2.5518,-2.54,-2.4951,-2.4629,-2.458,-2.4707,-2.4756,-2.4727,-2.4746,-2.4639,-2.457,-2.4609,-2.4648,-2.4648,-2.4639,-2.4648,-2.4678,-2.4795,-2.4905,-2.5061,-2.5285,-2.5643,-2.6104,-2.6648,-2.74,-2.7757,-2.8028,-2.8308,-2.8121,-2.7673,-2.7306,-2.6344,-2.6079,-2.5727,-2.572,-2.579,-2.5732,-2.5732,-2.5732,-2.5732,-2.5732,-2.5732,-2.5732,-2.5732,-2.5732,-2.5732,-2.5732,-2.5732,-2.5732,-2.5732,-2.5732,-2.5732,-2.5732,-2.5732,-2.5732,-3.3081,-3.3081,-3.3081,-3.3081,-3.3081,-3.3081,-3.3081,-3.3081,-3.3081,-3.3081,-3.3081,-3.3081,-3.1689,-2.9498,-2.9396,-2.7851,-2.6562,-2.5732,-2.5732,-2.5732,-2.5732,-2.5732,-2.5732,-2.5732,-2.5732,-2.5732,-2.5732,-2.5732,-2.5732,-2.5732,-2.5732,-2.5732,-2.5732,-2.5732,-2.5732,-2.5732,-2.5732,-2.5732,-2.5732,-2.5732,-2.5732,-2.5732,-2.5732,-2.5732,-2.5732,-2.5732,-2.5732,-2.5732,-2.5732,-2.5732,-2.5732,-2.5732,-2.5732,-2.5732,-2.5732,-2.5732,-2.5703,-2.5654,-2.5586,-2.5654,-2.5732,-2.5732,-2.542,-2.5439,-2.5371,-2.5273,-2.5254,-2.5176,-2.5156,-2.5117,-2.5107,-2.5117,-2.5127,-2.5117,-2.5117,-2.5127,-2.5156,-2.5215,-2.541,-2.5469,-2.5713,-2.639,-2.688,-2.7484,-2.8215,-2.8762,-2.9223,-2.9681,-2.9681,-2.9223,-2.8734,-2.7757,-2.6858,-2.6535,-2.6104,-2.5994,-2.582,-2.5732,-2.5917,-2.6004,-2.61,-2.61,-2.582,-2.58,-2.5945,-2.5877,-2.5732,-2.5732,-2.5732,-2.5732,-2.5732,-2.5732,-2.5732,-2.5732,-2.5732,-3.3081,-3.3081,-3.3081,-3.3081,-3.3081,-3.3081,-3.3081,-3.3081,-3.3081,-3.3081,-3.3081,-3.3081,-3.1965,-3.0316,-2.959,-2.8308,-2.6658,-2.5917,-2.5732,-2.5732,-2.5732,-2.5732,-2.5732,-2.5732,-2.5732,-2.5732,-2.5732,-2.5732,-2.5732,-2.5732,-2.5732,-2.5732,-2.5732,-2.5732,-2.5732,-2.5732,-2.5732,-2.5732,-2.5732,-2.5732,-2.5732,-2.5732,-2.5732,-2.5732,-2.5732,-2.5732,-2.5732,-2.5732,-2.5732,-2.5732,-2.5732,-2.5732,-2.5732,-2.5732,-2.5732,-2.5732,-2.5732,-2.5723,-2.5693,-2.5703,-2.5732,-2.5732,-2.5732,-2.5703,-2.5684,-2.5596,-2.5615,-2.5605,-2.5654,-2.5693,-2.5703,-2.5723,-2.5703,-2.5693,-2.5693,-2.5693,-2.5703,-2.5693,-2.5723,-2.583,-2.6344,-2.7133,-2.7768,-2.8434,-2.9223,-3.0045,-3.0777,-3.1424,-3.1235,-3.0598,-3.0244,-2.9532,-2.8462,-2.7547,-2.7066,-2.6819,-2.7115,-2.7125,-2.6839,-2.6935,-2.6839,-2.6839,-2.6935,-2.6683,-2.6421,-2.6134,-2.5836,-2.5693,-2.5732,-2.5732,-2.5732,-2.5732,-2.5732,-2.5732,-2.5732,-3.3081,-3.3081,-3.3081,-3.3081,-3.3081,-3.3081,-3.3081,-3.3081,-3.3081,-3.3081,-3.3081,-3.3081,-3.2251,-3.0586,-2.9681,-2.8484,-2.703,-2.6014,-2.5732,-2.5732,-2.5732,-2.5732,-2.5732,-2.5732,-2.5732,-2.5732,-2.5732,-2.5732,-2.5732,-2.5732,-2.5732,-2.5732,-2.5732,-2.5732,-2.5732,-2.5732,-2.5732,-2.5732,-2.5732,-2.5732,-2.5732,-2.5732,-2.5732,-2.5732,-2.5732,-2.5732,-2.5732,-2.5732,-2.5732,-2.5732,-2.5732,-2.5732,-2.5732,-2.5732,-2.5732,-2.5732,-2.5732,-2.5732,-2.5732,-2.5732,-2.5732,-2.5732,-2.5732,-2.5732,-2.5732,-2.5732,-2.5732,-2.5732,-2.5732,-2.5732,-2.5732,-2.5732,-2.5732,-2.5732,-2.5732,-2.5732,-2.5732,-2.5781,-2.5991,-2.6426,-2.7578,-2.825,-2.8921,-2.9579,-3.0406,-3.1323,-3.1877,-3.2612,-3.2438,-3.1789,-3.1368,-3.0966,-3.0465,-2.9376,-2.8624,-2.8533,-2.8969,-2.8795,-2.8226,-2.8038,-2.8121,-2.8132,-2.8132,-2.7913,-2.7683,-2.6513,-2.6009,-2.6124,-2.611,-2.5732,-2.5732,-2.5732,-2.5732,-2.583,-2.5732,-3.3081,-3.3081,-3.3081,-3.3081,-3.3081,-3.3081,-3.3081,-3.3081,-3.3081,-3.3081,-3.3081,-3.2982,-3.1965,-3.0226,-2.9681,-2.8402,-2.6562,-2.6014,-2.5732,-2.5732,-2.5732,-2.5732,-2.5732,-2.5732,-2.5732,-2.5732,-2.5732,-2.5732,-2.5732,-2.5732,-2.5732,-2.5732,-2.5732,-2.5732,-2.5732,-2.5732,-2.5732,-2.5732,-2.5732,-2.5732,-2.5732,-2.5732,-2.5732,-2.5732,-2.5732,-2.5732,-2.5732,-2.5732,-2.5732,-2.5732,-2.5732,-2.5732,-2.5732,-2.5732,-2.5732,-2.5732,-2.5732,-2.5732,-2.5732,-2.5732,-2.5732,-2.5732,-2.5732,-2.5732,-2.5732,-2.5732,-2.5732,-2.5732,-2.5732,-2.5732,-2.5732,-2.5732,-2.5732,-2.5732,-2.5732,-2.5732,-2.5723,-2.5991,-2.6245,-2.7296,-2.8581,-2.9416,-3.0181,-3.0777,-3.1601,-3.2152,-3.2612,-3.2982,-3.2982,-3.2525,-3.1965,-3.178,-3.232,-3.1598,-3.0668,-3.0089,-3.0351,-2.9988,-2.9315,-2.9315,-2.9498,-2.959,-2.9692,-2.9474,-2.9061,-2.8354,-2.766,-2.7212,-2.7061,-2.6147,-2.6004,-2.61,-2.61,-2.61,-2.5917,-3.3081,-3.3081,-3.3081,-3.3081,-3.3081,-3.3081,-3.3081,-3.3081,-3.3081,-3.3081,-3.3081,-3.2982,-3.1977,-3.0135,-2.9681,-2.8402,-2.6572,-2.5917,-2.5732,-2.5732,-2.5732,-2.5732,-2.5732,-2.5732,-2.5732,-2.5732,-2.5732,-2.5732,-2.5732,-2.5732,-2.5732,-2.5732,-2.5732,-2.5732,-2.5732,-2.5732,-2.5732,-2.5732,-2.5732,-2.5732,-2.5732,-2.5732,-2.5732,-2.5732,-2.5732,-2.5732,-2.5732,-2.5732,-2.5732,-2.5732,-2.5732,-2.5732,-2.5732,-2.5732,-2.5732,-2.5732,-2.5732,-2.5732,-2.5732,-2.5732,-2.5732,-2.5732,-2.5732,-2.5732,-2.5732,-2.5732,-2.5732,-2.5732,-2.5732,-2.5732,-2.5732,-2.5732,-2.5732,-2.5732,-2.583,-2.5917,-2.6491,-2.7024,-2.7577,-2.844,-2.9714,-3.0945,-3.1478,-3.1689,-3.2426,-3.2612,-3.3081,-3.3081,-3.3081,-3.3081,-3.2612,-3.2376,-3.2834,-3.2883,-3.2038,-3.1689,-3.1749,-3.1181,-3.0406,-3.0406,-3.0496,-3.0956,-3.1158,-3.1038,-3.0953,-3.0889,-3.0308,-2.9124,-2.7285,-2.6014,-2.623,-2.6658,-2.6658,-2.6849,-2.7115,-3.3081,-3.3081,-3.3081,-3.3081,-3.3081,-3.3081,-3.3081,-3.3081,-3.3081,-3.3081,-3.3081,-3.3081,-3.2239,-3.0956,-2.9954,-2.8588,-2.7305,-2.61,-2.5732,-2.5732,-2.5732,-2.5732,-2.5732,-2.5732,-2.5732,-2.5732,-2.5732,-2.5732,-2.5732,-2.5732,-2.5732,-2.5732,-2.5732,-2.5732,-2.5732,-2.5732,-2.5732,-2.5732,-2.5732,-2.5732,-2.5732,-2.5732,-2.5732,-2.5732,-2.5732,-2.5732,-2.5732,-2.5732,-2.5732,-2.5732,-2.5732,-2.5732,-2.5732,-2.5732,-2.5732,-2.5732,-2.5732,-2.5732,-2.5732,-2.5732,-2.5732,-2.5732,-2.5732,-2.5732,-2.5732,-2.5732,-2.5732,-2.5732,-2.5732,-2.5732,-2.5732,-2.5732,-2.5732,-2.6197,-2.6284,-2.6562,-2.7379,-2.8185,-2.8918,-2.967,-3.0804,-3.2168,-3.2448,-3.2723,-3.2884,-3.3081,-3.3081,-3.3081,-3.3081,-3.3081,-3.2896,-3.2797,-3.2922,-3.2971,-3.2884,-3.2723,-3.25,-3.2376,-3.1689,-3.1601,-3.1512,-3.1877,-3.2264,-3.2574,-3.2611,-3.2293,-3.1615,-3.0422,-2.8522,-2.6764,-2.7097,-2.7851,-2.7945,-2.8132,-2.8762,-3.3081,-3.3081,-3.3081,-3.3081,-3.3081,-3.3081,-3.3081,-3.3081,-3.3081,-3.3081,-3.3081,-3.2896,-3.1965,-2.9772,-2.9579,-2.8402,-2.6476,-2.5732,-2.5732,-2.5732,-2.5732,-2.5732,-2.5732,-2.5732,-2.5732,-2.5732,-2.5732,-2.5732,-2.5732,-2.5732,-2.5732,-2.5732,-2.5732,-2.5732,-2.5732,-2.5732,-2.5732,-2.5732,-2.5732,-2.5732,-2.5732,-2.5732,-2.5732,-2.5732,-2.5732,-2.5732,-2.5732,-2.5732,-2.5732,-2.5732,-2.5732,-2.5732,-2.5732,-2.5732,-2.5732,-2.5732,-2.5732,-2.5732,-2.5732,-2.5732,-2.5732,-2.5732,-2.5732,-2.5732,-2.5732,-2.5917,-2.582,-2.583,-2.583,-2.6004,-2.6004,-2.5917,-2.6014,-2.72,-2.7851,-2.8308,-2.8984,-2.9727,-3.0368,-3.1086,-3.1825,-3.2537,-3.2884,-3.2982,-3.2982,-3.3081,-3.3081,-3.3081,-3.3081,-3.3081,-3.3081,-3.3081,-3.3081,-3.3081,-3.3081,-3.2982,-3.2909,-3.2896,-3.2896,-3.2525,-3.2426,-3.2785,-3.3093,-3.3119,-3.3082,-3.2822,-3.2119,-3.1407,-3.0489,-2.9043,-2.887,-2.905,-2.9143,-2.9498,-3.0135]},{"header":{"parameterUnit":"m.s-1","parameterCategory":1,"la1":31.0,"la2":29.5877,"lo1":-88.7671,"lo2":-86.6584,"dy":0.0162,"dx":0.0185,"nx":115,"ny":88,"refTime":"2023-07-18T12:00:00:Z","depth":0,"parameterNumber":3,"parameterNumberName":"V-component_of_WINDS"},"data":[0.0,0.0,0.0,0.0,0.0,0.0,0.0,0.0,0.0,0.0,0.0,0.0,0.0,0.0,0.0,0.0,0.0,0.0,0.0,0.0,0.0,0.0,0.0,0.0,0.0,0.0,0.0,0.0,0.0,0.0,0.0,0.0,0.0,0.0,0.0,0.0,0.0,0.0,0.0,0.0,0.0,0.0,0.0,0.0,0.0,0.0,0.0,0.0,0.0,0.0,0.0,0.0,0.0,0.0,0.0,0.0,0.0,0.0,0.0,0.0,0.0,0.0,0.0,0.0,0.0,0.0,0.0,0.0,0.0,0.0,0.0,0.0,0.0,0.0,0.0,0.0,0.0,0.0,0.0,0.0,0.0,0.0,0.0,0.0,0.0,0.0,0.0,0.0,0.0,0.0,0.0,0.0,0.0,0.0,0.0,0.0,0.0,0.0,0.0,0.0,0.0,0.0,0.0,0.0,0.0,0.0,0.0,0.0,0.0,0.0,0.0,0.0,0.0,0.0,0.0,0.0,0.0,0.0,0.0,0.0,0.0,0.0,0.0,0.0,0.0,0.0,0.0,0.0,0.0,0.0,0.0,0.0,0.0,0.0,0.0,0.0,0.0,0.0,0.0,0.0,0.0,0.0,0.0,0.0,0.0,0.0,0.0,0.0,0.0,0.0,0.0,0.0,0.0,0.0,0.0,0.0,0.0,0.0,0.0,0.0,0.0,0.0,0.0,0.0,0.0,0.0,0.0,0.0,0.0,0.0,0.0,0.0,0.0,0.0,0.0,0.0,0.0,0.0,0.0,0.0,0.0,0.0,0.0,0.0,0.0,0.0,0.0,0.0,0.0,0.0,0.0,0.0,0.0,0.0,0.0,0.0,0.0,0.0,0.0,0.0,0.0,0.0,0.0,0.0,0.0,0.0,0.0,0.0,0.0,0.0,0.0,0.0,0.0,0.0,0.0,0.0,0.0,0.0,0.0,0.0,0.0,0.0,0.0,0.0,0.0,0.0,0.0,0.0,0.0,0.0,0.0,0.0,0.0,0.0,0.0,0.0,0.0,0.0,0.0,0.0,0.0,0.0,0.0,0.0,0.0,0.0,0.0,0.0,0.0,0.0,0.0,0.0,0.0,0.0,0.0,0.0,0.0,0.0,0.0,0.0,0.0,0.0,0.0,0.0,0.0,0.0,0.0,0.0,0.0,0.0,0.0,0.0,0.0,0.0,0.0,0.0,0.0,0.0,0.0,0.0,0.0,0.0,0.0,0.0,0.0,0.0,0.0,0.0,0.0,0.0,0.0,0.0,0.0,0.0,0.0,0.0,0.0,0.0,0.0,0.0,0.0,0.0,0.0,0.0,0.0,0.0,0.0,0.0,0.0,0.0,0.0,0.0,0.0,0.0,0.0,0.0,0.0,0.0,0.0,0.0,0.0,0.0,0.0,0.0,0.0,0.0,0.0,0.0,0.0,0.0,0.0,0.0,0.0,0.0,0.0,0.0,0.0,0.0,0.0,0.0,0.0,0.0,0.0,0.0,0.0,0.0,0.0,0.0,0.0,0.0,0.0,0.0,0.0,0.0,0.0,0.0,0.0,0.0,0.0,0.0,0.0,0.0,0.0,0.0,0.0,0.0,0.0,0.0,0.0,0.0,0.0,0.0,0.0,0.0,0.0,0.0,0.0,0.0,0.0,0.0,0.0,0.0,0.0,0.0,0.0,0.0,0.0,0.0,0.0,0.0,0.0,0.0,0.0,0.0,0.0,0.0,0.0,0.0,0.0,0.0,0.0,0.0,0.0,0.0,0.0,0.0,0.0,0.0,0.0,0.0,0.0,0.0,0.0,0.0,0.0,0.0,0.0,0.0,0.0,0.0,0.0,0.0,0.0,0.0,0.0,0.0,0.0,0.0,0.0,0.0,0.0,0.0,0.0,0.0,0.0,0.0,0.0,0.0,0.0,0.0,0.0,0.0,0.0,0.0,0.0,0.0,0.0,0.0,0.0,0.0,0.0,0.0,0.0,0.0,0.0,0.0,0.0,0.0,0.0,0.0,0.0,0.0,0.0,0.0,0.0,0.0,0.0,0.0,0.0,0.0,0.0,0.0,0.0,0.0,0.0,0.0,0.0,0.0,0.0,0.0,0.0,0.0,0.0,0.0,0.0,0.0,0.0,0.0,0.0,0.0,0.0,0.0,0.0,0.0,0.0,0.0,0.0,0.0,0.0,0.0,0.0,0.0,0.0,0.0,0.0,0.0,0.0,0.0,0.0,0.0,0.0,0.0,0.0,0.0,0.0,0.0,0.0,0.0,0.0,0.0,0.0,0.0,0.0,0.0,0.0,0.0,0.0,0.0,0.0,0.0,0.0,0.0,0.0,0.0,0.0,0.0,0.0,0.0,0.0,0.0,0.0,0.0,0.0,0.0,0.0,0.0,0.0,0.0,0.0,0.0,0.0,0.0,0.0,0.0,0.0,0.0,0.0,0.0,0.0,0.0,0.0,0.0,0.0,0.0,0.0,0.0,0.0,0.0,0.0,0.0,0.0,0.0,0.0,0.0,0.0,0.0,0.0,0.0,0.0,0.0,0.0,0.0,0.0,0.0,0.0,0.0,0.0,0.0,0.0,0.0,0.0,0.0,0.0,0.0,0.0,0.0,0.0,0.0,0.0,0.0,0.0,0.0,0.0,0.0,0.0,0.0,0.0,0.0,0.0,0.0,0.0,0.0,0.0,0.0,0.0,0.0,0.0,0.0,0.0,0.0,0.0,0.0,0.0,0.0,0.0,0.0,0.0,0.0,0.0,0.0,0.0,0.0,0.0,0.0,0.0,0.0,0.0,0.0,0.0,0.0,0.0,0.0,0.0,0.0,0.0,0.0,0.0,0.0,0.0,0.0,0.0,0.0,0.0,0.0,0.0,0.0,0.0,0.0,0.0,0.0,0.0,0.0,0.0,0.0,0.0,0.0,0.0,0.0,0.0,0.0,0.0,0.0,0.0,0.0,0.0,0.0,0.0,0.0,0.0,0.0,0.0,0.0,0.0,0.0,0.0,0.0,0.0,0.0,0.0,0.0,0.0,0.0,0.0,0.0,0.0,0.0,0.0,0.0,0.0,0.0,0.0,0.0,0.0,0.0,0.0,0.0,0.0,0.0,0.0,0.0,0.0,0.0,0.0,0.0,0.0,0.0,0.0,0.0,0.0,0.0,0.0,0.0,0.0,0.0,0.0,0.0,0.0,0.0,0.0,0.0,0.0,0.0,0.0,0.0,0.0,0.0,0.0,0.0,0.0,0.0,0.0,0.0,0.0,0.0,0.0,0.0,0.0,0.0,0.0,0.0,0.0,0.0,0.0,0.0,0.0,0.0,0.0,0.0,0.0,0.0,0.0,0.0,0.0,0.0,0.0,0.0,0.0,0.0,0.0,0.0,0.0,0.0,0.0,0.0,0.0,0.0,0.0,0.0,0.0,0.0,0.0,0.0,0.0,0.0,0.0,0.0,0.0,0.0,0.0,0.0,0.0,0.0,0.0,0.0,0.0,0.0,0.0,0.0,0.0,0.0,0.0,0.0,0.0,0.0,0.0,0.0,0.0,0.0,0.0,0.0,0.0,0.0,0.0,0.0,0.0,0.0,0.0,0.0,0.0,0.0,0.0,0.0,0.0,0.0,0.0,0.0,0.0,0.0,0.0,0.0,0.0,0.0,0.0,0.0,0.0,0.0,0.0,0.0,0.0,0.0,0.0,0.0,0.0,0.0,0.0,0.0,0.0,0.0,0.0,0.0,0.0,0.0,0.0,0.0,0.0,0.0,0.0,0.0,0.0,0.0,0.0,0.0,0.0,0.0,0.0,0.0,0.0,0.0,0.0,0.0,0.0,0.0,0.0,0.0,0.0,0.0,0.0,0.0,0.0,0.0,0.0,0.0,0.0,0.0,0.0,0.0,0.0,0.0,0.0,0.0,0.0,0.0,0.0,0.0,0.0,0.0,0.0,0.0,0.0,0.0,0.0,0.0,0.0,0.0,0.0,0.0,0.0,0.0,0.0,0.0,0.0,0.0,0.0,0.0,0.0,0.0,0.0,0.0,0.0,0.0,0.0,0.0,0.0,0.0,0.0,0.0,0.0,0.0,0.0,0.0,0.0,0.0,0.0,0.0,0.0,0.0,0.0,0.0,0.0,0.0,0.0,0.0,0.0,0.0,0.0,0.0,0.0,0.0,0.0,0.0,0.0,0.0,0.0,0.0,0.0,0.0,0.0,0.0,0.0,0.0,0.0,0.0,0.0,0.0,0.0,0.0,-0.9677,0.0,0.0,0.0,0.0,0.0,0.0,0.0,0.0,0.0,0.0,0.0,0.0,0.0,0.0,0.0,0.0,0.0,0.0,0.0,0.0,0.0,0.0,0.0,0.0,0.0,0.0,0.0,0.0,0.0,0.0,0.0,0.0,0.0,0.0,0.0,0.0,0.0,0.0,0.0,0.0,0.0,0.0,0.0,0.0,0.0,0.0,0.0,0.0,0.0,0.0,0.0,0.0,0.0,0.0,0.0,0.0,0.0,0.0,0.0,0.0,0.0,0.0,0.0,0.0,0.0,0.0,0.0,0.0,0.0,0.0,0.0,0.0,0.0,0.0,0.0,0.0,0.0,0.0,0.0,0.0,0.0,0.0,0.0,0.0,0.0,0.0,0.0,0.0,0.0,0.0,0.0,0.0,0.0,0.0,0.0,0.0,0.0,0.0,0.0,0.0,0.0,0.0,0.0,0.0,0.0,0.0,0.0,0.0,0.0,0.0,-1.1921,-1.0198,-1.3503,-1.359,-0.9939,0.0,0.0,0.0,0.0,0.0,0.0,0.0,0.0,0.0,0.0,0.0,0.0,0.0,0.0,0.0,0.0,0.0,0.0,0.0,0.0,0.0,0.0,0.0,0.0,0.0,0.0,0.0,0.0,0.0,0.0,0.0,0.0,0.0,0.0,0.0,0.0,0.0,0.0,0.0,0.0,0.0,0.0,0.0,0.0,0.0,0.0,0.0,0.0,0.0,0.0,0.0,0.0,0.0,0.0,0.0,0.0,0.0,0.0,0.0,0.0,0.0,0.0,0.0,0.0,0.0,0.0,0.0,0.0,0.0,0.0,0.0,0.0,0.0,0.0,0.0,0.0,0.0,0.0,0.0,0.0,0.0,0.0,0.0,0.0,0.0,0.0,0.0,0.0,0.0,0.0,0.0,0.0,0.0,0.0,0.0,0.0,0.0,0.0,0.0,0.0,0.0,0.0,0.0,0.0,0.0,0.0,0.0,0.0,0.0,0.0,0.0,0.0,-1.3946,-1.3991,-1.0952,0.0,0.0,0.0,0.0,0.0,0.0,0.0,0.0,0.0,0.0,0.0,0.0,0.0,0.0,0.0,0.0,0.0,0.0,0.0,0.0,0.0,0.0,0.0,0.0,0.0,0.0,0.0,0.0,0.0,0.0,0.0,0.0,0.0,0.0,0.0,0.0,0.0,0.0,0.0,0.0,0.0,0.0,0.0,0.0,0.0,0.0,0.0,0.0,0.0,0.0,0.0,0.0,0.0,0.0,0.0,0.0,0.0,0.0,0.0,0.0,0.0,0.0,0.0,0.0,0.0,0.0,0.0,0.0,0.0,0.0,0.0,0.0,0.0,0.0,0.0,0.0,0.0,0.0,0.0,0.0,0.0,0.0,0.0,0.0,0.0,0.0,0.0,0.0,0.0,0.0,0.0,0.0,0.0,0.0,0.0,0.0,0.0,0.0,0.0,0.0,0.0,0.0,0.0,0.0,0.0,0.0,0.0,0.0,0.0,0.0,-1.2932,-1.4336,-1.4366,0.0,-1.3415,0.0,0.0,0.0,0.0,0.0,0.0,0.0,0.0,0.0,0.0,0.0,0.0,0.0,0.0,0.0,0.0,0.0,0.0,0.0,0.0,0.0,0.0,0.0,0.0,0.0,0.0,0.0,0.0,0.0,0.0,0.0,0.0,0.0,0.0,0.0,0.0,0.0,0.0,0.0,0.0,0.0,0.0,0.0,0.0,0.0,0.0,0.0,0.0,0.0,0.0,0.0,0.0,0.0,0.0,0.0,0.0,0.0,0.0,0.0,0.0,0.0,0.0,0.0,0.0,0.0,0.0,0.0,0.0,0.0,0.0,0.0,0.0,0.0,0.0,0.0,0.0,0.0,0.0,0.0,0.0,0.0,0.0,0.0,0.0,0.0,0.0,0.0,0.0,0.0,0.0,0.0,0.0,0.0,0.0,0.0,0.0,0.0,0.0,0.0,0.0,0.0,0.0,0.0,0.0,0.0,0.0,0.0,0.0,0.0,0.0,-1.3115,-1.4983,-1.4574,-1.3868,0.0,0.0,0.0,0.0,0.0,0.0,0.0,0.0,0.0,0.0,0.0,0.0,0.0,0.0,0.0,0.0,0.0,0.0,0.0,0.0,0.0,0.0,0.0,0.0,0.0,0.0,0.0,0.0,0.0,0.0,0.0,0.0,0.0,0.0,0.0,0.0,0.0,0.0,0.0,0.0,0.0,0.0,0.0,0.0,0.0,0.0,0.0,0.0,0.0,0.0,0.0,0.0,0.0,0.0,0.0,0.0,0.0,0.0,0.0,0.0,0.0,0.0,0.0,0.0,0.0,0.0,0.0,0.0,0.0,0.0,0.0,0.0,0.0,0.0,0.0,0.0,0.0,0.0,0.0,0.0,0.0,0.0,0.0,0.0,0.0,0.0,0.0,0.0,0.0,0.0,0.0,0.0,0.0,0.0,0.0,0.0,0.0,0.0,0.0,0.0,0.0,0.0,0.0,0.0,0.0,0.0,0.0,0.0,0.0,0.0,-1.3205,-1.3727,-1.5379,-1.4467,-1.3587,-1.2869,0.0,0.0,0.0,0.0,0.0,0.0,0.0,0.0,0.0,0.0,0.0,0.0,0.0,0.0,0.0,0.0,0.0,0.0,0.0,0.0,0.0,0.0,0.0,0.0,0.0,0.0,0.0,0.0,0.0,0.0,0.0,0.0,0.0,0.0,0.0,0.0,0.0,0.0,0.0,0.0,0.0,0.0,0.0,0.0,0.0,0.0,0.0,0.0,0.0,0.0,0.0,0.0,0.0,0.0,0.0,0.0,0.0,0.0,0.0,0.0,0.0,0.0,0.0,0.0,0.0,0.0,0.0,0.0,0.0,0.0,0.0,0.0,0.0,0.0,0.0,0.0,0.0,0.0,0.0,0.0,0.0,0.0,0.0,0.0,0.0,0.0,0.0,0.0,0.0,0.0,0.0,0.0,0.0,0.0,0.0,0.0,0.0,0.0,0.0,0.0,0.0,0.0,0.0,0.0,0.0,0.0,0.0,0.0,-1.6621,-1.5295,-1.5114,-1.6333,-1.403,-1.3254,0.0,0.0,0.0,0.0,0.0,0.0,0.0,0.0,0.0,0.0,0.0,0.0,0.0,0.0,0.0,0.0,0.0,0.0,0.0,0.0,0.0,0.0,0.0,0.0,0.0,0.0,0.0,0.0,0.0,0.0,0.0,0.0,0.0,0.0,0.0,0.0,0.0,0.0,0.0,0.0,0.0,0.0,0.0,0.0,0.0,0.0,0.0,0.0,0.0,0.0,0.0,0.0,0.0,0.0,0.0,0.0,0.0,0.0,0.0,0.0,0.0,0.0,0.0,0.0,0.0,0.0,0.0,0.0,0.0,0.0,0.0,0.0,0.0,0.0,0.0,0.0,0.0,0.0,0.0,0.0,0.0,0.0,0.0,0.0,0.0,0.0,0.0,0.0,0.0,0.0,0.0,0.0,0.0,0.0,0.0,0.0,0.0,0.0,0.0,0.0,0.0,0.0,0.0,0.0,0.0,0.0,0.0,0.0,0.0,-1.4197,-1.5786,-1.6408,-1.5951,-1.5742,-1.5447,0.0,0.0,0.0,0.0,0.0,0.0,0.0,0.0,0.0,0.0,0.0,0.0,0.0,0.0,0.0,0.0,0.0,0.0,0.0,0.0,0.0,0.0,0.0,0.0,0.0,0.0,0.0,0.0,0.0,0.0,0.0,0.0,0.0,0.0,0.0,0.0,0.0,0.0,0.0,0.0,0.0,0.0,0.0,0.0,0.0,0.0,0.0,0.0,0.0,0.0,0.0,0.0,0.0,0.0,0.0,0.0,0.0,0.0,0.0,0.0,0.0,0.0,0.0,0.0,0.0,0.0,0.0,0.0,0.0,0.0,0.0,0.0,0.0,0.0,0.0,0.0,0.0,0.0,0.0,0.0,0.0,0.0,0.0,0.0,0.0,0.0,0.0,0.0,0.0,0.0,0.0,0.0,0.0,0.0,0.0,0.0,0.0,0.0,0.0,0.0,0.0,0.0,0.0,0.0,0.0,0.0,0.0,0.0,0.0,-1.4826,0.0,-1.8435,-1.7612,-1.7452,-1.6957,0.0,0.0,0.0,0.0,0.0,0.0,0.0,0.0,0.0,0.0,0.0,0.0,0.0,0.0,0.0,0.0,0.0,0.0,0.0,0.0,0.0,0.0,0.0,0.0,0.0,0.0,0.0,0.0,0.0,0.0,0.0,0.0,0.0,0.0,0.0,0.0,0.0,0.0,0.0,0.0,0.0,0.0,0.0,0.0,0.0,0.0,0.0,0.0,0.0,0.0,0.0,0.0,0.0,0.0,0.0,0.0,0.0,0.0,0.0,0.0,0.0,0.0,0.0,0.0,0.0,0.0,0.0,0.0,0.0,0.0,0.0,0.0,0.0,0.0,0.0,0.0,0.0,0.0,0.0,0.0,0.0,0.0,0.0,0.0,0.0,0.0,0.0,0.0,0.0,0.0,0.0,0.0,0.0,0.0,0.0,0.0,0.0,0.0,0.0,0.0,0.0,0.0,0.0,0.0,0.0,0.0,0.0,0.0,-1.6249,-1.9176,-2.0446,-2.1157,-2.1483,-1.8899,-1.7582,0.0,0.0,0.0,0.0,0.0,0.0,0.0,0.0,0.0,0.0,0.0,0.0,0.0,0.0,0.0,0.0,0.0,0.0,0.0,0.0,0.0,0.0,0.0,0.0,0.0,0.0,0.0,0.0,0.0,0.0,0.0,0.0,0.0,0.0,0.0,0.0,0.0,0.0,0.0,0.0,0.0,0.0,0.0,0.0,0.0,0.0,0.0,0.0,0.0,0.0,0.0,0.0,0.0,0.0,0.0,0.0,0.0,0.0,0.0,0.0,0.0,0.0,0.0,0.0,0.0,0.0,0.0,0.0,0.0,0.0,0.0,0.0,0.0,0.0,0.0,0.0,0.0,0.0,0.0,0.0,0.0,0.0,0.0,0.0,0.0,0.0,0.0,0.0,0.0,0.0,0.0,0.0,0.0,0.0,0.0,0.0,0.0,0.0,0.0,0.0,0.0,0.0,0.0,0.0,0.0,0.0,0.0,0.0,0.0,-1.8112,-2.0572,-2.1974,-2.201,-2.0236,-1.9201,0.0,0.0,0.0,0.0,0.0,0.0,0.0,0.0,0.0,0.0,0.0,0.0,0.0,0.0,0.0,0.0,0.0,0.0,0.0,0.0,0.0,0.0,0.0,0.0,0.0,0.0,0.0,0.0,0.0,0.0,0.0,0.0,0.0,0.0,0.0,0.0,0.0,0.0,0.0,0.0,0.0,0.0,0.0,0.0,0.0,0.0,0.0,0.0,0.0,0.0,0.0,0.0,0.0,0.0,0.0,0.0,0.0,0.0,0.0,0.0,0.0,0.0,0.0,0.0,0.0,0.0,0.0,0.0,0.0,0.0,0.0,0.0,0.0,0.0,0.0,0.0,0.0,0.0,0.0,0.0,0.0,0.0,0.0,0.0,0.0,0.0,0.0,0.0,0.0,0.0,0.0,0.0,0.0,0.0,0.0,0.0,0.0,0.0,0.0,0.0,0.0,0.0,0.0,0.0,0.0,0.0,0.0,0.0,0.0,-2.0174,-2.2417,-2.3751,-2.3951,-2.1955,-2.0863,-2.0795,0.0,0.0,0.0,0.0,0.0,0.0,0.0,0.0,0.0,0.0,0.0,0.0,0.0,0.0,0.0,0.0,0.0,0.0,0.0,0.0,0.0,0.0,0.0,0.0,0.0,0.0,0.0,0.0,0.0,0.0,0.0,0.0,0.0,0.0,0.0,0.0,0.0,0.0,0.0,0.0,0.0,0.0,0.0,0.0,0.0,0.0,0.0,0.0,0.0,0.0,0.0,0.0,0.0,0.0,0.0,0.0,0.0,0.0,0.0,0.0,0.0,0.0,0.0,0.0,0.0,0.0,0.0,0.0,0.0,0.0,0.0,0.0,0.0,0.0,0.0,0.0,0.0,0.0,0.0,0.0,0.0,0.0,0.0,0.0,0.0,0.0,0.0,0.0,0.0,0.0,0.0,0.0,0.0,0.0,0.0,0.0,0.0,0.0,0.0,0.0,0.0,0.0,0.0,0.0,0.0,0.0,0.0,0.0,-2.4489,-2.5496,-2.6212,-2.659,-2.3816,-2.2327,0.0,0.0,0.0,0.0,0.0,0.0,0.0,0.0,0.0,0.0,0.0,0.0,0.0,0.0,0.0,0.0,0.0,0.0,0.0,0.0,0.0,0.0,0.0,0.0,0.0,0.0,0.0,0.0,0.0,0.0,0.0,0.0,0.0,0.0,0.0,0.0,0.0,0.0,0.0,0.0,0.0,0.0,0.0,0.0,0.0,0.0,0.0,0.0,0.0,0.0,0.0,0.0,0.0,0.0,0.0,0.0,0.0,0.0,0.0,0.0,0.0,0.0,0.0,0.0,0.0,0.0,0.0,0.0,0.0,0.0,0.0,0.0,0.0,0.0,0.0,0.0,0.0,0.0,0.0,0.0,0.0,0.0,0.0,0.0,0.0,0.0,0.0,0.0,0.0,0.0,0.0,0.0,0.0,0.0,0.0,0.0,0.0,0.0,0.0,0.0,0.0,0.0,0.0,0.0,0.0,0.0,0.0,0.0,0.0,-2.4458,-2.5815,-2.659,-2.664,-2.3833,-2.2327,0.0,0.0,0.0,0.0,0.0,0.0,0.0,0.0,0.0,0.0,0.0,0.0,0.0,0.0,0.0,0.0,0.0,0.0,0.0,0.0,0.0,0.0,0.0,0.0,0.0,0.0,0.0,0.0,0.0,0.0,0.0,0.0,0.0,0.0,0.0,0.0,0.0,0.0,0.0,0.0,0.0,0.0,0.0,0.0,0.0,0.0,0.0,0.0,0.0,0.0,0.0,0.0,0.0,0.0,0.0,0.0,0.0,0.0,0.0,0.0,0.0,0.0,0.0,0.0,0.0,0.0,0.0,0.0,0.0,0.0,0.0,0.0,0.0,0.0,0.0,0.0,0.0,0.0,0.0,0.0,0.0,0.0,0.0,0.0,0.0,0.0,0.0,0.0,0.0,0.0,0.0,0.0,0.0,0.0,0.0,0.0,0.0,0.0,0.0,0.0,0.0,0.0,0.0,0.0,0.0,0.0,0.0,0.0,-2.3325,-2.5355,-2.6251,-2.6708,-2.6691,-2.4441,-2.2936,0.0,0.0,0.0,0.0,0.0,0.0,0.0,0.0,0.0,0.0,0.0,0.0,0.0,0.0,0.0,0.0,0.0,0.0,0.0,0.0,0.0,0.0,0.0,0.0,0.0,0.0,0.0,0.0,0.0,0.0,0.0,0.0,0.0,0.0,0.0,0.0,0.0,0.0,0.0,0.0,0.0,0.0,0.0,0.0,0.0,0.0,0.0,0.0,0.0,0.0,0.0,0.0,0.0,0.0,0.0,0.0,0.0,0.0,0.0,0.0,0.0,0.0,0.0,0.0,0.0,0.0,0.0,0.0,0.0,0.0,0.0,0.0,0.0,0.0,0.0,0.0,0.0,0.0,0.0,0.0,0.0,0.0,0.0,0.0,0.0,0.0,0.0,0.0,0.0,0.0,0.0,0.0,0.0,0.0,0.0,0.0,0.0,0.0,0.0,0.0,0.0,0.0,0.0,0.0,0.0,0.0,0.0,0.0,-2.3731,-2.6623,-2.6708,-2.6708,-2.6657,-2.5302,-2.3799,0.0,0.0,0.0,0.0,0.0,0.0,0.0,0.0,0.0,0.0,0.0,0.0,0.0,0.0,0.0,0.0,0.0,0.0,0.0,0.0,0.0,0.0,0.0,0.0,0.0,0.0,0.0,0.0,0.0,0.0,0.0,0.0,0.0,0.0,0.0,0.0,0.0,0.0,0.0,0.0,0.0,0.0,0.0,0.0,0.0,0.0,0.0,0.0,0.0,0.0,0.0,0.0,0.0,0.0,0.0,0.0,0.0,0.0,0.0,0.0,0.0,0.0,0.0,0.0,0.0,0.0,0.0,0.0,0.0,0.0,0.0,0.0,0.0,0.0,0.0,0.0,0.0,0.0,0.0,0.0,0.0,0.0,0.0,0.0,0.0,0.0,0.0,0.0,0.0,0.0,0.0,0.0,0.0,0.0,0.0,0.0,0.0,0.0,0.0,0.0,0.0,0.0,0.0,0.0,0.0,0.0,0.0,0.0,-2.3748,-2.659,-2.6708,-2.6708,-2.6691,-2.5253,-2.3816,0.0,0.0,0.0,0.0,0.0,0.0,0.0,0.0,0.0,0.0,0.0,0.0,0.0,0.0,0.0,0.0,0.0,0.0,0.0,0.0,0.0,0.0,0.0,0.0,0.0,0.0,0.0,0.0,0.0,0.0,0.0,0.0,0.0,0.0,0.0,0.0,0.0,0.0,0.0,0.0,0.0,0.0,0.0,0.0,0.0,0.0,0.0,0.0,-2.1092,0.0,0.0,0.0,0.0,0.0,0.0,0.0,0.0,0.0,0.0,0.0,0.0,0.0,0.0,0.0,0.0,0.0,0.0,0.0,0.0,0.0,0.0,0.0,0.0,0.0,0.0,0.0,0.0,0.0,0.0,0.0,0.0,0.0,0.0,0.0,0.0,0.0,0.0,0.0,0.0,0.0,0.0,0.0,0.0,0.0,0.0,0.0,0.0,0.0,0.0,0.0,0.0,0.0,0.0,0.0,0.0,0.0,0.0,0.0,-2.4425,-2.6607,-2.6708,-2.6708,-2.6674,-2.593,-2.4526,0.0,0.0,0.0,0.0,0.0,0.0,0.0,0.0,0.0,0.0,0.0,0.0,0.0,0.0,0.0,0.0,0.0,0.0,0.0,0.0,0.0,0.0,0.0,0.0,0.0,0.0,0.0,0.0,0.0,0.0,0.0,0.0,0.0,0.0,0.0,0.0,0.0,0.0,0.0,0.0,0.0,0.0,0.0,0.0,0.0,0.0,0.0,0.0,0.0,0.0,0.0,0.0,0.0,0.0,0.0,0.0,0.0,0.0,0.0,0.0,0.0,0.0,0.0,0.0,0.0,0.0,0.0,0.0,0.0,0.0,0.0,0.0,0.0,0.0,0.0,0.0,0.0,0.0,0.0,0.0,0.0,0.0,0.0,0.0,0.0,0.0,0.0,0.0,0.0,0.0,0.0,0.0,0.0,0.0,0.0,0.0,0.0,0.0,0.0,0.0,0.0,0.0,0.0,0.0,0.0,0.0,0.0,-2.3528,-2.4983,-2.6623,-2.6708,-2.6708,-2.6708,-2.6708,-2.5304,-2.2462,0.0,0.0,0.0,0.0,0.0,0.0,0.0,0.0,0.0,0.0,0.0,0.0,0.0,0.0,0.0,0.0,0.0,0.0,0.0,0.0,0.0,0.0,0.0,0.0,0.0,0.0,0.0,0.0,0.0,0.0,0.0,0.0,0.0,0.0,0.0,0.0,0.0,0.0,-2.0021,-2.1288,0.0,0.0,0.0,0.0,0.0,0.0,0.0,0.0,-2.2293,0.0,0.0,0.0,0.0,0.0,0.0,0.0,0.0,0.0,0.0,0.0,0.0,0.0,0.0,0.0,0.0,0.0,0.0,0.0,0.0,0.0,0.0,0.0,0.0,0.0,0.0,0.0,0.0,0.0,0.0,0.0,0.0,0.0,0.0,0.0,0.0,0.0,0.0,0.0,0.0,0.0,0.0,0.0,0.0,0.0,0.0,0.0,0.0,0.0,0.0,0.0,0.0,0.0,0.0,0.0,0.0,-2.2276,-2.2547,-2.3968,-2.6623,-2.6708,-2.6708,-2.6708,-2.6708,-2.5321,-2.253,0.0,0.0,0.0,0.0,0.0,0.0,0.0,0.0,0.0,0.0,0.0,0.0,0.0,0.0,0.0,0.0,0.0,0.0,0.0,0.0,0.0,0.0,0.0,0.0,0.0,0.0,0.0,0.0,0.0,0.0,0.0,0.0,0.0,0.0,0.0,0.0,0.0,0.0,0.0,-2.3639,-2.3861,0.0,0.0,0.0,0.0,0.0,0.0,0.0,0.0,-2.2612,0.0,0.0,0.0,0.0,0.0,0.0,0.0,0.0,0.0,0.0,0.0,0.0,0.0,0.0,0.0,0.0,0.0,0.0,0.0,0.0,0.0,0.0,0.0,0.0,0.0,0.0,0.0,0.0,0.0,0.0,0.0,0.0,0.0,0.0,0.0,0.0,0.0,0.0,0.0,0.0,0.0,0.0,0.0,0.0,0.0,0.0,0.0,0.0,0.0,0.0,0.0,0.0,0.0,0.0,0.0,-2.3427,-2.4983,-2.6454,-2.7824,-2.7892,-2.7892,-2.7875,-2.7875,-2.6488,0.0,0.0,0.0,0.0,0.0,0.0,0.0,0.0,0.0,0.0,0.0,0.0,0.0,0.0,0.0,0.0,0.0,0.0,0.0,0.0,0.0,0.0,0.0,0.0,0.0,0.0,0.0,0.0,0.0,0.0,0.0,0.0,0.0,0.0,0.0,0.0,0.0,0.0,0.0,0.0,-2.4266,-2.4616,-2.5523,0.0,0.0,0.0,0.0,0.0,0.0,-2.2736,-2.2435,0.0,0.0,0.0,0.0,0.0,0.0,0.0,0.0,0.0,0.0,0.0,0.0,0.0,0.0,0.0,0.0,0.0,0.0,0.0,0.0,0.0,0.0,0.0,0.0,0.0,0.0,0.0,0.0,0.0,0.0,0.0,0.0,0.0,0.0,0.0,0.0,0.0,0.0,0.0,0.0,0.0,0.0,0.0,0.0,0.0,0.0,0.0,0.0,0.0,0.0,0.0,0.0,0.0,0.0,0.0,-2.456,-2.7182,-2.867,-2.8994,-2.9011,-2.9011,-2.9011,-2.9011,-2.7571,0.0,0.0,0.0,0.0,0.0,0.0,0.0,0.0,0.0,0.0,0.0,0.0,0.0,0.0,0.0,0.0,0.0,0.0,0.0,0.0,0.0,0.0,0.0,0.0,0.0,0.0,0.0,0.0,0.0,0.0,0.0,0.0,0.0,0.0,0.0,0.0,0.0,0.0,0.0,0.0,0.0,-2.5225,-2.6228,-2.5344,0.0,0.0,0.0,0.0,-2.331,-2.3281,0.0,0.0,0.0,0.0,0.0,0.0,0.0,0.0,0.0,0.0,0.0,0.0,0.0,0.0,0.0,0.0,0.0,0.0,0.0,0.0,0.0,0.0,0.0,0.0,0.0,0.0,0.0,0.0,0.0,0.0,0.0,0.0,0.0,0.0,0.0,0.0,0.0,0.0,0.0,0.0,0.0,0.0,0.0,0.0,0.0,0.0,0.0,0.0,0.0,0.0,0.0,0.0,0.0,0.0,0.0,0.0,-2.4506,-2.6099,-2.7604,-2.8926,-2.9011,-2.9011,-2.9011,-2.9011,-2.7571,0.0,0.0,0.0,0.0,0.0,0.0,0.0,0.0,0.0,0.0,0.0,0.0,0.0,0.0,0.0,0.0,0.0,0.0,0.0,0.0,0.0,0.0,0.0,0.0,0.0,0.0,0.0,0.0,0.0,0.0,0.0,0.0,0.0,0.0,0.0,0.0,0.0,0.0,0.0,0.0,0.0,-2.6116,-2.5019,-2.4714,-2.452,0.0,0.0,-2.4801,-2.6097,-2.6499,0.0,0.0,0.0,0.0,0.0,0.0,0.0,0.0,0.0,0.0,0.0,0.0,0.0,0.0,0.0,0.0,0.0,0.0,0.0,0.0,0.0,0.0,0.0,0.0,0.0,0.0,0.0,0.0,0.0,0.0,0.0,0.0,0.0,0.0,0.0,0.0,0.0,0.0,0.0,0.0,0.0,0.0,0.0,0.0,0.0,0.0,0.0,0.0,0.0,0.0,0.0,0.0,0.0,0.0,0.0,-2.5118,-2.5795,-2.8061,-2.9567,-3.0209,-3.0243,-3.0243,-3.0243,-3.0226,-2.8822,0.0,0.0,0.0,0.0,0.0,0.0,0.0,0.0,0.0,0.0,0.0,0.0,0.0,0.0,0.0,0.0,0.0,0.0,0.0,0.0,0.0,0.0,0.0,0.0,0.0,0.0,0.0,0.0,0.0,0.0,0.0,0.0,0.0,0.0,0.0,0.0,0.0,0.0,0.0,0.0,0.0,0.0,-2.7251,-2.6626,0.0,0.0,0.0,-2.5939,-2.5607,0.0,0.0,0.0,0.0,0.0,0.0,0.0,0.0,0.0,0.0,0.0,0.0,0.0,0.0,0.0,0.0,0.0,0.0,0.0,0.0,0.0,0.0,0.0,0.0,0.0,0.0,0.0,0.0,0.0,0.0,0.0,0.0,0.0,0.0,0.0,0.0,0.0,0.0,0.0,0.0,0.0,0.0,0.0,0.0,0.0,0.0,0.0,0.0,0.0,0.0,0.0,0.0,0.0,0.0,0.0,0.0,0.0,-2.6759,-2.9668,-3.119,-3.119,-3.119,-3.119,-3.119,-3.119,0.0,0.0,0.0,0.0,0.0,0.0,0.0,0.0,0.0,0.0,0.0,0.0,0.0,0.0,0.0,0.0,0.0,0.0,0.0,0.0,0.0,0.0,0.0,0.0,0.0,0.0,0.0,-1.9803,0.0,0.0,0.0,0.0,0.0,0.0,0.0,0.0,0.0,0.0,0.0,0.0,0.0,0.0,-2.7268,-2.8572,-2.7811,-2.7231,0.0,0.0,-2.714,-2.6431,-2.7192,-2.7561,0.0,0.0,0.0,0.0,0.0,0.0,0.0,0.0,0.0,0.0,0.0,0.0,0.0,0.0,0.0,0.0,0.0,0.0,0.0,0.0,0.0,0.0,0.0,0.0,0.0,0.0,0.0,0.0,0.0,0.0,0.0,0.0,0.0,0.0,0.0,0.0,0.0,0.0,0.0,0.0,0.0,0.0,0.0,0.0,0.0,0.0,0.0,0.0,0.0,0.0,0.0,0.0,0.0,0.0,0.0,-2.6793,-2.9668,-3.1207,-3.119,-3.119,-3.119,-3.119,-3.119,-2.9786,0.0,0.0,0.0,0.0,0.0,0.0,0.0,0.0,0.0,0.0,0.0,0.0,0.0,0.0,0.0,0.0,0.0,0.0,0.0,0.0,0.0,0.0,0.0,0.0,0.0,0.0,0.0,0.0,0.0,0.0,0.0,0.0,0.0,0.0,0.0,0.0,0.0,0.0,0.0,0.0,0.0,-2.6859,-2.6952,-2.6897,-2.7579,0.0,0.0,-2.8632,-3.0612,-3.1187,-3.1507,-3.1638,0.0,0.0,0.0,0.0,0.0,0.0,0.0,0.0,0.0,0.0,0.0,0.0,0.0,0.0,0.0,0.0,0.0,0.0,0.0,0.0,0.0,0.0,0.0,0.0,0.0,0.0,0.0,0.0,0.0,0.0,0.0,0.0,0.0,0.0,0.0,0.0,0.0,0.0,0.0,0.0,0.0,0.0,0.0,0.0,0.0,0.0,0.0,0.0,0.0,0.0,0.0,0.0,0.0,-2.7621,-2.8112,-3.0581,-3.2087,-3.251,-3.2104,-3.1867,-3.1867,-3.1427,-3.0209,0.0,0.0,0.0,0.0,0.0,0.0,0.0,0.0,0.0,0.0,0.0,0.0,0.0,0.0,0.0,0.0,0.0,0.0,0.0,0.0,0.0,0.0,0.0,0.0,0.0,0.0,0.0,0.0,-2.2887,-2.2905,-2.1896,0.0,0.0,0.0,0.0,0.0,0.0,0.0,0.0,0.0,0.0,-2.9677,-2.985,-2.9872,0.0,0.0,-3.0609,-3.0583,-3.1287,-3.1483,-3.1635,-3.1907,-3.1909,0.0,0.0,0.0,0.0,0.0,0.0,0.0,0.0,0.0,0.0,0.0,0.0,0.0,0.0,0.0,0.0,0.0,0.0,0.0,0.0,0.0,0.0,0.0,0.0,0.0,0.0,0.0,0.0,0.0,0.0,0.0,0.0,0.0,0.0,0.0,0.0,0.0,0.0,0.0,0.0,0.0,0.0,0.0,0.0,0.0,0.0,0.0,0.0,0.0,0.0,0.0,0.0,-2.8433,-2.9011,-3.1416,-3.2865,-3.3389,-3.2882,-3.2628,-3.2611,-3.2121,-3.1157,0.0,0.0,0.0,0.0,0.0,0.0,0.0,0.0,0.0,0.0,0.0,0.0,0.0,0.0,0.0,0.0,0.0,0.0,0.0,0.0,0.0,0.0,0.0,0.0,0.0,0.0,0.0,0.0,-2.375,-2.3786,-2.3397,0.0,0.0,0.0,0.0,0.0,0.0,0.0,0.0,0.0,0.0,-3.1458,-3.1654,-3.1749,-3.1842,-3.1874,-3.2125,-3.231,-3.2368,-3.2305,-3.2334,-3.2614,0.0,0.0,0.0,0.0,0.0,0.0,0.0,0.0,0.0,0.0,0.0,0.0,0.0,0.0,0.0,0.0,0.0,0.0,0.0,0.0,0.0,0.0,0.0,0.0,0.0,0.0,0.0,0.0,0.0,0.0,-2.2215,0.0,0.0,0.0,0.0,0.0,0.0,0.0,0.0,0.0,0.0,0.0,0.0,0.0,0.0,0.0,0.0,0.0,0.0,0.0,0.0,0.0,0.0,-2.8975,-2.9079,-3.1901,-3.3406,-3.344,-3.3389,-3.3389,-3.3389,-3.3355,-3.2662,-3.1157,0.0,0.0,0.0,0.0,0.0,0.0,0.0,0.0,0.0,0.0,0.0,0.0,0.0,0.0,0.0,0.0,0.0,0.0,0.0,0.0,0.0,0.0,0.0,0.0,0.0,0.0,-2.2041,-2.2799,-2.4342,0.0,0.0,0.0,0.0,0.0,0.0,0.0,0.0,0.0,0.0,-3.1391,-3.1427,-3.1446,-3.1677,-3.2113,-3.2836,-3.3173,-3.3638,-3.4427,-3.4285,-3.4255,0.0,0.0,0.0,0.0,0.0,0.0,0.0,0.0,0.0,0.0,0.0,0.0,0.0,0.0,0.0,0.0,0.0,0.0,0.0,0.0,0.0,0.0,0.0,0.0,0.0,0.0,0.0,-2.2327,-2.2361,0.0,0.0,0.0,0.0,0.0,0.0,0.0,0.0,0.0,0.0,0.0,-3.2307,-3.2544,0.0,0.0,0.0,0.0,0.0,0.0,0.0,0.0,0.0,0.0,0.0,0.0,-2.9973,-3.0531,-3.2865,-3.437,-3.4844,-3.4387,-3.4134,-3.4134,-3.366,-3.2713,-3.1241,0.0,0.0,0.0,0.0,0.0,0.0,0.0,0.0,0.0,0.0,0.0,0.0,0.0,0.0,0.0,0.0,0.0,0.0,0.0,0.0,0.0,0.0,0.0,0.0,0.0,-2.6215,0.0,0.0,0.0,0.0,0.0,0.0,0.0,0.0,0.0,0.0,0.0,-3.2002,-3.2418,-3.2778,-3.2999,-3.2999,-3.3066,-3.3234,0.0,0.0,0.0,0.0,0.0,0.0,0.0,0.0,0.0,0.0,0.0,0.0,0.0,0.0,-3.1584,-3.1565,-3.1523,-3.1562,-3.1545,0.0,0.0,0.0,0.0,0.0,0.0,0.0,0.0,0.0,0.0,0.0,0.0,0.0,0.0,-2.4391,0.0,-2.456,0.0,0.0,0.0,0.0,0.0,0.0,0.0,0.0,-3.1546,-3.2865,-3.3795,-3.4049,-3.4421,0.0,-3.4878,-3.3643,0.0,0.0,0.0,0.0,0.0,0.0,0.0,0.0,-3.1478,-3.2019,-3.388,-3.5131,-3.5571,-3.5131,-3.4895,-3.4878,-3.4421,-3.3592,-3.2374,-3.2104,-3.1275,0.0,0.0,0.0,0.0,0.0,0.0,0.0,0.0,0.0,0.0,0.0,0.0,0.0,0.0,0.0,0.0,0.0,0.0,0.0,0.0,0.0,0.0,0.0,-2.8732,0.0,0.0,0.0,0.0,0.0,0.0,0.0,0.0,0.0,-3.1393,-3.254,-3.3403,-3.3284,-3.3589,-3.3807,-3.3807,0.0,0.0,0.0,0.0,0.0,0.0,0.0,-3.4567,-3.5008,-3.4855,-3.4733,-3.4888,-3.4776,-3.4669,-3.4669,0.0,0.0,-3.3899,-3.3807,-3.3807,-3.3807,-3.3385,-3.3201,-3.3697,-3.3403,-3.3183,0.0,0.0,0.0,0.0,0.0,0.0,0.0,0.0,-2.7772,-2.818,0.0,-2.7402,0.0,0.0,0.0,0.0,0.0,-2.8383,0.0,0.0,-3.3406,-3.4472,-3.4573,-3.525,-3.5622,-3.5622,-3.5605,-3.5571,-3.5453,-3.4134,0.0,0.0,0.0,0.0,0.0,0.0,-3.3389,-3.3406,-3.4827,-3.5622,-3.5622,-3.5622,-3.5622,-3.5605,-3.5605,-3.5233,-3.4523,-3.3829,-3.2797,-3.1309,-2.9211,0.0,0.0,0.0,0.0,0.0,0.0,0.0,0.0,0.0,0.0,0.0,0.0,0.0,0.0,0.0,0.0,0.0,0.0,0.0,0.0,-2.9163,0.0,0.0,0.0,0.0,0.0,0.0,0.0,0.0,0.0,0.0,-3.412,-3.4157,-3.4093,-3.3879,0.0,0.0,0.0,0.0,-3.4269,-3.4288,-3.4539,-3.503,-3.5781,-3.5689,-3.5795,-3.6533,0.0,0.0,-3.6285,-3.6266,-3.6229,-3.6285,-3.6193,-3.5789,-3.4211,-3.399,-3.3972,-3.3954,-3.3954,-3.3899,-3.3899,-3.4027,-3.3954,-3.0006,0.0,0.0,0.0,0.0,-2.7724,-2.8061,-2.8653,-2.8636,-2.8772,-2.9011,-2.9093,0.0,0.0,0.0,0.0,0.0,0.0,-3.136,-3.2763,-3.3423,-3.4269,-3.5301,-3.552,-3.5639,-3.5639,-3.5639,-3.5639,-3.5605,-3.5199,-3.4235,-3.2797,0.0,0.0,0.0,0.0,-3.3389,-3.3491,-3.4861,-3.5639,-3.5639,-3.5639,-3.5639,-3.5639,-3.5639,-3.552,-3.5301,-3.5098,-3.4303,-3.2831,-3.2171,0.0,0.0,0.0,0.0,0.0,0.0,0.0,0.0,0.0,0.0,0.0,0.0,0.0,0.0,0.0,0.0,0.0,0.0,0.0,-3.2284,-3.26,-3.2331,0.0,0.0,0.0,0.0,0.0,0.0,0.0,0.0,0.0,-3.4768,-3.4271,-3.4097,0.0,0.0,-3.489,-3.5495,-3.5634,-3.5717,-3.5689,-3.5798,0.0,0.0,-3.6122,-3.6159,-3.6353,-3.6323,-3.6285,-3.6285,-3.6285,-3.6285,-3.6303,-3.6285,-3.6119,-3.5716,-3.5587,-3.5587,-3.5587,-3.5569,-3.5569,-3.5587,-3.5569,-3.5569,-3.3237,-3.1512,-3.0362,-2.9871,-2.9854,-2.9854,-3.0378,-3.1157,-3.1173,-3.1326,-3.1596,-3.1478,-3.1427,-3.141,-3.1258,0.0,0.0,0.0,-3.2882,-3.4269,-3.4286,-3.4759,-3.5588,-3.5639,-3.5639,-3.5639,-3.5639,-3.5639,-3.5639,-3.5639,-3.5182,-3.432,0.0,0.0,-3.3,-3.3829,-3.4286,-3.432,-3.5165,-3.5639,-3.5639,-3.5639,-3.5639,-3.5639,-3.5639,-3.5639,-3.5639,-3.5639,-3.5216,-3.432,-3.3728,-3.2797,0.0,0.0,0.0,0.0,0.0,0.0,0.0,0.0,0.0,0.0,0.0,-2.8714,0.0,0.0,0.0,0.0,-3.1788,-3.2742,-3.3697,-3.3935,0.0,0.0,0.0,0.0,0.0,0.0,0.0,-3.4308,-3.5018,-3.5532,-3.5514,-3.5092,-3.4963,-3.5459,-3.5532,-3.5716,-3.6229,0.0,-3.6285,-3.6285,-3.6285,-3.6395,-3.6707,-3.6762,-3.6872,-3.7202,-3.7239,-3.7239,-3.7239,-3.7257,-3.7239,-3.7257,-3.7257,-3.7257,-3.7257,-3.7239,-3.7008,-3.6435,-3.6282,-3.6285,-3.6285,-3.6285,-3.6285,-3.5639,-3.5385,-3.2679,-3.1562,-3.1562,-3.1546,-3.2696,-3.4556,-3.4573,-3.4962,-3.5504,-3.4184,-3.3592,-3.3508,-3.2171,0.0,-3.3575,-3.3575,-3.432,-3.5622,-3.5639,-3.5622,-3.5639,-3.5639,-3.5656,-3.5723,-3.5707,-3.574,-3.5825,-3.5825,-3.5763,-3.5791,-3.5808,-3.574,-3.5639,-3.5622,-3.5639,-3.5622,-3.5622,-3.5639,-3.5639,-3.5639,-3.5639,-3.5639,-3.5639,-3.5639,-3.5639,-3.5639,-3.5639,-3.5588,-3.432,-3.3575,-3.3541,0.0,0.0,0.0,0.0,0.0,0.0,0.0,0.0,0.0,0.0,0.0,0.0,0.0,0.0,0.0,-3.399,0.0,-3.399,-3.4009,0.0,0.0,0.0,-3.4284,-3.5009,-3.511,-3.5422,-3.6211,0.0,0.0,-3.6395,-3.6431,-3.6505,-3.6486,-3.645,-3.6431,-3.6486,-3.6541,-3.6505,-3.6578,-3.6541,-3.678,-3.7459,-3.7588,-3.7808,-3.8432,-3.8707,-3.8597,-3.8597,-3.8615,-3.867,-3.8597,-3.8689,-3.8652,-3.8689,-3.8597,-3.8224,-3.6827,-3.6552,-3.6541,-3.6538,-3.6509,-3.6497,-3.5639,-3.5509,-3.4861,-3.4573,-3.4573,-3.4556,-3.4878,-3.5334,-3.5351,-3.5453,-3.5588,-3.5233,-3.5098,-3.5064,-3.4726,-3.4759,-3.5098,-3.5098,-3.5239,-3.5622,-3.5639,-3.5639,-3.5639,-3.5639,-3.5926,-3.6485,-3.6518,-3.6806,-3.7347,-3.7364,-3.7364,-3.7364,-3.7364,-3.6772,-3.5673,-3.5639,-3.5639,-3.5639,-3.5639,-3.5639,-3.5639,-3.5639,-3.5639,-3.5639,-3.5639,-3.5639,-3.5639,-3.5639,-3.5639,-3.5622,-3.5284,-3.5098,-3.5081,-3.3694,0.0,0.0,0.0,0.0,0.0,0.0,0.0,0.0,0.0,-3.306,-3.5494,0.0,-3.5224,0.0,-3.5697,-3.5697,-3.5697,-3.5697,0.0,0.0,-3.5697,-3.5789,-3.5973,-3.5991,-3.6064,-3.6266,-3.6817,-3.7202,-3.7232,-3.7753,-3.8138,-3.812,-3.7588,-3.7422,-3.801,-3.8138,-3.8138,-3.8083,-3.8065,-3.8193,-3.8322,-3.8414,-3.8469,-3.8689,-3.8707,-3.8707,-3.8707,-3.8707,-3.8707,-3.8707,-3.8707,-3.8707,-3.8707,-3.8707,-3.8566,-3.8224,-3.8145,-3.801,-3.762,-3.7519,-3.7401,-3.5639,-3.5639,-3.5639,-3.525,-3.4692,-3.529,-3.5639,-3.5639,-3.5639,-3.5639,-3.5639,-3.5639,-3.5639,-3.5639,-3.5639,-3.5639,-3.5656,-3.5994,-3.6146,-3.6163,-3.6485,-3.6654,-3.6637,-3.6637,-3.6874,-3.728,-3.728,-3.7499,-3.7889,-3.7922,-3.7922,-3.7922,-3.7922,-3.7483,-3.6671,-3.6637,-3.6637,-3.6637,-3.6637,-3.6637,-3.6637,-3.6637,-3.6637,-3.662,-3.6315,-3.6129,-3.6113,-3.5808,-3.5639,-3.5639,-3.596,-3.5977,-3.5639,-3.5182,-3.523,0.0,0.0,0.0,0.0,0.0,0.0,0.0,0.0,0.0,0.0,0.0,-3.553,-3.6208,-3.6285,-3.6285,-3.6285,-3.6285,-3.6285,-3.6285,-3.6285,-3.6431,-3.6798,-3.6817,-3.6964,-3.7331,-3.7753,-3.8028,-3.8028,-3.8414,-3.8707,-3.8707,-3.8303,-3.8175,-3.8597,-3.8707,-3.8707,-3.8707,-3.8707,-3.8707,-3.8707,-3.8707,-3.8707,-3.8707,-3.8707,-3.8707,-3.8707,-3.8707,-3.8707,-3.8707,-3.8707,-3.8707,-3.8707,-3.8465,-3.8354,-3.8334,-3.8194,-3.8101,-3.8234,-3.8065,-3.7808,-3.591,-3.591,-3.591,-3.5165,-3.4083,-3.5368,-3.5588,-3.5064,-3.5047,-3.5199,-3.5487,-3.5673,-3.5825,-3.591,-3.591,-3.591,-3.5943,-3.662,-3.6924,-3.6958,-3.7601,-3.7922,-3.7922,-3.7922,-3.7939,-3.8041,-3.8058,-3.8091,-3.8193,-3.8193,-3.8193,-3.8176,-3.8176,-3.8193,-3.8193,-3.8193,-3.8091,-3.7922,-3.7922,-3.7922,-3.7922,-3.7922,-3.7922,-3.7889,-3.728,-3.6924,-3.6907,-3.618,-3.5774,-3.5791,-3.6332,-3.6332,-3.5673,-3.6265,-3.6378,0.0,-3.6139,0.0,0.0,0.0,0.0,0.0,0.0,0.0,0.0,-3.5536,-3.5672,-3.652,-3.6615,-3.6597,-3.6615,-3.6615,-3.6615,-3.6615,-3.6615,-3.689,-3.7551,-3.7643,-3.7918,-3.8634,-3.8707,-3.8707,-3.867,-3.8707,-3.8707,-3.8707,-3.867,-3.8652,-3.8707,-3.8707,-3.8707,-3.8707,-3.8707,-3.8707,-3.8726,-3.8799,-3.8891,-3.8891,-3.9074,-3.9001,-3.9111,-3.9074,-3.9074,-3.9056,-3.9129,-3.9074,-3.9013,-3.866,-3.8382,-3.8506,-3.8162,-3.7936,-3.8122,-3.7929,-3.772,-3.7483,-3.7483,-3.7466,-3.7313,-3.7077,-3.7347,-3.5385,-3.2036,-3.2036,-3.3034,-3.4793,-3.6028,-3.6907,-3.7466,-3.7466,-3.7483,-3.7483,-3.7618,-3.7686,-3.7702,-3.7838,-3.7922,-3.7922,-3.7922,-3.8227,-3.8768,-3.8785,-3.9089,-3.9665,-3.9665,-3.9665,-3.9665,-3.9665,-3.9665,-3.9665,0.0,0.0,0.0,-3.7922,-3.7922,-3.7922,-3.7922,-3.7922,-3.7905,-3.777,0.0,-3.7669,-3.6975,-3.6569,-3.6535,-3.6096,0.0,0.0,0.0,0.0,0.0,0.0,0.0,0.0,0.0,0.0,0.0,-3.6629,-3.7095,-3.8008,-3.8008,-3.8058,-3.8218,-3.8248,-3.8248,-3.8267,-3.8248,-3.8248,-3.8248,-3.8248,-3.8303,-3.845,-3.8469,-3.8542,-3.867,-3.8707,-3.8707,-3.8707,-3.8707,-3.8707,-3.8744,-3.8707,-3.8707,-3.8744,-3.8744,-3.8707,-3.8707,-3.8781,-3.8744,-3.8707,-3.9258,-3.9662,-3.9717,-4.0249,-4.0579,-4.0579,-4.0579,-4.0634,-4.0598,-4.0671,-4.0593,-4.0603,-4.0556,-4.0288,-4.0441,-3.9958,-3.9044,-3.7263,-3.6764,-3.6563,-3.7922,0.0,-3.7922,-3.7483,0.0,-3.6772,-3.5064,-3.2391,-3.3863,-3.5131,-3.6214,-3.6992,-3.755,-3.7872,-3.7127,-3.6772,-3.6772,-3.6383,-3.662,-3.7364,-3.7736,-3.8294,-3.8988,-3.8971,-3.9174,-3.9512,-3.9529,-3.9715,-4.0054,-4.0087,-4.0087,-4.0087,-4.0087,-4.0087,-4.0087,-4.0087,-3.9715,-3.8988,-3.8971,-3.8988,-3.8988,-3.8988,-3.8988,-3.8971,0.0,0.0,0.0,0.0,0.0,0.0,0.0,0.0,0.0,0.0,0.0,-3.6002,-3.6028,-3.6139,-3.6399,-3.6643,-3.6803,-3.6803,-3.7487,-3.805,-3.83,-3.8546,-3.8707,-3.8707,-3.8707,-3.8707,-3.8707,-3.8707,-3.8707,-3.8707,-3.8707,-3.8707,-3.8707,-3.8707,-3.8707,-3.8707,-3.8707,-3.8707,-3.8707,-3.8707,-3.8872,-3.9221,-3.9294,-3.9441,-3.9717,-3.9203,-3.8799,-3.9246,-3.9687,-3.9877,-3.9913,-4.0171,-4.0483,-4.0561,-4.0836,-4.1093,-4.1097,-4.1097,-4.1097,-4.1097,-4.1097,-4.1126,-4.1066,-4.0716,-4.0326,-4.025,-3.9634,-3.8796,-3.7367,-3.7344,-3.7439,-3.8294,-3.8294,-3.8278,-3.7567,-3.64,-3.64,-3.5723,-3.4726,0.0,0.0,0.0,-3.7973,-3.8159,-3.821,-3.6975,-3.64,-3.6366,-3.5774,-3.6163,-3.7364,-3.799,-3.8937,-4.0054,-4.0087,-4.0087,-4.0087,-4.0087,-4.0087,-4.0087,-4.0087,-4.0087,-4.0087,-4.0087,-4.0087,-4.0087,-4.0087,-4.0087,-4.0087,-4.0087,-4.0087,-4.0087,-4.0087,-4.0087,-4.007,-3.9495,-3.9191,-3.9174,-3.8481,-3.8108,-3.8108,-3.799,-3.7618,-3.7026,-3.6857,-3.6485,-3.5876,-3.569,-3.5639,-3.5622,-3.6028,-3.6539,-3.7152,-3.805,-3.8415,-3.8065,-3.8465,-3.8707,-3.8707,-3.8707,-3.8707,-3.8707,-3.8707,-3.8707,-3.8707,-3.8707,-3.8707,-3.8707,-3.8707,-3.8707,-3.8726,-3.8854,-3.8927,-3.8964,-3.9111,-3.935,-3.9955,-4.012,-4.0322,-4.0781,-4.001,-3.946,-4.0037,-4.0533,-4.1029,-4.1107,-4.125,-4.1305,-4.1313,-4.1479,-4.1534,-4.1534,-4.1534,-4.1501,-4.1494,-4.14,-4.1397,-4.1199,-4.0653,-3.9958,-3.9922,-3.917,-3.8387,-3.8452,-3.8665,-3.8739,-3.9766,-3.9766,-3.9766,-3.9648,-3.9445,-3.9462,-3.9326,-3.8971,-3.6907,-3.6332,-3.7009,-3.8278,-3.9174,-3.9766,-3.9529,-3.9462,-3.9445,-3.9343,-3.9411,-3.9614,-3.9732,-3.9884,-4.007,-4.0087,-4.0087,-4.0087,-4.0087,-4.0087,-4.0087,-4.0087,-4.0087,-4.0087,-4.0087,-4.0087,-4.0087,-4.0087,-4.0087,-4.0087,-4.0087,-4.0087,-4.0087,-4.0087,-4.0087,-4.007,-3.9986,-3.9935,-3.9901,-3.9225,-3.8836,-3.8819,-3.8244,-3.7855,-3.7736,-3.7144,-3.6721,-3.6586,-3.5994,-3.5639,-3.5639,-3.565,-3.6122,-3.7097,-3.7703,-3.8183,-3.8546,-3.8658,-3.8707,-3.8707,-3.8707,-3.8707,-3.8707,-3.8707,-3.8707,-3.8707,-3.8707,-3.8707,-3.8744,-3.8744,-3.8781,-3.8836,-3.9313,-3.9717,-3.9772,-4.0267,-4.0689,-4.0891,-4.102,-4.1038,-4.1167,-4.0946,-4.0818,-4.0891,-4.1029,-4.1111,-4.1342,-4.1757,-4.2062,-4.2121,-4.2671,-4.2931,-4.2878,-4.2825,-4.2667,-4.2466,-4.2282,-4.2159,-4.1775,-4.162,-4.1288,-4.1177,-4.0611,-4.0225,-4.0173,-3.9987,-3.9472,-4.1288,-4.1288,-4.1271,-4.1271,-4.1271,-4.1271,-4.1271,-4.1153,-3.9851,-3.8971,-3.8633,-3.9292,-3.9766,-4.0003,-3.9259,-3.8903,-3.887,-3.8041,-3.8125,-3.887,-3.8903,-3.9309,-4.0037,-4.0087,-4.0087,-4.0087,-4.0087,-4.0087,-4.0087,-4.0087,-4.0087,-4.0087,-4.0087,-4.0087,-4.0087,-4.0087,-4.0087,-4.0087,-4.0087,-4.0087,-4.0087,-4.0087,-4.0087,-4.0087,-4.0087,-4.0087,-4.0087,-3.9749,-3.958,-3.9597,-3.8886,-3.8497,-3.8481,-3.7804,-3.7398,-3.7381,-3.706,-3.6857,-3.6857,-3.6689,-3.679,-3.7188,-3.7614,-3.798,-3.8216,-3.8546,-3.8707,-3.8707,-3.8707,-3.8707,-3.8707,-3.8707,-3.8707,-3.8707,-3.8707,-3.8872,-3.9276,-3.935,-3.9533,-3.9937,-4.0322,-4.0561,-4.0561,-4.0891,-4.1313,-4.1662,-4.2066,-4.2359,-4.2378,-4.2378,-4.2213,-4.1893,-4.2114,-4.2378,-4.2386,-4.2674,-4.2944,-4.2947,-4.2994,-4.3069,-4.305,-4.2865,-4.2483,-4.2284,-4.2221,-4.2141,-4.1797,-4.1498,-4.1366,-4.128,-4.0846,-4.05,-4.0417,-4.0237,-3.9867,-4.2303,-4.2303,-4.2303,-4.2303,-4.2303,-4.2303,-4.2303,-4.2303,-4.2269,-4.1644,-4.0679,-4.0578,-4.0578,-4.046,-3.9394,-3.8903,-3.8734,-3.7669,-3.7787,-3.8819,-3.8903,-3.9495,-4.046,-4.0426,-4.0324,-4.0307,-4.0155,-4.0087,-4.0087,-4.0087,-4.0087,-4.0087,-4.0087,-4.0087,-4.0087,-4.0087,-4.0087,-4.0087,-4.0087,-4.0087,-4.0087,-4.0087,-4.0087,-4.0087,-4.0087,-4.0087,-4.0087,-4.0087,-4.0087,-4.0054,-3.9546,-3.9242,-3.9225,-3.8548,-3.8142,-3.8142,-3.8007,-3.7922,-3.7919,-3.7947,-3.7901,-3.7757,-3.8259,-3.8642,-3.8642,-3.9013,-3.9056,-3.8781,-3.8872,-3.9001,-3.9056,-3.9203,-3.9239,-3.9239,-3.9258,-3.9551,-4.0065,-4.0175,-4.0396,-4.102,-4.1258,-4.1368,-4.1405,-4.1534,-4.1919,-4.2543,-4.3112,-4.3461,-4.3479,-4.3479,-4.3201,-4.2923,-4.3109,-4.3369,-4.3479,-4.3323,-4.3269,-4.334,-4.2846,-4.2559,-4.2422,-4.2062,-4.1768,-4.1664,-4.1578,-4.1516,-4.1402,-4.1041,-4.0762,-4.0712,-4.0425,-4.0138,-4.0171,-4.0121,-4.0087,-4.2303,-4.2303,-4.2354,-4.2303,-4.2354,-4.2337,-4.2354,-4.2354,-4.2303,-4.2252,-4.21,-4.21,-4.2066,-4.2083,-4.1847,-4.1745,-4.1728,-4.1728,-4.1644,-4.1745,-4.188,-4.1965,-4.1948,-4.1407,-4.1102,-4.1018,-4.046,-4.0189,-4.0155,-4.0138,-4.0087,-4.0087,-4.0087,-4.0087,-4.0087,-4.0087,-4.0087,-4.0087,-4.0087,-4.0087,-4.0087,-4.0087,-4.0087,-4.0087,-4.0087,-4.0087,-4.0087,-4.0087,-4.0087,-4.0087,-4.002,-3.9952,-3.9901,-3.9292,-3.8903,-3.887,-3.8294,-3.7922,-3.7953,-3.8807,-3.9252,-3.9376,-4.0112,-4.0632,-4.0701,-4.0785,-4.023,-3.9258,-3.9405,-3.9772,-3.9827,-4.0377,-4.0726,-4.0671,-4.0726,-4.0946,-4.0965,-4.0983,-4.1038,-4.1093,-4.1827,-4.2194,-4.2249,-4.269,-4.3167,-4.3204,-4.3369,-4.3444,-4.341,-4.341,-4.3375,-4.3316,-4.3461,-4.3442,-4.3393,-4.3054,-4.2803,-4.2727,-4.2302,-4.1937,-4.1853,-4.175,-4.1639,-4.1105,-4.0995,-4.0827,-4.0497,-4.0204,-4.0221,-4.0273,-4.0189,-4.0087,-4.0087,-4.0087,-4.0087,-4.3639,-4.3656,-4.3639,-4.3639,-4.3639,-4.3639,-4.3639,-4.3639,-4.3656,-4.3639,-4.3639,-4.3656,-4.3149,-4.232,-4.2303,-4.2303,-4.2303,-4.2303,-4.2303,-4.2303,-4.2303,-4.2303,-4.2252,-4.1999,-4.1847,-4.1847,-4.1525,-4.117,-4.073,-4.029,-4.0087,-4.0087,-4.0087,-4.0087,-4.0087,-4.0087,-4.0087,-4.0087,-4.0087,-4.0087,-4.0087,-4.0087,-4.0087,-4.0087,-4.0087,-4.0087,-4.0087,-4.0087,-4.0087,-4.0087,-4.0087,-4.0087,-4.0087,-3.98,-3.9631,-3.9614,-3.936,-3.9005,-3.8599,-3.9271,-3.9485,-3.9073,-4.0036,-4.0631,-4.0631,-4.0909,-4.0767,-4.0341,-4.0432,-4.0616,-4.0653,-4.0928,-4.1097,-4.1097,-4.1097,-4.1313,-4.1772,-4.1827,-4.1956,-4.2433,-4.28,-4.3002,-4.3039,-4.3277,-4.3461,-4.3479,-4.3479,-4.3356,-4.3105,-4.3014,-4.2974,-4.284,-4.2668,-4.2667,-4.2867,-4.2544,-4.2234,-4.2068,-4.1682,-4.1268,-4.1268,-4.0938,-4.0689,-4.0449,-4.0497,-4.04,-4.0204,-4.0121,-4.0087,-4.0087,-4.0087,-4.0087,-4.0087,-4.0087,-4.0087,-4.457,-4.457,-4.457,-4.457,-4.457,-4.457,-4.457,-4.457,-4.457,-4.457,-4.457,-4.457,-4.3978,-4.3014,-4.2912,-4.2912,-4.2912,-4.2912,-4.2912,-4.2912,-4.2912,-4.2929,-4.2895,-4.2692,-4.2591,-4.2574,-4.2354,-4.1999,-4.1457,-4.0747,-4.0392,-4.0358,-4.0172,-4.0087,-4.0087,-4.0087,-4.0087,-4.0087,-4.0087,-4.0087,-4.0087,-4.0087,-4.0087,-4.0087,-4.0087,-4.0087,-4.0087,-4.0087,-4.0087,-4.0087,-4.0087,-4.0087,-4.0087,-4.0087,-4.0087,-4.0087,-4.0087,-3.9851,-3.9309,-3.9817,-3.9881,-3.9477,-4.0175,-4.0795,-4.098,-4.1144,-4.1358,-4.1499,-4.1393,-4.1251,-4.1204,-4.1541,-4.1687,-4.1567,-4.1653,-4.2029,-4.2543,-4.2616,-4.2837,-4.3387,-4.3387,-4.3479,-4.3479,-4.3356,-4.325,-4.325,-4.3105,-4.294,-4.2559,-4.244,-4.2391,-4.2221,-4.1845,-4.1782,-4.2154,-4.1894,-4.1569,-4.142,-4.1059,-4.072,-4.0703,-4.0286,-4.0121,-4.0254,-4.0121,-4.007,-4.0121,-4.007,-4.0087,-4.0087,-4.0087,-4.0087,-4.0087,-4.0087,-4.0087,-4.457,-4.457,-4.457,-4.457,-4.457,-4.457,-4.457,-4.457,-4.457,-4.457,-4.457,-4.457,-4.4519,-4.4384,-4.4316,-4.4434,-4.4418,-4.435,-4.4333,-4.4333,-4.4367,-4.4451,-4.4434,-4.3741,-4.3369,-4.3318,-4.2794,-4.2388,-4.2202,-4.1508,-4.1153,-4.1102,-4.0476,-4.0104,-4.0087,-4.0087,-4.0087,-4.0087,-4.0087,-4.0087,-4.0087,-4.0087,-4.0087,-4.0087,-4.0087,-4.0087,-4.0087,-4.0087,-4.0087,-4.0087,-4.0087,-4.0087,-4.0087,-4.0087,-4.0087,-4.0087,-4.0087,-4.007,-4.0086,-4.0504,-4.0793,-4.0822,-4.1321,-4.1943,-4.235,-4.2063,-4.2081,-4.2551,-4.2139,-4.1769,-4.1612,-4.2394,-4.2904,-4.2574,-4.3013,-4.3261,-4.3369,-4.3296,-4.3424,-4.3479,-4.3444,-4.341,-4.3444,-4.3069,-4.277,-4.2637,-4.2266,-4.1919,-4.1877,-4.1853,-4.1828,-4.1639,-4.1315,-4.1025,-4.12,-4.1122,-4.0961,-4.0858,-4.0594,-4.0221,-4.0171,-4.0087,-4.0087,-4.0087,-4.0087,-4.0087,-4.0087,-4.0087,-4.0087,-4.0087,-4.0087,-4.0087,-4.0087,-4.0087,-4.0087,-4.457,-4.457,-4.457,-4.457,-4.457,-4.457,-4.457,-4.457,-4.457,-4.457,-4.457,-4.457,-4.457,-4.457,-4.457,-4.457,-4.457,-4.457,-4.457,-4.457,-4.457,-4.457,-4.4553,-4.4282,-4.4164,-4.4113,-4.3893,-4.3504,-4.2963,-4.2269,-4.166,-4.1238,-4.0933,-4.0578,-4.0172,-4.0087,-4.0087,-4.0087,-4.0087,-4.0087,-4.0087,-4.0087,-4.0087,-4.0087,-4.0087,-4.0087,-4.0087,-4.0087,-4.0087,-4.0087,-4.0087,-4.0087,-4.0087,-4.0087,-4.0087,-4.0087,-4.0087,-4.0087,-4.0171,-4.0607,-4.107,-4.149,-4.2038,-4.2598,-4.3032,-4.3032,-4.2995,-4.3087,-4.3032,-4.2703,-4.2425,-4.2739,-4.2902,-4.2826,-4.3178,-4.3479,-4.3479,-4.3479,-4.3479,-4.3444,-4.3214,-4.2976,-4.2884,-4.2462,-4.2162,-4.2121,-4.1955,-4.1621,-4.1313,-4.1223,-4.1133,-4.0814,-4.0542,-4.0394,-4.0439,-4.0466,-4.0357,-4.0372,-4.0221,-4.0171,-4.0138,-4.0087,-4.0087,-4.0087,-4.0087,-4.0087,-4.0087,-4.0087,-4.0087,-4.0087,-4.0087,-4.0087,-4.0087,-4.0087,-4.0087,-4.457,-4.457,-4.457,-4.457,-4.457,-4.457,-4.457,-4.457,-4.457,-4.457,-4.457,-4.457,-4.457,-4.457,-4.457,-4.457,-4.457,-4.457,-4.457,-4.457,-4.457,-4.457,-4.457,-4.457,-4.457,-4.457,-4.457,-4.4282,-4.3758,-4.3014,-4.2405,-4.1965,-4.1694,-4.1187,-4.0561,-4.0443,-4.0341,-4.0138,-4.0087,-4.0087,-4.0087,-4.0087,-4.0087,-4.0087,-4.0087,-4.0087,-4.0087,-4.0087,-4.0087,-4.0087,-4.0087,-4.0087,-4.0087,-4.0087,-4.0087,-4.0087,-4.0087,-4.0087,-4.0171,-4.0577,-4.107,-4.1473,-4.208,-4.2637,-4.316,-4.3069,-4.3069,-4.3124,-4.281,-4.2483,-4.2244,-4.2121,-4.2203,-4.244,-4.2921,-4.3124,-4.2977,-4.294,-4.294,-4.2865,-4.2637,-4.244,-4.236,-4.1853,-4.1595,-4.149,-4.142,-4.1076,-4.075,-4.0625,-4.0528,-4.0204,-4.0171,-4.0154,-4.0203,-4.0238,-4.0206,-4.0188,-4.0171,-4.0121,-4.0087,-4.0087,-4.0087,-4.0087,-4.0087,-4.0087,-4.0087,-4.0087,-4.0087,-4.0087,-4.0087,-4.0087,-4.0087,-4.0087,-4.0087,-4.457,-4.457,-4.457,-4.457,-4.457,-4.457,-4.457,-4.457,-4.457,-4.457,-4.457,-4.457,-4.457,-4.457,-4.457,-4.457,-4.457,-4.457,-4.457,-4.457,-4.457,-4.457,-4.457,-4.457,-4.457,-4.457,-4.457,-4.4553,-4.4418,-4.3775,-4.3352,-4.32,-4.2591,-4.1931,-4.1221,-4.1119,-4.0798,-4.0307,-4.0138,-4.0087,-4.0087,-4.0087,-4.0087,-4.0087,-4.0087,-4.0087,-4.0087,-4.0087,-4.0087,-4.0087,-4.0087,-4.0087,-4.0087,-4.0087,-4.0087,-4.0087,-4.0087,-4.0087,-4.0171,-4.0577,-4.0827,-4.1161,-4.1534,-4.2203,-4.2714,-4.2444,-4.2364,-4.2637,-4.1961,-4.1161,-4.1206,-4.1178,-4.1296,-4.1768,-4.2324,-4.2462,-4.2062,-4.1853,-4.1853,-4.1895,-4.1853,-4.181,-4.1682,-4.1268,-4.092,-4.0827,-4.0577,-4.0303,-4.0254,-4.0254,-4.0121,-4.0121,-4.0087,-4.0087,-4.0087,-4.0087,-4.0087,-4.0121,-4.0121,-4.0087,-4.0087,-4.0087,-4.0087,-4.0087,-4.0087,-4.0087,-4.0087,-4.0087,-4.0087,-4.0087,-4.0087,-4.0087,-4.0087,-4.0087,-4.0087,-4.457,-4.457,-4.457,-4.457,-4.457,-4.457,-4.457,-4.457,-4.457,-4.457,-4.457,-4.457,-4.457,-4.457,-4.457,-4.457,-4.457,-4.457,-4.457,-4.457,-4.457,-4.457,-4.457,-4.457,-4.457,-4.457,-4.457,-4.457,-4.4519,-4.4316,-4.3978,-4.3453,-4.32,-4.2675,-4.1965,-4.1474,-4.1052,-4.0832,-4.0324,-4.0087,-4.0087,-4.0087,-4.0087,-4.0087,-4.0087,-4.0087,-4.0087,-4.0087,-4.0087,-4.0087,-4.0087,-4.0087,-4.0087,-4.0087,-4.0087,-4.0087,-4.0087,-4.0087,-4.0121,-4.0303,-4.0767,-4.1358,-4.1707,-4.2284,-4.3087,-4.3032,-4.2977,-4.316,-4.258,-4.2121,-4.208,-4.175,-4.1385,-4.1223,-4.1707,-4.2021,-4.175,-4.1768,-4.181,-4.1768,-4.1446,-4.1223,-4.1087,-4.0703,-4.0417,-4.04,-4.0204,-4.0121,-4.0087,-4.0087,-4.007,-4.007,-4.0087,-4.0087,-4.0087,-4.0087,-4.0087,-4.0087,-4.0087,-4.0087,-4.0087,-4.0087,-4.0087,-4.0087,-4.0087,-4.0087,-4.0087,-4.0087,-4.0087,-4.0087,-4.0087,-4.0087,-4.0087,-4.0087,-4.0087,-4.457,-4.457,-4.457,-4.457,-4.457,-4.457,-4.457,-4.457,-4.457,-4.457,-4.457,-4.457,-4.457,-4.457,-4.457,-4.457,-4.457,-4.457,-4.457,-4.457,-4.457,-4.457,-4.457,-4.457,-4.457,-4.457,-4.457,-4.457,-4.457,-4.4553,-4.4333,-4.3927,-4.3842,-4.347,-4.276,-4.2269,-4.1931,-4.1576,-4.0882,-4.051,-4.0443,-4.0223,-4.0087,-4.0087,-4.0087,-4.0087,-4.0087,-4.0087,-4.0087,-4.0087,-4.0087,-4.0087,-4.0087,-4.0087,-4.0087,-4.0087,-4.0087,-4.0087,-4.0121,-4.0563,-4.0984,-4.1725,-4.2167,-4.2678,-4.3321,-4.3375,-4.3214,-4.3124,-4.2444,-4.2021,-4.1895,-4.1508,-4.1013,-4.0672,-4.1133,-4.1358,-4.1241,-4.115,-4.115,-4.103,-4.0797,-4.0672,-4.0497,-4.0368,-4.0138,-4.0087,-4.0087,-4.0087,-4.0087,-4.0087,-4.0087,-4.0087,-4.0087,-4.0087,-4.0087,-4.0087,-4.0087,-4.0087,-4.0087,-4.0087,-4.0087,-4.0087,-4.0087,-4.0087,-4.0087,-4.0087,-4.0087,-4.0087,-4.0087,-4.0087,-4.0087,-4.0087,-4.0087,-4.0087,-4.0087,-4.457,-4.457,-4.457,-4.457,-4.457,-4.457,-4.457,-4.457,-4.457,-4.457,-4.457,-4.457,-4.457,-4.457,-4.457,-4.457,-4.457,-4.457,-4.457,-4.457,-4.457,-4.457,-4.457,-4.457,-4.457,-4.457,-4.457,-4.457,-4.457,-4.457,-4.457,-4.4485,-4.4418,-4.4215,-4.3555,-4.342,-4.2946,-4.2337,-4.1627,-4.1255,-4.1119,-4.0544,-4.0138,-4.0104,-4.0087,-4.0087,-4.0087,-4.0087,-4.0087,-4.0087,-4.0087,-4.0087,-4.0087,-4.0087,-4.0087,-4.0087,-4.0087,-4.0171,-4.0385,-4.0938,-4.1578,-4.1793,-4.2562,-4.341,-4.3196,-4.2846,-4.2637,-4.2598,-4.1707,-4.1041,-4.0949,-4.0577,-4.0237,-4.0187,-4.0577,-4.0672,-4.0204,-4.0204,-4.0286,-4.0254,-4.0121,-4.0121,-4.0171,-4.0121,-4.0121,-4.0087,-4.0087,-4.0087,-4.0087,-4.0087,-4.0087,-4.0087,-4.0087,-4.0087,-4.0087,-4.0087,-4.0087,-4.0087,-4.0087,-4.0087,-4.0087,-4.0087,-4.0087,-4.0087,-4.0087,-4.0087,-4.0087,-4.0087,-4.0087,-4.0087,-4.0087,-4.0087,-4.0087,-4.0087,-4.0087,-4.457,-4.457,-4.457,-4.457,-4.457,-4.457,-4.457,-4.457,-4.457,-4.457,-4.457,-4.457,-4.457,-4.457,-4.457,-4.457,-4.457,-4.457,-4.457,-4.457,-4.457,-4.457,-4.457,-4.457,-4.457,-4.457,-4.457,-4.457,-4.457,-4.457,-4.457,-4.457,-4.457,-4.4485,-4.4231,-4.3707,-4.3352,-4.3047,-4.2388,-4.1745,-4.1288,-4.1035,-4.0629,-4.0121,-4.0087,-4.0087,-4.0087,-4.0087,-4.0087,-4.0087,-4.0087,-4.0087,-4.0087,-4.0087,-4.0087,-4.0087,-4.0121,-4.0286,-4.0672,-4.0967,-4.134,-4.1768,-4.2126,-4.2248,-4.2266,-4.2144,-4.2021,-4.1895,-4.1313,-4.0856,-4.0827,-4.0417,-4.0121,-4.0121,-4.0286,-4.0286,-4.0171,-4.0087,-4.0087,-4.0087,-4.0087,-4.0087,-4.0087,-4.0087,-4.0087,-4.0087,-4.0087,-4.0087,-4.0087,-4.0087,-4.0087,-4.0087,-4.0087,-4.0087,-4.0087,-4.0087,-4.0087,-4.0087,-4.0087,-4.0087,-4.0087,-4.0087,-4.0087,-4.0087,-4.0087,-4.0087,-4.0087,-4.0087,-4.0087,-4.0087,-4.0087,-4.0087,-4.0087,-4.0087,-4.0087,-4.457,-4.457,-4.457,-4.457,-4.457,-4.457,-4.457,-4.457,-4.457,-4.457,-4.457,-4.457,-4.457,-4.457,-4.457,-4.457,-4.457,-4.457,-4.457,-4.457,-4.457,-4.457,-4.457,-4.457,-4.457,-4.457,-4.457,-4.457,-4.457,-4.457,-4.457,-4.457,-4.457,-4.457,-4.4536,-4.4181,-4.3893,-4.3775,-4.3166,-4.2523,-4.2151,-4.1491,-4.1035,-4.0527,-4.029,-4.0087,-4.0087,-4.0087,-4.0087,-4.0087,-4.0087,-4.0087,-4.0087,-4.0087,-4.0087,-4.0087,-4.0087,-4.0237,-4.0528,-4.0733,-4.1041,-4.1402,-4.1621,-4.181,-4.175,-4.1621,-4.1446,-4.1358,-4.0874,-4.0607,-4.0528,-4.0286,-4.0121,-4.0121,-4.0087,-4.0087,-4.0087,-4.0087,-4.0087,-4.0087,-4.0087,-4.0087,-4.0087,-4.0087,-4.0087,-4.0087,-4.0087,-4.0087,-4.0087,-4.0087,-4.0087,-4.0087,-4.0087,-4.0087,-4.0087,-4.0087,-4.0087,-4.0087,-4.0087,-4.0087,-4.0087,-4.0087,-4.0087,-4.0087,-4.0087,-4.0087,-4.0087,-4.0087,-4.0087,-4.0087,-4.0087,-4.0087,-4.0087,-4.0087,-4.0087,-4.457,-4.457,-4.457,-4.457,-4.457,-4.457,-4.457,-4.457,-4.457,-4.457,-4.457,-4.457,-4.457,-4.457,-4.457,-4.457,-4.457,-4.457,-4.457,-4.457,-4.457,-4.457,-4.457,-4.457,-4.457,-4.457,-4.457,-4.457,-4.457,-4.457,-4.457,-4.457,-4.457,-4.457,-4.457,-4.4519,-4.4553,-4.4384,-4.3876,-4.342,-4.3047,-4.2219,-4.1559,-4.1018,-4.0375,-4.0104,-4.0087,-4.0087,-4.0087,-4.0087,-4.0087,-4.0087,-4.0087,-4.0087,-4.0087,-4.0087,-4.0121,-4.0171,-4.0286,-4.0685,-4.0903,-4.1041,-4.1446,-4.1621,-4.1446,-4.1059,-4.0827,-4.0827,-4.0351,-4.0204,-4.0154,-4.0121,-4.0121,-4.0087,-4.0087,-4.0087,-4.0087,-4.0087,-4.0087,-4.0087,-4.0087,-4.0087,-4.0087,-4.0087,-4.0087,-4.0087,-4.0087,-4.0087,-4.0087,-4.0087,-4.0087,-4.0087,-4.0087,-4.0087,-4.0087,-4.0087,-4.0087,-4.0087,-4.0087,-4.0087,-4.0087,-4.0087,-4.0087,-4.0087,-4.0087,-4.0087,-4.0087,-4.0087,-4.0087,-4.0087,-4.0087,-4.0087,-4.0087,-4.0087,-4.0087,-4.457,-4.457,-4.457,-4.457,-4.457,-4.457,-4.457,-4.457,-4.457,-4.457,-4.457,-4.457,-4.457,-4.457,-4.457,-4.457,-4.457,-4.457,-4.457,-4.457,-4.457,-4.457,-4.457,-4.457,-4.457,-4.457,-4.457,-4.457,-4.457,-4.457,-4.457,-4.457,-4.457,-4.457,-4.457,-4.457,-4.457,-4.4536,-4.4367,-4.3978,-4.3538,-4.3098,-4.2286,-4.1305,-4.051,-4.0189,-4.0087,-4.0087,-4.0087,-4.0087,-4.0087,-4.0087,-4.0087,-4.0087,-4.0087,-4.0087,-4.0121,-4.0286,-4.0607,-4.0733,-4.0903,-4.0856,-4.0967,-4.092,-4.0514,-4.0417,-4.0286,-4.0237,-4.0154,-4.007,-4.0087,-4.0087,-4.0087,-4.0087,-4.0087,-4.0087,-4.0087,-4.0087,-4.0087,-4.0087,-4.0087,-4.0087,-4.0087,-4.0087,-4.0087,-4.0087,-4.0087,-4.0087,-4.0087,-4.0087,-4.0087,-4.0087,-4.0087,-4.0087,-4.0087,-4.0087,-4.0087,-4.0087,-4.0087,-4.0087,-4.0087,-4.0087,-4.0087,-4.0087,-4.0087,-4.0087,-4.0087,-4.0087,-4.0087,-4.0087,-4.0087,-4.0087,-4.0087,-4.0087,-4.0087,-4.457,-4.457,-4.457,-4.457,-4.457,-4.457,-4.457,-4.457,-4.457,-4.457,-4.457,-4.457,-4.457,-4.457,-4.457,-4.457,-4.457,-4.457,-4.457,-4.457,-4.457,-4.457,-4.457,-4.457,-4.457,-4.457,-4.457,-4.457,-4.457,-4.457,-4.457,-4.457,-4.457,-4.457,-4.457,-4.457,-4.457,-4.457,-4.457,-4.435,-4.4012,-4.3555,-4.2709,-4.1491,-4.0798,-4.0476,-4.0121,-4.0087,-4.0087,-4.0087,-4.0087,-4.0087,-4.0087,-4.0087,-4.0087,-4.0087,-4.0121,-4.0204,-4.0466,-4.0546,-4.048,-4.0528,-4.0546,-4.0368,-4.0154,-4.0087,-4.0087,-4.0087,-4.0121,-4.0087,-4.0087,-4.0087,-4.0087,-4.0087,-4.0087,-4.0087,-4.0087,-4.0087,-4.0087,-4.0087,-4.0087,-4.0087,-4.0087,-4.0087,-4.0087,-4.0087,-4.0087,-4.0087,-4.0087,-4.0087,-4.0087,-4.0087,-4.0087,-4.0087,-4.0087,-4.0087,-4.0087,-4.0087,-4.0087,-4.0087,-4.0087,-4.0087,-4.0087,-4.0087,-4.0087,-4.0087,-4.0087,-4.0087,-4.0087,-4.0087,-4.0087,-4.0087,-4.0087,-4.0087,-4.0087,-4.457,-4.457,-4.457,-4.457,-4.457,-4.457,-4.457,-4.457,-4.457,-4.457,-4.457,-4.457,-4.457,-4.457,-4.457,-4.457,-4.457,-4.457,-4.457,-4.457,-4.457,-4.457,-4.457,-4.457,-4.457,-4.457,-4.457,-4.457,-4.457,-4.457,-4.457,-4.457,-4.457,-4.457,-4.457,-4.457,-4.457,-4.457,-4.457,-4.4553,-4.4451,-4.391,-4.2997,-4.1999,-4.1221,-4.0882,-4.0426,-4.0206,-4.0087,-4.0087,-4.0087,-4.0087,-4.0087,-4.0087,-4.0087,-4.0087,-4.0087,-4.0121,-4.0171,-4.0171,-4.0171,-4.0087,-4.0121,-4.0121,-4.0121,-4.0087,-4.0087,-4.0087,-4.0087,-4.0087,-4.0087,-4.0087,-4.0087,-4.0087,-4.0087,-4.0087,-4.0087,-4.0087,-4.0087,-4.0087,-4.0087,-4.0087,-4.0087,-4.0087,-4.0087,-4.0087,-4.0087,-4.0087,-4.0087,-4.0087,-4.0087,-4.0087,-4.0087,-4.0087,-4.0087,-4.0087,-4.0087,-4.0155,-4.0138,-4.0172,-4.0155,-4.0087,-4.0087,-4.0087,-4.0087,-4.0104,-4.0104,-4.0087,-4.0087,-4.0087,-4.0087,-4.0087,-4.0087,-4.0087,-4.0121,-4.457,-4.457,-4.457,-4.457,-4.457,-4.457,-4.457,-4.457,-4.457,-4.457,-4.457,-4.457,-4.457,-4.457,-4.457,-4.457,-4.457,-4.457,-4.457,-4.457,-4.457,-4.457,-4.457,-4.457,-4.457,-4.457,-4.457,-4.457,-4.457,-4.457,-4.457,-4.457,-4.457,-4.457,-4.457,-4.457,-4.457,-4.457,-4.457,-4.457,-4.4502,-4.4333,-4.3842,-4.2794,-4.188,-4.1221,-4.0899,-4.0409,-4.0087,-4.0087,-4.0087,-4.0087,-4.0087,-4.0087,-4.0087,-4.0087,-4.0087,-4.0087,-4.0087,-4.0087,-4.0087,-4.0087,-4.0087,-4.0087,-4.0087,-4.0087,-4.0087,-4.0087,-4.0087,-4.0087,-4.0087,-4.0087,-4.0087,-4.0087,-4.0087,-4.0087,-4.0087,-4.0087,-4.0087,-4.0087,-4.0087,-4.0087,-4.0087,-4.0087,-4.0087,-4.0087,-4.0087,-4.0087,-4.0087,-4.0087,-4.0087,-4.0087,-4.0087,-4.0087,-4.0087,-4.0087,-4.0104,-4.0257,-4.0307,-4.0392,-4.0324,-4.0138,-4.0104,-4.0476,-4.046,-4.0324,-4.029,-4.0324,-4.0375,-4.0595,-4.0392,-4.0155,-4.0426,-4.0679,-4.0358,-4.457,-4.457,-4.457,-4.457,-4.457,-4.457,-4.457,-4.457,-4.457,-4.457,-4.457,-4.457,-4.457,-4.457,-4.457,-4.457,-4.457,-4.457,-4.457,-4.457,-4.457,-4.457,-4.457,-4.457,-4.457,-4.457,-4.457,-4.457,-4.457,-4.457,-4.457,-4.457,-4.457,-4.457,-4.457,-4.457,-4.457,-4.457,-4.457,-4.457,-4.457,-4.457,-4.4164,-4.3335,-4.2422,-4.1644,-4.1102,-4.0476,-4.0087,-4.0087,-4.0087,-4.0087,-4.0087,-4.0087,-4.0087,-4.0087,-4.0087,-4.0087,-4.0087,-4.0087,-4.0087,-4.0087,-4.0087,-4.0087,-4.0087,-4.0087,-4.0087,-4.0087,-4.0087,-4.0087,-4.0087,-4.0087,-4.0087,-4.0087,-4.0087,-4.0087,-4.0087,-4.0087,-4.0087,-4.0087,-4.0087,-4.0087,-4.0087,-4.0087,-4.0087,-4.0087,-4.0087,-4.0087,-4.0087,-4.0087,-4.0087,-4.0121,-4.0138,-4.024,-4.0307,-4.0392,-4.051,-4.0612,-4.0679,-4.0764,-4.095,-4.0967,-4.1136,-4.1424,-4.1205,-4.09,-4.1155,-4.1444,-4.129,-4.1153,-4.1221,-4.1255,-4.1271,-4.1204,-4.0933,-4.457,-4.457,-4.457,-4.457,-4.457,-4.457,-4.457,-4.457,-4.457,-4.457,-4.457,-4.457,-4.457,-4.457,-4.457,-4.457,-4.457,-4.457,-4.457,-4.457,-4.457,-4.457,-4.457,-4.457,-4.457,-4.457,-4.457,-4.457,-4.457,-4.457,-4.457,-4.457,-4.457,-4.457,-4.457,-4.457,-4.457,-4.457,-4.457,-4.457,-4.457,-4.4536,-4.4316,-4.3656,-4.2912,-4.2202,-4.1525,-4.0815,-4.029,-4.0138,-4.0087,-4.0087,-4.0087,-4.0087,-4.0087,-4.0087,-4.0087,-4.0087,-4.0087,-4.0087,-4.0087,-4.0087,-4.0087,-4.0087,-4.0087,-4.0087,-4.0087,-4.0087,-4.0087,-4.0087,-4.0087,-4.0087,-4.0087,-4.0087,-4.0087,-4.0087,-4.0087,-4.0087,-4.0087,-4.0087,-4.0087,-4.0087,-4.0087,-4.0087,-4.0087,-4.0087,-4.0087,-4.0087,-4.0087,-4.0087,-4.0087,-4.0155,-4.024,-4.0409,-4.0578,-4.0849,-4.1085,-4.139,-4.1441,-4.1508,-4.1796,-4.2049,-4.2202,-4.2252,-4.2168,-4.1984,-4.2294,-4.2346,-4.1984,-4.1825,-4.2132,-4.2168,-4.1897,-4.1813,-4.1694,-4.457,-4.457,-4.457,-4.457,-4.4497,-4.4497,-4.4553,-4.4497,-4.444,-4.457,-4.4384,-4.457,-4.4514,-4.457,-4.457,-4.457,-4.457,-4.457,-4.457,-4.457,-4.457,-4.457,-4.457,-4.457,-4.457,-4.457,-4.457,-4.457,-4.457,-4.457,-4.457,-4.457,-4.457,-4.457,-4.457,-4.457,-4.457,-4.457,-4.457,-4.457,-4.457,-4.457,-4.4485,-4.4215,-4.3623,-4.2895,-4.2134,-4.1407,-4.0747,-4.0206,-4.0104,-4.0087,-4.0087,-4.0087,-4.0087,-4.0087,-4.0087,-4.0087,-4.0087,-4.0087,-4.0087,-4.0087,-4.0087,-4.0087,-4.0087,-4.0087,-4.0087,-4.0087,-4.0087,-4.0087,-4.0087,-4.0087,-4.0087,-4.0087,-4.0087,-4.0087,-4.0087,-4.0087,-4.0087,-4.0087,-4.0087,-4.0087,-4.0087,-4.0087,-4.0087,-4.0087,-4.0087,-4.0087,-4.0155,-4.0223,-4.0307,-4.0426,-4.0815,-4.1018,-4.1102,-4.1339,-4.1711,-4.21,-4.2202,-4.2269,-4.2658,-4.2946,-4.2929,-4.2963,-4.2929,-4.2861,-4.2901,-4.278,-4.2446,-4.2547,-4.2892,-4.2692,-4.2286,-4.2303,-4.2523,-4.3152,-4.3152,-4.3152,-4.3152,-4.3152,-4.3152,-4.3152,-4.3152,-4.3152,-4.3136,-4.3213,-4.368,-4.4121,-4.444,-4.457,-4.457,-4.457,-4.457,-4.457,-4.457,-4.457,-4.457,-4.457,-4.457,-4.457,-4.457,-4.457,-4.457,-4.457,-4.457,-4.457,-4.457,-4.457,-4.457,-4.457,-4.457,-4.457,-4.457,-4.457,-4.457,-4.457,-4.457,-4.457,-4.4536,-4.3842,-4.3318,-4.276,-4.1762,-4.1136,-4.0646,-4.0375,-4.0087,-4.0087,-4.0087,-4.0087,-4.0087,-4.0087,-4.0087,-4.0087,-4.0087,-4.0087,-4.0087,-4.0087,-4.0087,-4.0087,-4.0087,-4.0087,-4.0087,-4.0087,-4.0087,-4.0087,-4.0087,-4.0087,-4.0087,-4.0087,-4.0087,-4.0087,-4.0087,-4.0087,-4.0087,-4.0087,-4.0087,-4.0087,-4.0087,-4.0087,-4.0087,-4.0104,-4.0138,-4.0341,-4.0595,-4.0696,-4.0832,-4.1305,-4.1796,-4.1847,-4.1982,-4.2388,-4.2743,-4.2929,-4.3115,-4.3572,-4.3792,-4.369,-4.3775,-4.3876,-4.3758,-4.3538,-4.3538,-4.3517,-4.3529,-4.3597,-4.3399,-4.3234,-4.3504,-4.3572,-4.1543,-4.1412,-4.1804,-4.1981,-4.1981,-4.1981,-4.2045,-4.1997,-4.2045,-4.2189,-4.2458,-4.3047,-4.3697,-4.4138,-4.4253,-4.431,-4.457,-4.457,-4.457,-4.457,-4.457,-4.457,-4.457,-4.457,-4.457,-4.457,-4.457,-4.457,-4.457,-4.457,-4.457,-4.457,-4.457,-4.457,-4.457,-4.457,-4.457,-4.457,-4.457,-4.457,-4.457,-4.457,-4.457,-4.4401,-4.4045,-4.3623,-4.325,-4.2523,-4.1847,-4.1373,-4.0798,-4.0476,-4.046,-4.0223,-4.0104,-4.0087,-4.0087,-4.0087,-4.0087,-4.0087,-4.0087,-4.0087,-4.0087,-4.0087,-4.0087,-4.0087,-4.0087,-4.0087,-4.0087,-4.0087,-4.0087,-4.0087,-4.0087,-4.0087,-4.0087,-4.0087,-4.0087,-4.0087,-4.0087,-4.0087,-4.0087,-4.0087,-4.0087,-4.0087,-4.0087,-4.0087,-4.0121,-4.0206,-4.0595,-4.1035,-4.1305,-4.1508,-4.2066,-4.2557,-4.2625,-4.276,-4.3132,-4.3352,-4.3555,-4.3758,-4.4096,-4.4299,-4.4282,-4.4451,-4.457,-4.4418,-4.4045,-4.4316,-4.4553,-4.4316,-4.4108,-4.435,-4.4401,-4.457,-4.4451,-4.0309,-3.9737,-4.1295,-4.1933,-4.1917,-4.1997,-4.1917,-4.1739,-4.1853,-4.2332,-4.2909,-4.3229,-4.3306,-4.3562,-4.3756,-4.4064,-4.457,-4.457,-4.457,-4.457,-4.457,-4.457,-4.457,-4.457,-4.457,-4.457,-4.457,-4.457,-4.457,-4.457,-4.457,-4.457,-4.457,-4.457,-4.457,-4.457,-4.457,-4.457,-4.457,-4.457,-4.457,-4.457,-4.457,-4.457,-4.4451,-4.4181,-4.3487,-4.3149,-4.2794,-4.2219,-4.1525,-4.1001,-4.0865,-4.051,-4.029,-4.0104,-4.0087,-4.0087,-4.0087,-4.0087,-4.0087,-4.0087,-4.0087,-4.0087,-4.0087,-4.0087,-4.0087,-4.0087,-4.0087,-4.0087,-4.0087,-4.0087,-4.0087,-4.0087,-4.0087,-4.0087,-4.0087,-4.0087,-4.0087,-4.0087,-4.0104,-4.0138,-4.0358,-4.0409,-4.0426,-4.0443,-4.0747,-4.0849,-4.1271,-4.1711,-4.2033,-4.2371,-4.2929,-4.3301,-4.342,-4.3639,-4.3876,-4.3978,-4.4096,-4.4248,-4.4434,-4.457,-4.457,-4.457,-4.457,-4.457,-4.457,-4.457,-4.457,-4.457,-4.457,-4.457,-4.457,-4.457,-4.457,-3.9737,-3.9481,-4.013,-4.0378,-4.0378,-4.0378,-4.0378,-4.0378,-4.0378,-4.1229,-4.2458,-4.252,-4.3108,-4.3798,-4.4121,-4.4253,-4.457,-4.457,-4.457,-4.457,-4.457,-4.457,-4.457,-4.457,-4.457,-4.457,-4.457,-4.457,-4.457,-4.457,-4.457,-4.457,-4.457,-4.457,-4.457,-4.457,-4.457,-4.457,-4.457,-4.457,-4.457,-4.457,-4.457,-4.457,-4.457,-4.4451,-4.4113,-4.3639,-4.3301,-4.2878,-4.2252,-4.1779,-4.1373,-4.0967,-4.0612,-4.0257,-4.0206,-4.0172,-4.0155,-4.0138,-4.0087,-4.0087,-4.0087,-4.0087,-4.0087,-4.0087,-4.0087,-4.0087,-4.0087,-4.0087,-4.0087,-4.0087,-4.0087,-4.0087,-4.0087,-4.0087,-4.0121,-4.0138,-4.024,-4.0307,-4.029,-4.0273,-4.0544,-4.0832,-4.0815,-4.0849,-4.1187,-4.1559,-4.1982,-4.2439,-4.2794,-4.3064,-4.3572,-4.3876,-4.4012,-4.4282,-4.457,-4.457,-4.457,-4.457,-4.457,-4.457,-4.457,-4.457,-4.457,-4.457,-4.457,-4.457,-4.457,-4.457,-4.457,-4.457,-4.457,-4.457,-4.457,-3.9424,-3.9424,-3.9424,-3.9424,-3.9424,-3.9424,-3.9424,-3.9424,-3.9424,-4.0005,-4.1213,-4.1543,-4.2379,-4.3529,-4.3798,-4.4196,-4.444,-4.457,-4.457,-4.457,-4.457,-4.457,-4.457,-4.457,-4.457,-4.457,-4.457,-4.457,-4.457,-4.457,-4.457,-4.457,-4.457,-4.457,-4.457,-4.457,-4.457,-4.457,-4.457,-4.457,-4.457,-4.457,-4.457,-4.457,-4.457,-4.4553,-4.4401,-4.4079,-4.3876,-4.3555,-4.3081,-4.2439,-4.1999,-4.161,-4.1238,-4.0865,-4.0544,-4.0493,-4.0612,-4.0257,-4.0121,-4.0087,-4.0087,-4.0087,-4.0087,-4.0087,-4.0087,-4.0087,-4.0087,-4.0104,-4.0121,-4.0087,-4.0087,-4.0087,-4.0087,-4.0087,-4.024,-4.0307,-4.046,-4.0561,-4.0696,-4.1068,-4.1373,-4.1728,-4.1745,-4.1813,-4.2117,-4.2422,-4.2675,-4.3149,-4.3639,-4.3876,-4.4113,-4.435,-4.4553,-4.457,-4.457,-4.457,-4.457,-4.457,-4.457,-4.457,-4.457,-4.457,-4.457,-4.457,-4.457,-4.457,-4.457,-4.457,-4.457,-4.457,-4.457,-4.457,-4.457,-3.9424,-3.9424,-3.9424,-3.9424,-3.9424,-3.9424,-3.9424,-3.9424,-3.9424,-3.9553,-3.9935,-4.0569,-4.1412,-4.2252,-4.2707,-4.341,-4.444,-4.457,-4.457,-4.457,-4.457,-4.457,-4.457,-4.457,-4.457,-4.457,-4.457,-4.457,-4.457,-4.457,-4.457,-4.457,-4.457,-4.457,-4.457,-4.457,-4.457,-4.457,-4.457,-4.457,-4.457,-4.457,-4.457,-4.457,-4.457,-4.457,-4.4502,-4.4451,-4.4299,-4.4198,-4.3758,-4.3284,-4.3031,-4.2523,-4.2185,-4.1999,-4.1457,-4.1525,-4.2016,-4.0832,-4.0426,-4.0426,-4.0595,-4.0493,-4.0273,-4.0223,-4.0375,-4.0646,-4.0443,-4.0324,-4.0206,-4.0223,-4.0341,-4.0409,-4.0476,-4.0544,-4.0747,-4.0865,-4.1068,-4.1188,-4.1711,-4.2252,-4.2489,-4.2709,-4.276,-4.2878,-4.3098,-4.3301,-4.3399,-4.3707,-4.4164,-4.4282,-4.4473,-4.4468,-4.457,-4.457,-4.457,-4.457,-4.457,-4.457,-4.457,-4.457,-4.457,-4.457,-4.457,-4.457,-4.457,-4.457,-4.457,-4.457,-4.457,-4.457,-4.457,-4.457,-4.457,-3.9424,-3.9424,-3.9424,-3.9424,-3.9424,-3.9424,-3.9424,-3.9424,-3.9424,-3.9737,-4.0255,-4.0622,-4.1543,-4.2458,-4.2847,-4.3426,-4.4367,-4.457,-4.457,-4.457,-4.457,-4.457,-4.457,-4.457,-4.457,-4.457,-4.457,-4.457,-4.457,-4.457,-4.457,-4.457,-4.457,-4.457,-4.457,-4.457,-4.457,-4.457,-4.457,-4.457,-4.457,-4.457,-4.457,-4.457,-4.457,-4.457,-4.457,-4.457,-4.457,-4.457,-4.413,-4.3927,-4.3606,-4.3064,-4.2844,-4.2506,-4.1965,-4.2016,-4.2219,-4.1711,-4.1593,-4.1542,-4.1424,-4.1407,-4.1525,-4.1542,-4.1559,-4.1474,-4.1339,-4.1373,-4.1576,-4.1576,-4.1644,-4.166,-4.1694,-4.1694,-4.1779,-4.183,-4.1914,-4.1916,-4.2308,-4.2726,-4.3081,-4.3182,-4.33,-4.3328,-4.3457,-4.376,-4.3895,-4.4125,-4.4468,-4.4468,-4.4519,-4.4536,-4.457,-4.457,-4.457,-4.457,-4.457,-4.457,-4.457,-4.457,-4.457,-4.457,-4.457,-4.457,-4.457,-4.457,-4.457,-4.457,-4.457,-4.457,-4.457,-4.457,-4.457,-3.9424,-3.9424,-3.9424,-3.9424,-3.9424,-3.9424,-3.9424,-3.9424,-3.9424,-3.9737,-4.0115,-4.0255,-4.1162,-4.2395,-4.2909,-4.3621,-4.4497,-4.457,-4.457,-4.457,-4.457,-4.457,-4.457,-4.457,-4.457,-4.457,-4.457,-4.457,-4.457,-4.457,-4.457,-4.457,-4.457,-4.457,-4.457,-4.457,-4.457,-4.457,-4.457,-4.457,-4.457,-4.457,-4.457,-4.457,-4.457,-4.457,-4.457,-4.457,-4.457,-4.457,-4.4485,-4.4333,-4.3927,-4.3724,-4.3555,-4.3217,-4.3081,-4.298,-4.2777,-4.3081,-4.3047,-4.3081,-4.2692,-4.2337,-4.2303,-4.2134,-4.2151,-4.2185,-4.2354,-4.2337,-4.2337,-4.2388,-4.2422,-4.2405,-4.2388,-4.2354,-4.2388,-4.2405,-4.2675,-4.2678,-4.3003,-4.3335,-4.3495,-4.3585,-4.3681,-4.3706,-4.3806,-4.3989,-4.4047,-4.4121,-4.4169,-4.4198,-4.4255,-4.4294,-4.4434,-4.457,-4.457,-4.457,-4.457,-4.457,-4.457,-4.457,-4.457,-4.457,-4.457,-4.457,-4.457,-4.457,-4.457,-4.457,-4.457,-4.457,-4.457,-4.457,-4.457,-3.9424,-3.9424,-3.9424,-3.9424,-3.9424,-3.9424,-3.9424,-3.9424,-3.9424,-3.9409,-3.9424,-3.9553,-4.0516,-4.1788,-4.2045,-4.3015,-4.431,-4.457,-4.457,-4.457,-4.457,-4.457,-4.457,-4.457,-4.457,-4.457,-4.457,-4.457,-4.457,-4.457,-4.457,-4.457,-4.457,-4.457,-4.457,-4.457,-4.457,-4.457,-4.457,-4.457,-4.457,-4.457,-4.457,-4.457,-4.457,-4.457,-4.457,-4.457,-4.457,-4.457,-4.4553,-4.4553,-4.4519,-4.4553,-4.457,-4.4519,-4.4418,-4.3978,-4.3673,-4.4028,-4.4198,-4.3995,-4.3217,-4.2658,-4.2574,-4.2794,-4.2878,-4.2828,-4.2861,-4.2675,-4.2557,-4.2625,-4.2692,-4.2692,-4.2675,-4.2692,-4.2743,-4.2946,-4.3356,-4.3627,-4.4016,-4.4193,-4.3877,-4.3914,-4.3426,-4.3152,-4.2953,-4.2769,-4.2892,-4.3229,-4.3277,-4.3413,-4.3618,-4.3895,-4.4103,-4.4446,-4.457,-4.457,-4.457,-4.457,-4.457,-4.457,-4.457,-4.457,-4.457,-4.457,-4.457,-4.457,-4.457,-4.457,-4.457,-4.457,-4.457,-4.457,-4.457,-3.9424,-3.9424,-3.9424,-3.9424,-3.9424,-3.9424,-3.9424,-3.9424,-3.9424,-3.9424,-3.9424,-3.9424,-4.0378,-4.1933,-4.1981,-4.3092,-4.3989,-4.457,-4.457,-4.457,-4.457,-4.457,-4.457,-4.457,-4.457,-4.457,-4.457,-4.457,-4.457,-4.457,-4.457,-4.457,-4.457,-4.457,-4.457,-4.457,-4.457,-4.457,-4.457,-4.457,-4.457,-4.457,-4.457,-4.457,-4.457,-4.457,-4.457,-4.457,-4.457,-4.457,-4.457,-4.457,-4.457,-4.457,-4.457,-4.457,-4.4519,-4.4434,-4.4316,-4.4434,-4.457,-4.457,-4.4028,-4.4062,-4.3944,-4.3775,-4.3741,-4.3606,-4.3572,-4.3504,-4.3487,-4.3504,-4.3521,-4.3504,-4.3504,-4.3521,-4.3572,-4.3673,-4.4012,-4.4113,-4.4536,-4.4138,-4.3864,-4.335,-4.2831,-4.2442,-4.2125,-4.1804,-4.1804,-4.2125,-4.2201,-4.2337,-4.2774,-4.309,-4.3877,-4.435,-4.4497,-4.457,-4.444,-4.4367,-4.431,-4.431,-4.4497,-4.4463,-4.4266,-4.4373,-4.457,-4.457,-4.457,-4.457,-4.457,-4.457,-4.457,-4.457,-4.457,-3.9424,-3.9424,-3.9424,-3.9424,-3.9424,-3.9424,-3.9424,-3.9424,-3.9424,-3.9424,-3.9424,-3.9424,-4.0185,-4.1346,-4.1869,-4.2769,-4.3931,-4.444,-4.457,-4.457,-4.457,-4.457,-4.457,-4.457,-4.457,-4.457,-4.457,-4.457,-4.457,-4.457,-4.457,-4.457,-4.457,-4.457,-4.457,-4.457,-4.457,-4.457,-4.457,-4.457,-4.457,-4.457,-4.457,-4.457,-4.457,-4.457,-4.457,-4.457,-4.457,-4.457,-4.457,-4.457,-4.457,-4.457,-4.457,-4.457,-4.457,-4.4553,-4.4502,-4.4519,-4.457,-4.457,-4.457,-4.4519,-4.4485,-4.4333,-4.4367,-4.435,-4.4434,-4.4502,-4.4519,-4.4553,-4.4519,-4.4502,-4.4502,-4.4502,-4.4519,-4.4502,-4.4553,-4.4514,-4.4279,-4.3846,-4.3377,-4.2756,-4.2125,-4.1543,-4.1028,-4.0585,-4.0706,-4.1162,-4.106,-4.1022,-4.1606,-4.2217,-4.3105,-4.3764,-4.3604,-4.3621,-4.3798,-4.3739,-4.3798,-4.3798,-4.3739,-4.3756,-4.3755,-4.3927,-4.408,-4.4502,-4.457,-4.457,-4.457,-4.457,-4.457,-4.457,-4.457,-3.9424,-3.9424,-3.9424,-3.9424,-3.9424,-3.9424,-3.9424,-3.9424,-3.9424,-3.9424,-3.9424,-3.9424,-4.0005,-4.1147,-4.1804,-4.2629,-4.368,-4.4384,-4.457,-4.457,-4.457,-4.457,-4.457,-4.457,-4.457,-4.457,-4.457,-4.457,-4.457,-4.457,-4.457,-4.457,-4.457,-4.457,-4.457,-4.457,-4.457,-4.457,-4.457,-4.457,-4.457,-4.457,-4.457,-4.457,-4.457,-4.457,-4.457,-4.457,-4.457,-4.457,-4.457,-4.457,-4.457,-4.457,-4.457,-4.457,-4.457,-4.457,-4.457,-4.457,-4.457,-4.457,-4.457,-4.457,-4.457,-4.457,-4.457,-4.457,-4.457,-4.457,-4.457,-4.457,-4.457,-4.457,-4.457,-4.457,-4.457,-4.4429,-4.4125,-4.398,-4.3498,-4.3088,-4.2476,-4.1853,-4.128,-4.0638,-4.0255,-3.9737,-3.9879,-4.0324,-4.0331,-4.0173,-4.0798,-4.1566,-4.204,-4.2502,-4.2348,-4.249,-4.2847,-4.297,-4.2892,-4.2909,-4.2909,-4.2982,-4.3037,-4.3265,-4.3501,-4.391,-4.4327,-4.457,-4.457,-4.457,-4.457,-4.4514,-4.457,-3.9424,-3.9424,-3.9424,-3.9424,-3.9424,-3.9424,-3.9424,-3.9424,-3.9424,-3.9424,-3.9424,-3.9481,-4.0185,-4.1412,-4.1804,-4.2707,-4.3989,-4.4384,-4.457,-4.457,-4.457,-4.457,-4.457,-4.457,-4.457,-4.457,-4.457,-4.457,-4.457,-4.457,-4.457,-4.457,-4.457,-4.457,-4.457,-4.457,-4.457,-4.457,-4.457,-4.457,-4.457,-4.457,-4.457,-4.457,-4.457,-4.457,-4.457,-4.457,-4.457,-4.457,-4.457,-4.457,-4.457,-4.457,-4.457,-4.457,-4.457,-4.457,-4.457,-4.457,-4.457,-4.457,-4.457,-4.457,-4.457,-4.457,-4.457,-4.457,-4.457,-4.457,-4.457,-4.457,-4.457,-4.457,-4.457,-4.457,-4.4553,-4.4125,-4.3679,-4.3261,-4.2775,-4.2206,-4.1541,-4.1028,-4.0447,-4.006,-3.9737,-3.9481,-3.9481,-3.9809,-4.0185,-4.0132,-4.0451,-4.0993,-4.1256,-4.1415,-4.1393,-4.1656,-4.2062,-4.2062,-4.1933,-4.1869,-4.182,-4.2093,-4.2285,-4.2434,-4.2797,-4.3337,-4.373,-4.4169,-4.4367,-4.431,-4.431,-4.431,-4.444,-3.9424,-3.9424,-3.9424,-3.9424,-3.9424,-3.9424,-3.9424,-3.9424,-3.9424,-3.9424,-3.9424,-3.9481,-4.02,-4.1478,-4.1804,-4.2707,-4.4006,-4.444,-4.457,-4.457,-4.457,-4.457,-4.457,-4.457,-4.457,-4.457,-4.457,-4.457,-4.457,-4.457,-4.457,-4.457,-4.457,-4.457,-4.457,-4.457,-4.457,-4.457,-4.457,-4.457,-4.457,-4.457,-4.457,-4.457,-4.457,-4.457,-4.457,-4.457,-4.457,-4.457,-4.457,-4.457,-4.457,-4.457,-4.457,-4.457,-4.457,-4.457,-4.457,-4.457,-4.457,-4.457,-4.457,-4.457,-4.457,-4.457,-4.457,-4.457,-4.457,-4.457,-4.457,-4.457,-4.457,-4.457,-4.4514,-4.444,-4.3872,-4.3247,-4.2873,-4.2564,-4.2044,-4.144,-4.0839,-4.0378,-3.9864,-3.9737,-3.9424,-3.9424,-3.9424,-3.9424,-3.9737,-3.998,-4.0187,-4.0247,-4.0277,-4.0378,-4.0455,-4.082,-4.128,-4.128,-4.1213,-4.0894,-4.0789,-4.1003,-4.1263,-4.1554,-4.1907,-4.2574,-4.3244,-4.3726,-4.387,-4.3931,-4.3931,-4.3814,-4.3604,-3.9424,-3.9424,-3.9424,-3.9424,-3.9424,-3.9424,-3.9424,-3.9424,-3.9424,-3.9424,-3.9424,-3.9424,-3.999,-4.0894,-4.1609,-4.2583,-4.3486,-4.431,-4.457,-4.457,-4.457,-4.457,-4.457,-4.457,-4.457,-4.457,-4.457,-4.457,-4.457,-4.457,-4.457,-4.457,-4.457,-4.457,-4.457,-4.457,-4.457,-4.457,-4.457,-4.457,-4.457,-4.457,-4.457,-4.457,-4.457,-4.457,-4.457,-4.457,-4.457,-4.457,-4.457,-4.457,-4.457,-4.457,-4.457,-4.457,-4.457,-4.457,-4.457,-4.457,-4.457,-4.457,-4.457,-4.457,-4.457,-4.457,-4.457,-4.457,-4.457,-4.457,-4.457,-4.457,-4.457,-4.4253,-4.4179,-4.3989,-4.3185,-4.2382,-4.2075,-4.1788,-4.1252,-4.0622,-4.0249,-3.9696,-3.9538,-3.9424,-3.9424,-3.9424,-3.9424,-3.9424,-3.9553,-3.961,-3.976,-3.9643,-3.9538,-3.9696,-3.9955,-3.998,-4.0378,-4.0447,-4.0516,-4.0255,-4.0021,-3.9869,-4.0092,-4.0598,-4.1202,-4.1873,-4.2486,-4.3041,-4.3155,-4.3092,-4.3031,-4.2909,-4.2442,-3.9424,-3.9424,-3.9424,-3.9424,-3.9424,-3.9424,-3.9424,-3.9424,-3.9424,-3.9424,-3.9424,-3.9553,-4.0185,-4.1739,-4.1853,-4.2707,-4.4064,-4.457,-4.457,-4.457,-4.457,-4.457,-4.457,-4.457,-4.457,-4.457,-4.457,-4.457,-4.457,-4.457,-4.457,-4.457,-4.457,-4.457,-4.457,-4.457,-4.457,-4.457,-4.457,-4.457,-4.457,-4.457,-4.457,-4.457,-4.457,-4.457,-4.457,-4.457,-4.457,-4.457,-4.457,-4.457,-4.457,-4.457,-4.457,-4.457,-4.457,-4.457,-4.457,-4.457,-4.457,-4.457,-4.457,-4.457,-4.457,-4.444,-4.4497,-4.4514,-4.4514,-4.4367,-4.4367,-4.444,-4.4384,-4.3529,-4.3092,-4.2769,-4.2172,-4.1484,-4.1041,-4.0696,-4.037,-4.0001,-3.9715,-3.9481,-3.9481,-3.9424,-3.9424,-3.9424,-3.9424,-3.9424,-3.9424,-3.9424,-3.9424,-3.9424,-3.9424,-3.9481,-3.9568,-3.9553,-3.9553,-3.9809,-3.9864,-3.9595,-3.9439,-3.9469,-3.9601,-3.9994,-4.0561,-4.1115,-4.1582,-4.206,-4.2203,-4.2269,-4.2205,-4.1933,-4.1478]}]]